[[{"header":{"parameterUnit":"m.s-1","parameterCategory":1,"la1":30.6,"la2":29.2853,"lo1":-89.7004,"lo2":-87.6739,"dy":0.0162,"dx":0.0183,"nx":112,"ny":82,"refTime":"2023-08-27T12:00:00:Z","depth":0,"parameterNumber":2,"parameterNumberName":"U-component_of_WINDS"},"data":[0.0,0.0,0.0,0.0,0.0,0.0,0.0,0.0,0.0,0.0,0.0,0.0,0.0,0.0,0.0,0.0,0.0,0.0,0.0,0.0,0.0,0.0,0.0,0.0,0.0,0.0,0.0,0.0,0.0,0.0,0.0,0.0,0.0,0.0,0.0,0.0,0.0,0.0,0.0,0.0,0.0,0.0,0.0,0.0,0.0,0.0,0.0,0.0,0.0,0.0,0.0,0.0,0.0,0.0,0.0,0.0,0.0,0.0,0.0,0.0,0.0,0.0,0.0,0.0,0.0,0.0,0.0,0.0,0.0,0.0,0.0,0.0,0.0,0.0,0.0,0.0,0.0,0.0,0.0,0.0,0.0,0.0,0.0,0.0,0.0,0.0,0.0,0.0,0.0,0.0,1.1222,1.2488,1.2381,1.2023,1.157,1.075,1.0081,0.9593,0.0,0.0,0.0,0.0,0.0,0.0,0.0,0.0,0.0,0.0,0.0,0.0,0.0,0.0,0.0,0.0,0.0,0.0,0.0,0.0,0.0,0.0,0.0,0.0,0.0,0.0,0.0,0.0,0.0,0.0,0.0,0.0,0.0,0.0,0.0,0.0,0.0,0.0,0.0,0.0,0.0,0.0,0.0,0.0,0.0,0.0,0.0,0.0,0.0,0.0,0.0,0.0,0.0,0.0,0.0,0.0,0.0,0.0,0.0,0.0,0.0,0.0,0.0,0.0,0.0,0.0,0.0,0.0,0.0,0.0,0.0,0.0,0.0,0.0,0.0,0.0,0.0,0.0,0.0,0.0,0.0,0.0,0.0,0.0,0.0,0.0,0.0,0.0,0.0,0.0,0.0,0.0,0.0,0.0,0.0,0.0,0.0,0.0,0.0,0.0,0.0,0.0,0.0,0.0,1.0813,1.1771,1.182,1.1986,1.2442,1.0802,0.9867,1.0226,0.0,0.0,0.0,0.0,0.0,0.0,0.0,0.0,0.0,0.0,0.0,0.0,0.0,0.0,0.0,0.0,0.0,0.0,0.0,0.0,0.0,0.0,0.0,0.0,0.0,0.0,0.0,0.0,0.0,0.0,0.0,0.0,0.0,0.0,0.0,0.0,0.0,0.0,0.0,0.0,0.0,0.0,0.0,0.0,0.0,0.0,0.0,0.0,0.0,0.0,0.0,0.0,0.0,0.0,0.0,0.0,0.0,0.0,0.0,0.0,0.0,0.0,0.0,0.0,0.0,0.0,0.0,0.0,0.0,0.0,0.0,0.0,0.0,0.0,0.0,0.0,0.0,0.0,0.0,0.0,0.0,0.0,0.0,0.0,0.0,0.0,0.0,0.0,0.0,0.0,0.0,0.0,0.0,0.0,0.0,0.0,0.0,0.0,0.0,0.0,0.0,0.0,0.0,1.1872,1.1732,1.2196,1.2075,1.2101,1.2399,1.0266,0.9246,1.0083,0.8735,0.0,0.0,0.0,0.0,0.0,0.0,0.0,0.0,0.0,0.0,0.0,0.0,0.0,0.0,0.0,0.0,0.0,0.0,0.0,0.0,0.0,0.0,0.0,0.0,0.0,0.0,0.0,0.0,0.0,0.0,0.0,0.0,0.0,0.0,0.0,0.0,0.0,0.0,0.0,0.0,0.0,0.0,0.0,0.0,0.0,0.0,0.0,0.0,0.0,0.0,0.0,0.0,0.0,0.0,0.0,0.0,0.0,0.0,0.0,0.0,0.0,0.0,0.0,0.0,0.0,0.0,0.0,0.0,0.0,0.0,0.0,0.0,0.0,0.0,0.0,0.0,0.0,0.0,0.0,0.0,0.0,0.0,0.0,0.0,0.0,0.0,0.0,0.0,0.0,0.0,0.0,0.0,0.0,0.0,0.0,0.0,0.0,0.0,0.0,0.0,0.0,0.0,1.177,1.1845,1.2197,1.2013,1.1856,1.1856,0.9674,0.8763,0.983,0.8203,0.0,0.0,0.0,0.0,0.0,0.0,0.0,0.0,0.0,0.0,0.0,0.0,0.0,0.0,0.0,0.0,0.0,0.0,0.0,0.0,0.0,0.0,0.0,0.0,0.0,0.0,0.0,0.0,0.0,0.0,0.0,0.0,0.0,0.0,0.0,0.0,0.0,0.0,0.0,0.0,0.0,0.0,0.0,0.0,0.0,0.0,0.0,0.0,0.0,0.0,0.0,0.0,0.0,0.0,0.0,0.0,0.0,0.0,0.0,0.0,0.0,0.0,0.0,0.0,0.0,0.0,0.0,0.0,0.0,0.0,0.0,0.0,0.0,0.0,0.0,0.0,0.0,0.0,0.0,0.0,0.0,0.0,0.0,0.0,0.0,0.0,0.0,0.0,0.0,0.0,0.0,0.0,0.0,0.0,0.0,0.0,0.0,0.0,0.0,0.0,0.0,0.0,0.9847,0.9717,1.0727,1.0812,1.0812,1.0812,0.9265,0.8763,0.983,0.8203,0.0,0.0,0.0,0.0,0.0,0.0,0.0,0.0,0.0,0.0,0.0,0.0,0.0,0.0,0.0,0.0,0.0,0.0,0.0,0.0,0.0,0.0,0.0,0.0,0.0,0.0,0.0,0.0,0.0,0.0,0.0,0.0,0.0,0.0,0.0,0.0,0.0,0.0,0.0,0.0,0.0,0.0,0.0,0.0,0.0,0.0,0.0,0.0,0.0,0.0,0.0,0.0,0.0,0.0,0.0,0.0,0.0,0.0,0.0,0.0,0.0,0.0,0.0,0.0,0.0,0.0,0.0,0.0,0.0,0.0,0.0,0.0,0.0,0.0,0.0,0.0,0.0,0.0,0.0,0.0,0.0,0.0,0.0,0.0,0.0,0.0,0.0,0.0,0.0,0.0,0.0,0.0,0.0,0.0,0.0,0.0,0.0,0.0,0.0,0.0,0.0,0.0,1.1036,1.0659,1.0694,1.0694,1.0694,1.0694,0.9216,0.8763,0.983,0.0,0.0,0.0,0.0,0.0,0.0,0.0,0.0,0.0,0.0,0.0,0.0,0.0,0.0,0.0,0.0,0.0,0.0,0.0,0.0,0.0,0.0,0.0,0.0,0.0,0.0,0.0,0.0,0.0,0.0,0.0,0.0,0.0,0.0,0.0,0.0,0.0,0.0,0.0,0.0,0.0,0.0,0.0,0.0,0.0,0.0,0.0,0.0,0.0,0.0,0.0,0.0,0.0,0.0,0.0,0.0,0.0,0.0,0.0,0.0,0.0,0.0,0.0,0.0,0.0,0.0,0.0,0.0,0.0,0.0,0.0,0.0,0.0,0.0,0.0,0.0,0.0,0.0,0.0,0.0,0.0,0.0,0.0,0.0,0.0,0.0,0.0,0.0,0.0,0.0,0.0,0.0,0.0,0.0,0.0,0.0,0.0,0.0,0.0,0.0,0.0,0.0,1.183,1.1197,1.0709,1.0456,1.0458,1.0368,1.0219,0.9039,0.8642,0.9391,0.0,0.0,0.0,0.0,0.0,0.0,0.0,0.0,0.0,0.0,0.0,0.0,0.0,0.0,0.0,0.0,0.0,0.0,0.0,0.0,0.0,0.0,0.0,0.0,0.0,0.0,0.0,0.0,0.0,0.0,0.0,0.0,0.0,0.0,0.0,0.0,0.0,0.0,0.0,0.0,0.0,0.0,0.0,0.0,0.0,0.0,0.0,0.0,0.0,0.0,0.0,0.0,0.0,0.0,0.0,0.0,0.0,0.0,0.0,0.0,0.0,0.0,0.0,0.0,0.0,0.0,0.0,0.0,0.0,0.0,0.0,0.0,0.0,0.0,0.0,0.0,0.0,0.0,0.0,0.0,0.0,0.0,0.0,0.0,0.0,0.0,0.0,0.0,0.0,0.0,0.0,0.0,0.0,0.0,0.0,0.0,0.0,0.0,0.0,0.0,0.0,0.0,1.0762,0.9767,0.929,0.983,0.9893,0.9667,0.9138,0.86,0.8344,0.0,0.0,0.0,0.0,0.0,0.0,0.0,0.0,0.0,0.0,0.0,0.0,0.0,0.0,0.0,0.0,0.0,0.0,0.0,0.0,0.0,0.0,0.0,0.0,0.0,0.0,0.0,0.0,0.0,0.0,0.0,0.0,0.0,0.0,0.0,0.0,0.0,0.0,0.0,0.0,0.0,0.0,0.0,0.0,0.0,0.0,0.0,0.0,0.0,0.0,0.0,0.0,0.0,0.0,0.0,0.0,0.0,0.0,0.0,0.0,0.0,0.0,0.0,0.0,0.0,0.0,0.0,0.0,0.0,0.0,0.0,0.0,0.0,0.0,0.0,0.0,0.0,0.0,0.0,0.0,0.0,0.0,0.0,0.0,0.0,0.0,0.0,0.0,0.0,0.0,0.0,0.0,0.0,0.0,0.0,0.0,0.0,0.0,0.0,0.0,0.0,0.0,0.0,1.0924,0.9991,0.9214,0.8947,0.9157,0.9126,0.8575,0.8001,0.8022,0.886,0.0,0.0,0.0,0.0,0.0,0.0,0.0,0.0,0.0,0.0,0.0,0.0,0.0,0.0,0.0,0.0,0.0,0.0,0.0,0.0,0.0,0.0,0.0,0.0,0.0,0.0,0.0,0.0,0.0,0.0,0.0,0.0,0.0,0.0,0.0,0.0,0.0,0.0,0.0,0.0,0.0,0.0,0.0,0.0,0.0,0.0,0.0,0.0,0.0,0.0,0.0,0.0,0.0,0.0,0.0,0.0,0.0,0.0,0.0,0.0,0.0,0.0,0.0,0.0,0.0,0.0,0.0,0.0,0.0,0.0,0.0,0.0,0.0,0.0,0.0,0.0,0.0,0.0,0.0,0.0,0.0,0.0,0.0,0.0,0.0,0.0,0.0,0.0,0.0,0.0,0.0,0.0,0.0,0.0,0.0,0.0,0.0,0.0,0.0,0.0,0.0,0.0,1.0984,1.0052,0.925,0.8892,0.9194,0.9214,0.8663,0.8298,0.8308,0.8825,0.0,0.0,0.0,0.0,0.0,0.0,0.0,0.0,0.0,0.0,0.0,0.0,0.0,0.0,0.0,0.0,0.0,0.0,0.0,0.0,0.0,0.0,0.0,0.0,0.0,0.0,0.0,0.0,0.0,0.0,0.0,0.0,0.0,0.0,0.0,0.0,0.0,0.0,0.0,0.0,0.0,0.0,0.0,0.0,0.0,0.0,0.0,0.0,0.0,0.0,0.0,0.0,0.0,0.0,0.0,0.0,0.0,0.0,0.0,0.0,0.0,0.0,0.0,0.0,0.0,0.0,0.0,0.0,0.0,0.0,0.0,0.0,0.0,0.0,0.0,0.0,0.0,0.0,0.0,0.0,0.0,0.0,0.0,0.0,0.0,0.0,0.0,0.0,0.0,0.0,0.0,0.0,0.0,0.0,0.0,0.0,0.0,0.0,0.0,0.0,0.0,0.0,1.0958,1.0023,0.9331,0.9283,0.9612,0.9604,0.9075,0.9037,0.8872,0.8489,0.0,0.0,0.0,0.0,0.0,0.0,0.0,0.0,0.0,0.0,0.0,0.0,0.0,0.0,0.0,0.0,0.0,0.0,0.0,0.0,0.0,0.0,0.0,0.0,0.0,0.0,0.0,0.0,0.0,0.0,0.0,0.0,0.0,0.0,0.0,0.0,0.0,0.0,0.0,0.0,0.0,0.0,0.0,0.0,0.0,0.0,0.0,0.0,0.0,0.0,0.0,0.0,0.0,0.0,0.0,0.0,0.0,0.0,0.0,0.0,1.9172,1.9002,0.0,0.0,0.0,0.0,0.0,0.0,0.0,0.0,0.0,0.0,0.0,0.0,0.0,0.0,0.0,0.0,0.0,0.0,0.0,0.0,0.0,0.0,0.0,0.0,0.0,0.0,0.0,0.0,0.0,0.0,0.0,0.0,0.0,0.0,0.0,0.0,0.0,0.0,0.0,0.0,1.0547,0.9608,0.8779,0.833,0.8875,0.9063,0.8512,0.8474,0.8418,0.8351,0.8453,0.0,0.0,0.0,0.0,0.0,0.0,0.0,0.0,0.0,0.0,0.0,0.0,0.0,0.0,0.0,0.0,0.0,0.0,0.0,0.0,0.0,0.0,0.0,0.0,0.0,0.0,0.0,0.0,0.0,0.0,0.0,0.0,0.0,0.0,0.0,0.0,0.0,0.0,0.0,0.0,0.0,0.0,0.0,0.0,0.0,0.0,0.0,0.0,0.0,0.0,0.0,0.0,0.0,0.0,0.0,0.0,0.0,0.0,0.0,1.8992,1.8622,0.0,0.0,0.0,0.0,0.0,0.0,0.0,0.0,0.0,0.0,0.0,0.0,0.0,0.0,0.0,0.0,0.0,0.0,0.0,0.0,0.0,0.0,0.0,0.0,0.0,0.0,0.0,0.0,0.0,0.0,0.0,0.0,0.0,0.0,0.0,0.0,0.0,0.0,0.0,0.0,1.0475,0.9491,0.8688,0.8405,0.9055,0.9253,0.8725,0.8926,0.8964,0.8688,0.8997,0.0,0.0,0.0,0.0,0.0,0.0,0.0,0.0,0.0,0.0,0.0,0.0,0.0,0.0,0.0,0.0,0.0,0.0,0.0,0.0,0.0,0.0,0.0,0.0,0.0,0.0,0.0,0.0,0.0,0.0,0.0,0.0,0.0,0.0,0.0,0.0,0.0,0.0,0.0,0.0,0.0,0.0,0.0,0.0,0.0,0.0,0.0,0.0,0.0,0.0,0.0,0.0,0.0,1.9863,2.0004,2.0451,2.0327,1.9897,1.9223,1.9223,1.8559,1.7555,1.8279,0.0,0.0,0.0,0.0,0.0,0.0,0.0,0.0,0.0,0.0,0.0,0.0,0.0,0.0,0.0,0.0,0.0,0.0,0.0,0.0,0.0,0.0,1.7346,1.7476,1.7076,1.6671,1.6685,0.0,0.0,0.0,0.0,0.0,0.0,0.0,0.0,0.0,0.0,0.0,1.0447,0.9533,0.8899,0.8899,0.949,0.9717,0.9289,0.9642,0.9667,0.9138,0.9542,0.9454,0.0,0.0,0.0,0.0,0.0,0.0,0.0,0.0,0.0,0.0,0.0,0.0,0.0,0.0,0.0,0.0,0.0,0.0,0.0,0.0,0.0,0.0,0.0,0.0,0.0,0.0,0.0,0.0,0.0,0.0,0.0,0.0,2.3003,2.2821,0.0,0.0,0.0,0.0,0.0,0.0,0.0,0.0,0.0,0.0,0.0,0.0,0.0,1.9936,2.0625,2.0431,2.0778,2.1674,2.166,2.1857,2.2255,2.2234,2.1455,2.0139,2.0139,0.0,1.7517,1.7615,0.0,0.0,0.0,0.0,0.0,0.0,0.0,0.0,0.0,0.0,0.0,0.0,0.0,0.0,0.0,0.0,0.0,0.0,0.0,0.0,0.0,0.0,1.8144,1.8238,1.8372,1.8114,1.6943,1.6087,1.5345,1.4616,1.3684,1.305,0.0,0.0,0.0,0.0,0.0,0.0,1.0291,0.971,0.9316,0.9316,0.9659,0.9868,0.9805,0.9855,0.9667,0.9138,0.934,0.9062,0.8149,0.8334,0.0,0.0,0.0,0.0,0.0,0.0,0.0,0.0,0.0,0.0,0.0,0.0,0.0,0.0,0.0,0.0,0.0,0.0,0.0,0.0,0.0,0.0,0.0,0.0,0.0,0.0,0.0,0.0,0.0,2.3592,2.3268,2.2205,2.1735,2.1504,0.0,0.0,0.0,0.0,0.0,0.0,0.0,0.0,0.0,2.1104,2.0945,2.0997,2.1348,2.1267,2.1498,2.2002,2.201,2.219,2.2558,2.2569,2.2259,2.1677,2.1188,2.0195,1.886,1.8423,1.831,1.8448,0.0,0.0,0.0,0.0,1.9305,1.9305,1.9305,1.9305,1.936,1.9718,0.0,0.0,0.0,0.0,0.0,0.0,0.0,1.8767,1.9492,1.9314,1.8884,1.872,1.8566,1.8242,1.7423,1.6651,1.5861,1.5124,1.4106,1.34,1.3483,1.2884,0.0,0.0,0.0,1.0475,1.0247,0.973,0.9408,0.9408,0.9686,0.978,0.9466,0.9717,0.9579,0.8803,0.9149,0.9035,0.8193,0.8259,0.7927,0.0,0.0,0.0,0.0,0.0,0.0,0.0,0.0,0.0,0.0,0.0,0.0,0.0,0.0,0.0,0.0,0.0,0.0,0.0,0.0,0.0,0.0,0.0,0.0,0.0,0.0,0.0,0.0,2.3533,2.3353,2.1716,2.1504,2.1504,0.0,0.0,0.0,0.0,0.0,0.0,2.143,2.1226,2.1373,2.199,2.1869,2.1913,2.2097,2.2097,2.2293,2.2638,2.2648,2.2816,2.3138,2.3198,2.3188,2.3101,2.2457,2.1573,2.055,1.9304,1.8777,1.8812,1.9354,1.9669,1.9803,1.9651,1.9559,1.9504,1.9592,1.9611,1.9656,2.0011,2.0011,1.9777,1.9217,0.0,0.0,0.0,0.0,1.9321,1.9966,1.9839,1.945,1.9096,1.8806,1.847,1.806,1.7466,1.6785,1.5889,1.4696,1.3878,1.3907,1.3084,0.0,1.2416,1.1363,1.0483,1.035,0.9867,0.954,0.954,0.9738,0.973,0.9352,0.9667,0.9565,0.8773,0.9039,0.8965,0.8319,0.8205,0.7811,0.7109,0.0,0.0,0.0,0.0,0.0,0.0,0.0,0.0,0.0,0.0,0.0,0.0,0.0,0.0,0.0,0.0,0.0,0.0,0.0,0.0,0.0,0.0,0.0,0.0,0.0,0.0,0.0,0.0,0.0,2.1699,2.1534,0.0,0.0,0.0,0.0,2.1164,2.1907,2.2315,2.2166,2.2021,2.1953,2.2009,2.1869,2.2171,2.2942,2.2942,2.3417,2.4364,2.4364,2.4565,2.4877,2.4877,2.4575,2.4033,2.3995,2.3358,2.2188,1.9796,1.9059,1.9457,1.9499,2.0202,2.1128,2.0633,2.0277,2.0099,2.0351,2.044,2.0651,2.194,2.1941,2.1353,2.0537,2.011,0.0,0.0,1.9984,2.003,2.0362,2.0162,1.978,1.9431,1.9489,1.9465,1.8802,1.8316,1.7664,1.6498,1.4866,1.3764,1.3958,0.0,1.2416,1.2416,1.1914,1.132,1.0741,1.0218,0.988,0.988,0.9905,0.9893,0.9855,0.988,0.9725,0.9387,0.9023,0.8662,0.8319,0.7918,0.753,0.7118,0.7109,0.0,0.0,0.0,0.0,0.0,0.0,0.0,0.0,0.0,0.0,0.0,0.0,0.0,0.0,0.0,0.0,0.0,0.0,0.0,0.0,0.0,0.0,0.0,0.0,0.0,0.0,0.0,0.0,2.3253,2.2716,0.0,2.3129,2.2658,2.2314,2.224,2.2439,2.2764,2.3208,2.2984,2.3063,2.3584,2.3436,2.3474,2.3768,2.3768,2.3934,2.4303,2.4445,2.4572,2.4666,2.4815,2.474,2.4514,2.3957,2.3458,2.2892,2.1446,2.0968,2.1105,2.0999,2.1225,2.1569,2.1163,2.1087,2.1176,2.1066,2.1007,2.1065,2.1324,2.113,2.0869,2.1054,2.0582,2.0218,2.1187,2.0914,2.0449,2.105,2.0695,2.0128,2.0015,1.9837,1.9645,1.9403,1.9248,1.8882,1.8129,1.6383,1.4883,1.4586,1.3625,1.2785,1.2467,1.1939,1.1374,1.0769,1.0518,1.0268,0.9943,0.9905,0.9905,0.9905,0.9905,0.9659,0.9035,0.8871,0.8551,0.7947,0.7783,0.75,0.7118,0.6944,0.6293,0.0,0.0,0.0,0.0,0.0,0.0,0.0,0.0,0.0,0.0,0.0,0.0,0.0,0.0,0.0,0.0,0.0,0.0,0.0,0.0,0.0,0.0,0.0,0.0,0.0,2.4471,2.4516,2.5041,2.4514,2.4351,2.4928,2.4428,2.4044,2.3995,2.417,2.4448,2.4836,2.4376,2.4459,2.519,2.4561,2.4318,2.4593,2.4337,2.419,2.419,2.4339,2.4442,2.45,2.4647,2.4746,2.4771,2.4196,2.3861,2.3658,2.3075,2.2795,2.2711,2.2356,2.2297,2.2363,2.1888,2.177,2.1852,2.1596,2.1635,2.173,2.1501,2.1256,2.1144,2.1608,2.1289,2.0971,2.2006,2.1703,2.1159,2.133,2.0966,2.0466,2.0177,1.9903,1.969,1.969,1.969,1.9603,1.9244,1.759,1.6053,1.5482,1.4333,1.3383,1.3019,1.2341,1.1726,1.1307,1.1136,1.0797,1.0244,1.0182,1.0106,0.9918,1.0069,0.9763,0.8855,0.8973,0.8588,0.753,0.75,0.7255,0.67,0.5598,0.4669,0.3861,0.0,0.0,0.0,0.0,0.0,0.0,0.0,0.0,0.0,0.0,0.0,0.0,0.0,0.0,0.0,0.0,0.0,0.0,0.0,0.0,0.0,0.0,0.0,2.564,2.6377,2.6913,2.6947,2.6833,2.6783,2.6773,2.6726,2.6606,2.6397,2.7141,2.7409,2.6952,2.6169,2.6024,2.6597,2.5109,2.465,2.5384,2.4631,2.4208,2.419,2.419,2.4302,2.4503,2.4503,2.4601,2.4785,2.479,2.4667,2.4481,2.4493,2.4374,2.4135,2.3343,2.3305,2.3614,2.2807,2.2323,2.2033,2.2024,2.234,2.2711,2.2683,2.2491,2.231,2.231,2.231,2.231,2.2327,2.231,2.2078,2.1252,2.1019,2.0757,1.9918,1.969,1.969,1.969,1.969,1.969,1.9639,1.8389,1.7147,1.6597,1.5208,1.4123,1.4097,1.3144,0.0,1.2416,1.1939,1.1387,1.0781,1.0719,1.0506,0.9968,1.0393,1.0168,0.8878,0.9265,0.8818,0.7157,0.7089,0.67,0.5859,0.3165,0.1617,0.127,0.0,0.0,0.0,0.0,0.0,0.0,0.0,0.0,0.0,0.0,0.0,0.0,0.0,0.0,0.0,0.0,0.0,0.0,0.0,0.0,0.0,2.7006,2.7245,2.6622,2.6747,2.7127,2.7769,2.8236,2.8511,2.8503,2.8456,2.8398,2.8326,2.8007,2.7682,2.7342,2.6997,2.6846,2.704,2.632,2.5835,2.5613,2.5245,2.4781,2.419,2.419,2.4247,2.4284,2.4284,2.4321,2.4375,2.4349,2.4325,2.429,2.4284,2.4245,2.4171,2.3969,2.3806,2.3638,2.3182,2.2815,2.2513,2.2519,2.2581,2.2669,2.2483,2.2361,2.231,2.231,2.231,2.2423,2.2943,2.2474,2.1774,2.1821,2.1132,2.037,1.9837,1.969,1.969,1.969,1.969,1.9479,1.8688,1.8163,1.7719,1.7164,1.6074,1.5016,1.4211,1.3821,1.3342,1.2517,1.2278,1.1977,1.1412,1.1349,1.1123,1.0518,1.0606,1.0168,0.8878,0.8666,0.8123,0.7148,0.6811,0.6012,0.4638,0.2415,0.0977,0.0,0.0,0.0,0.0,0.0,0.0,0.0,0.0,0.0,0.0,0.0,0.0,0.0,0.0,0.0,0.0,0.0,0.0,0.0,0.0,0.0,0.0,2.8695,2.9253,2.9142,2.9121,2.9434,3.0273,3.0699,3.0905,3.0879,3.0828,3.0756,3.0698,3.0256,2.9723,2.9117,2.8578,2.8277,2.8261,2.7194,2.6631,2.6709,2.6171,2.5499,2.4685,2.4701,2.4536,2.419,2.419,2.419,2.419,2.419,2.419,2.419,2.419,2.419,2.419,0.0,0.0,0.0,0.0,2.2789,2.2537,2.2538,2.2521,2.2512,2.236,2.231,2.231,2.231,2.2524,2.2782,2.2915,2.2517,2.2001,2.1704,2.098,2.0192,1.9822,1.969,1.969,1.969,1.969,1.9442,1.8612,1.8263,0.0,1.7404,1.6414,1.5392,1.4563,1.4236,1.377,1.2835,1.2722,1.2542,1.1989,1.1939,1.1701,1.1136,1.0928,0.0,0.0,0.0,0.7724,0.635,0.5987,0.0,0.0,0.0,0.0429,-0.037,-0.2667,0.0,0.0,-0.4522,-0.4841,0.0,0.0,0.0,0.0,0.0,0.0,0.0,0.0,0.0,0.0,0.0,0.0,0.0,0.0,0.0,0.0,3.0511,3.1433,3.2478,3.2715,3.2969,3.3496,3.3496,3.3461,3.3492,3.3327,3.3211,3.3199,3.3006,3.2519,3.163,3.062,0.0,0.0,0.0,2.7352,2.809,2.7187,2.6326,2.555,2.5541,2.5102,2.4337,2.4337,2.4301,2.419,2.419,2.419,2.419,2.419,2.419,2.419,2.4135,2.3912,2.3573,2.2899,2.2505,2.231,2.231,0.0,0.0,2.231,2.231,2.231,2.231,2.2752,2.315,2.2574,2.2533,2.2437,2.1456,2.0834,2.034,1.9935,1.9818,1.9782,1.9782,1.9711,1.953,1.9006,1.8458,1.7947,1.7394,1.6455,1.558,1.5004,1.4488,1.3959,1.3286,1.3198,1.301,1.2522,1.2504,0.0,1.1726,1.1345,1.0734,0.9758,0.886,0.7476,0.5415,0.5024,0.4238,0.294,0.1206,-0.0126,-0.1012,-0.3309,-0.4696,-0.5206,-0.546,-0.5692,0.0,0.0,0.0,0.0,0.0,0.0,0.0,0.0,0.0,0.0,0.0,0.0,0.0,0.0,0.0,3.1144,3.2213,3.3398,3.5036,3.5879,3.5859,3.4609,3.4394,3.4576,3.5162,3.4527,3.4326,3.4936,3.3699,3.3018,3.3303,3.231,3.143,3.0769,2.9945,2.9043,2.8109,2.7758,2.7148,2.6374,2.6388,0.0,2.517,2.517,2.4818,2.419,2.419,2.419,2.419,2.419,2.419,2.4153,2.36,2.3361,2.3211,2.2617,2.2354,2.231,2.231,2.231,2.231,2.231,2.231,2.231,2.231,2.24,0.0,2.3064,2.2807,2.2391,2.2365,2.1856,2.1247,2.0828,2.0465,2.0177,2.0177,1.9945,1.953,1.9006,1.8458,1.7947,1.7394,1.6789,1.6019,1.5067,1.4815,1.435,1.3323,1.3198,1.316,1.3048,1.3048,1.2822,1.2291,1.2177,1.1579,1.0247,0.8651,0.7236,0.605,0.5139,0.4164,0.3086,0.1008,-0.0583,-0.1648,-0.3487,-0.4478,-0.4604,-0.5603,-0.6306,0.0,0.0,0.0,0.0,0.0,0.0,0.0,0.0,0.0,0.0,0.0,2.826,3.0121,0.0,3.1834,3.4081,3.4873,3.5662,3.7011,3.7637,3.7637,3.6758,3.6621,3.6716,3.7022,3.659,3.6454,3.6815,3.5584,3.4754,3.4664,3.3601,3.261,3.1777,3.1261,3.0669,2.9953,2.9322,2.8594,2.7805,2.739,2.6829,2.6152,2.6152,2.5985,2.5725,2.5299,2.504,2.491,2.4411,2.419,2.419,2.4079,2.3812,2.3365,2.2737,2.2491,2.2474,2.2344,2.231,2.231,2.231,2.231,2.2378,2.275,2.2852,2.3004,2.3735,2.3261,2.2528,2.2659,2.2015,2.1246,2.1039,2.0649,2.0314,2.0314,2.0,1.953,1.9006,1.8458,1.7947,1.7394,1.6879,1.6145,1.5079,1.4916,1.4475,1.3336,1.3198,1.3198,1.3198,1.3425,1.3432,1.3181,1.2724,1.1568,0.9437,0.844,0.7182,0.5466,0.4698,0.3558,0.1923,0.0293,-0.1117,-0.2244,-0.3506,-0.4262,-0.4578,-0.5636,-0.6169,0.0,0.0,0.0,0.0,0.0,0.0,0.0,2.6135,2.6801,2.8202,2.9032,3.0319,3.2994,3.3609,3.4499,3.6825,3.7261,3.7604,3.8515,3.875,3.8887,3.9082,3.8809,3.8613,3.8652,3.8435,3.8342,3.844,3.7507,3.6738,3.6257,3.5002,3.3881,3.3045,3.2371,3.1968,3.1815,3.0891,3.0105,2.9467,2.8659,2.7956,2.7395,2.7214,2.7193,2.7267,2.6503,2.6079,2.5874,2.5021,2.467,2.4707,2.5077,2.4834,2.4174,2.352,2.3237,2.3136,2.2926,2.27,2.2525,2.2665,2.2547,2.2462,2.3342,2.3511,2.3511,2.4133,2.3586,2.2822,2.2642,2.1933,2.1229,2.1134,2.0748,2.0416,2.0314,2.0,1.953,1.9006,1.8458,1.7947,1.7544,1.6909,1.6145,1.5079,1.4916,1.4475,1.3336,1.3301,1.3323,1.3323,1.3735,1.4019,1.4019,1.3168,1.1512,0.8939,0.8511,0.7251,0.4824,0.4194,0.2894,0.08,-0.0435,-0.1684,-0.2849,-0.3756,-0.4439,-0.4908,-0.6,-0.6293,2.8953,2.7727,2.6838,2.8338,2.7677,2.731,0.0,2.9717,2.9434,3.1299,3.1889,3.273,3.4831,3.5815,3.6647,3.7781,3.7987,3.8355,3.9409,3.957,3.9902,4.0801,3.9531,3.8848,3.9492,3.8795,3.8577,3.9225,3.8387,3.8142,3.8834,3.7053,3.5656,3.4833,3.3556,3.2527,3.18,3.1441,3.1218,3.1127,3.0332,2.966,2.9089,2.832,2.7727,2.7275,2.6937,2.6797,2.6729,2.645,2.632,2.6338,2.6375,2.6342,2.6186,2.5521,2.5105,2.4826,2.4791,2.4115,2.3374,2.4028,2.3359,2.2564,2.3934,2.39,2.341,2.3494,2.3431,2.3165,2.2524,2.2231,2.2049,2.1628,2.1213,2.0797,2.0382,2.0,1.953,1.9006,1.8458,1.8066,1.8027,1.7146,1.6145,1.5079,1.4916,1.4475,1.3336,1.3547,1.3835,1.3835,1.4181,1.4438,1.4438,1.3572,1.2327,1.0641,0.923,0.7488,0.5308,0.4148,0.2721,0.092,-0.0834,-0.2249,-0.3413,-0.4793,-0.554,-0.5641,-0.7412,-0.7652,2.9244,2.9125,2.8985,2.9545,2.9916,3.0448,3.1788,3.1642,3.1755,3.3717,3.4315,3.5077,3.7061,3.784,3.8661,4.0031,4.0335,4.0549,4.1034,4.1156,4.1016,4.0508,4.0254,4.0234,4.0547,4.0147,3.9961,4.0203,3.9354,3.8954,3.9277,3.7548,3.6323,3.5808,3.4775,3.3989,3.3474,3.2878,3.2573,3.2544,3.1745,3.1312,3.1246,3.0354,2.9375,2.8322,2.8107,2.774,2.7276,2.6921,2.6866,2.7034,2.7221,2.7372,2.7328,2.6279,2.5814,2.5643,2.5476,2.508,2.4698,2.4804,2.4408,2.4087,2.4876,2.4323,2.3579,2.4441,2.3748,2.2801,2.2919,2.2632,2.2237,2.2032,2.1477,2.0959,2.0764,2.0174,1.9639,1.9406,1.8688,1.8106,1.8106,1.7188,1.6258,1.5467,1.5354,1.5056,1.4178,1.459,1.5017,1.5152,1.4963,1.4752,1.4533,1.3887,1.2468,1.0057,0.8689,0.6704,0.3893,0.2639,0.1146,-0.0619,-0.2642,-0.4081,-0.4879,-0.6503,-0.7265,-0.7319,-0.8622,-0.9155,2.9512,3.0258,3.0856,3.1393,3.2596,3.3678,3.3899,3.4119,3.4778,3.647,3.7057,3.7802,3.9508,4.0111,4.0739,4.197,4.2047,4.1986,4.2059,4.196,4.1426,4.0279,4.0525,4.0879,4.1113,4.1055,4.0941,4.0817,4.0145,3.9723,3.9642,3.8219,3.7218,3.6771,3.6146,3.5473,3.4829,3.434,3.3981,3.3752,3.2937,3.2666,3.2895,3.1876,3.096,3.0129,2.9694,2.9144,2.859,2.8197,2.8012,2.7967,2.8167,2.8329,2.8338,2.7287,2.684,2.6708,2.6444,2.6175,2.5925,2.5896,2.5572,2.5366,2.6031,2.5167,2.419,2.5287,2.4206,2.2807,2.3113,2.2768,2.2282,2.2135,2.1554,2.0959,2.0829,2.0208,1.9639,1.953,1.8727,1.8106,1.8106,1.7188,1.6413,1.6176,1.6043,1.5615,1.4791,1.5367,1.5917,1.6224,1.5823,1.5291,1.4704,1.399,1.2315,0.9411,0.777,0.549,0.2323,0.0744,-0.0881,-0.2645,-0.4647,-0.6073,-0.6778,-0.8235,-0.9014,-0.9201,-1.0277,-1.112,2.9845,3.029,3.1053,3.4099,3.5532,3.6376,3.7165,3.7955,3.8847,3.9918,4.0471,4.1075,4.2193,4.2717,4.3008,4.3047,4.2354,4.1854,4.197,4.1274,4.0743,4.0762,4.0151,4.0078,4.0918,4.0996,4.0943,4.0809,4.072,4.06,4.0469,3.9677,3.883,3.7973,3.767,3.6733,3.51,3.5571,3.543,3.4649,3.377,3.3508,3.3714,3.2314,3.2093,3.2721,3.1677,3.121,3.1167,3.0956,3.0379,2.9599,2.9425,2.9366,2.9315,2.9012,2.8677,2.8338,2.832,2.764,2.6878,2.7601,2.6791,2.5861,2.7384,2.6719,2.5464,2.5499,2.4707,2.369,2.2911,2.2517,2.218,2.1718,2.1306,2.0862,2.0416,2.0,1.9566,1.9043,1.8496,1.8106,1.8106,1.7188,1.6667,1.7175,1.6811,1.6059,1.4843,1.5513,1.6227,1.665,1.6651,1.623,1.5178,1.3754,1.1815,0.9161,0.6607,0.3921,0.1057,-0.126,-0.3265,-0.4888,-0.654,-0.7959,-0.902,-0.9881,-1.0634,-1.1267,-1.2779,-1.38,3.0857,3.2854,3.511,3.6991,3.8083,3.9038,4.0377,4.0487,4.0556,4.1438,4.017,3.9015,3.94,3.9448,3.9634,4.0208,4.1635,4.2508,4.2066,4.2703,4.2218,3.9528,4.0521,4.0887,3.9549,3.9922,4.0448,4.0901,4.0906,4.0812,4.0639,3.9835,3.9204,3.8877,3.8209,3.7583,3.703,3.6638,3.6594,3.688,3.6021,3.5037,3.4049,3.3576,3.2891,3.21,3.2289,3.1718,3.0733,3.1071,3.0784,3.0129,2.9743,2.9607,2.9559,2.9352,2.9072,2.8787,2.8787,2.8576,2.8251,2.824,2.7885,2.752,2.7804,2.6782,2.5614,2.6207,2.5349,2.4137,2.3685,2.3517,2.3206,2.2293,2.1735,2.1275,2.0862,2.0431,1.9949,1.9515,1.8688,1.8224,1.8574,1.7463,1.6795,1.7706,1.7289,1.6889,1.6957,1.735,1.7852,1.8436,1.7471,1.6365,1.5375,1.2942,1.0317,0.7709,0.4946,0.2152,-0.079,-0.3331,-0.5502,-0.7303,-0.9119,-1.0433,-1.1219,-1.2549,-1.3273,-1.3503,-1.4786,-1.5868,3.2816,3.5403,3.8111,3.9603,4.0598,4.146,4.2488,4.2323,4.2029,4.2249,4.0441,3.8715,3.8417,3.7969,3.7712,3.796,3.9339,4.0546,4.0969,4.1697,4.1662,4.0246,4.1354,4.1713,4.0437,4.0602,4.0859,4.0996,4.1584,4.1579,4.0789,4.0489,4.0065,3.9362,3.908,3.8498,3.7526,3.7296,3.7161,3.7089,3.654,3.5718,3.4653,3.4351,3.3769,3.3038,3.2955,3.2275,3.1301,3.1385,3.1037,3.0359,2.9963,2.9813,2.9776,2.9583,2.9411,2.9219,2.9071,2.8994,2.897,2.8682,2.8615,2.8565,2.836,2.7366,2.644,2.6997,2.5918,2.4539,2.436,2.392,2.3344,2.261,2.201,2.1491,2.1086,2.0616,2.0193,1.9782,1.9006,1.8496,1.8855,1.7867,1.7312,1.7987,1.789,1.7894,1.8324,1.848,1.8602,1.8849,1.7847,1.6615,1.5182,1.2361,0.9472,0.654,0.34,0.0216,-0.3104,-0.5985,-0.8528,-1.0639,-1.2283,-1.3395,-1.3953,-1.4963,-1.5536,-1.5752,-1.6846,-1.7841,3.5509,3.7846,3.9997,4.1907,4.2928,4.3497,4.3497,4.3461,4.3204,4.2396,4.1163,3.9946,3.9096,3.8175,3.7314,3.6512,3.6086,3.6704,3.9142,3.8854,3.9546,4.2681,4.2548,4.2533,4.3269,4.2848,4.2148,4.1211,4.2676,4.2807,4.0974,4.1673,4.1296,3.9531,4.0277,3.9477,3.6922,3.7682,3.7226,3.5515,3.5561,3.5565,3.5474,3.4653,3.471,3.5372,3.3737,3.2981,3.2793,3.2064,3.1241,3.0359,3.0129,3.0021,2.9985,2.9789,2.9703,2.9642,2.9193,2.904,2.904,2.904,2.904,2.904,2.904,2.8474,2.7831,2.7831,2.6483,2.5005,2.4946,2.388,2.2807,2.2746,2.2186,2.1552,2.115,2.0682,2.0261,1.9839,1.9376,1.9029,1.8954,1.8559,1.8235,1.8171,1.8636,1.8991,1.8893,1.8859,1.8594,1.8072,1.7957,1.6945,1.4588,1.2058,0.9079,0.5632,0.1932,-0.1859,-0.5732,-0.9138,-1.219,-1.4776,-1.59,-1.6644,-1.7063,-1.705,-1.7328,-1.7904,-1.892,-1.973,3.7739,4.0211,4.2755,4.31,4.3332,4.3497,4.3497,4.3039,4.2378,4.1589,3.924,3.6897,3.544,3.5658,3.6064,3.6102,3.8728,4.111,4.2011,4.3008,4.3297,4.2321,4.3188,4.3531,4.2661,4.3551,4.3867,4.3066,4.3418,4.316,4.1976,4.2128,4.1692,4.0481,4.0658,4.045,3.9762,3.9379,3.7998,3.5657,3.6295,3.6271,3.5641,3.5416,3.5109,3.4768,3.4911,3.3885,3.2115,3.2555,3.1811,3.0379,3.0321,3.0184,2.9994,2.9946,2.982,2.9674,2.9551,2.9514,2.9514,2.9514,2.9514,2.9514,2.9514,2.8951,2.8313,2.8258,2.7455,2.6394,2.5383,2.4847,2.4306,2.3313,2.2729,2.2307,2.1898,2.1532,2.1134,2.0764,2.075,2.0492,1.945,2.0042,2.0293,1.9375,1.9924,2.0093,1.9029,1.9782,2.0233,1.9745,1.8525,1.6792,1.4442,1.0972,0.7563,0.4376,0.0459,-0.3296,-0.6796,-1.0992,-1.462,-1.7592,-1.8177,-1.8718,-1.928,-1.9128,-1.9001,-1.8956,-2.03,-2.1173,4.04,4.2583,4.4664,4.4144,4.403,4.3663,4.2231,4.1846,4.1148,3.8909,3.6725,3.4688,3.3054,3.3157,3.359,3.379,3.6689,3.9514,4.1184,4.2547,4.3393,4.3511,4.4434,4.4746,4.3969,4.4733,4.5156,4.4863,4.4844,4.4277,4.2988,4.3281,4.2854,4.1496,4.1468,4.1079,4.0274,3.9066,3.7724,3.627,3.6375,3.6173,3.5706,3.5706,3.5446,3.5018,3.4727,3.3762,3.2389,3.2115,3.1395,3.0487,3.0467,3.0356,3.0218,3.0188,3.0095,2.995,2.9569,2.9684,2.9977,2.9765,2.9432,2.913,2.913,2.8808,2.8374,2.7983,2.7285,2.65,2.5743,2.519,2.4616,2.3846,2.3426,2.3053,2.2547,2.2304,2.2044,2.1599,2.168,2.1597,2.0888,2.1418,2.1658,2.0872,2.118,2.1256,2.0464,2.0735,2.0813,2.0302,1.8771,1.6883,1.4696,1.0687,0.7034,0.4186,-0.0478,-0.4776,-0.8561,-1.2869,-1.6821,-2.0306,-2.0705,-2.1108,-2.1545,-2.1404,-2.1242,-2.1083,-2.1968,-2.2496,4.2906,4.4563,4.5876,4.4838,4.4619,4.3864,4.0634,4.0327,3.958,3.5575,3.4138,3.3093,3.1462,3.1083,3.1186,3.1563,3.3261,3.5806,3.9404,4.0515,4.2126,4.522,4.5699,4.5796,4.5873,4.5881,4.5991,4.6258,4.6268,4.5566,4.3965,4.459,4.418,4.2363,4.2305,4.1406,3.9492,3.7969,3.7109,3.6855,3.6094,3.5742,3.5742,3.5742,3.5742,3.5644,3.4082,3.332,3.3085,3.146,3.0723,3.0597,3.0535,3.0502,3.0487,3.0302,3.0244,3.0121,2.9256,2.9371,2.987,2.9684,2.9193,2.8647,2.8553,2.8515,2.8326,2.7406,2.6631,2.6061,2.5929,2.5163,2.442,2.4391,2.4132,2.3748,2.3225,2.3074,2.2917,2.2506,2.2459,2.2521,2.2643,2.271,2.2654,2.2393,2.2404,2.2398,2.2352,2.1725,2.1069,2.0588,1.9022,1.7193,1.5175,1.0839,0.6985,0.4117,-0.1377,-0.6493,-1.0816,-1.4961,-1.891,-2.262,-2.3059,-2.3361,-2.36,-2.3496,-2.3435,-2.3382,-2.3541,-2.3624,4.3331,4.4711,4.5942,4.4385,4.4326,4.3864,4.0634,3.925,3.7638,3.4268,3.2962,3.1882,3.0232,3.0686,3.2098,3.4431,3.5668,3.7945,4.2487,4.3215,4.3886,4.5414,4.5605,4.568,4.5815,4.5828,4.592,4.6109,4.6123,4.5742,4.4824,4.4922,4.4199,4.2441,4.2383,4.1211,3.8809,3.8476,3.7598,3.6172,3.6016,3.5957,3.5957,3.5957,3.5957,3.5898,3.4883,3.4004,3.3203,3.218,3.1294,3.0587,3.0534,3.0509,3.0398,2.9694,2.9367,2.9217,2.8456,2.7811,2.7542,2.8802,2.9634,2.9986,2.927,2.9097,2.8833,2.729,2.6761,2.6466,2.5565,2.519,2.5008,2.4851,2.4584,2.4354,2.4254,2.3998,2.3775,2.3646,2.382,2.3921,2.3622,2.379,2.3788,2.3199,2.34,2.3493,2.3145,2.2794,2.247,2.2215,2.0257,1.8028,1.5731,1.1037,0.6351,0.1924,-0.3574,-0.8797,-1.3541,-1.7706,-2.1114,-2.3699,-2.4228,-2.4543,-2.4634,-2.434,-2.4062,-2.3793,-2.4108,-2.4206,4.4544,4.5438,4.6165,4.4791,4.4331,4.3196,3.9192,3.7544,3.5738,3.1841,3.0934,3.0414,2.9196,3.0088,3.1574,3.3374,3.4486,3.6682,4.1092,4.1877,4.2756,4.4822,4.5399,4.5566,4.5528,4.5626,4.5771,4.5986,4.5956,4.5879,4.5683,4.4824,4.3945,4.3105,4.2226,4.1191,3.9961,3.9492,3.8867,3.8027,3.7109,3.668,3.666,3.6211,3.5996,3.5957,3.5078,3.4199,3.3281,3.2441,3.1562,3.0742,3.065,3.0601,3.0487,2.9586,2.9224,2.9029,2.7806,2.7388,2.7488,2.7802,2.8212,2.8486,2.8077,2.7976,2.7741,2.6482,2.6115,2.5998,2.5483,2.5323,2.5284,2.5176,2.4958,2.4756,2.4756,2.4492,2.4282,2.4348,2.4404,2.4417,2.4337,2.4446,2.443,2.3999,2.4176,2.4304,2.411,2.4026,2.3824,2.3313,2.1587,1.8957,1.5235,1.1255,0.6142,-0.0459,-0.514,-1.0101,-1.5478,-1.884,-2.1752,-2.4215,-2.4741,-2.5021,-2.5058,-2.4963,-2.4861,-2.4741,-2.4752,-2.4741,4.5591,4.6429,4.7,4.5632,4.47,4.2856,3.8108,3.6074,3.4028,2.9942,2.9112,2.8963,2.8506,2.9156,3.0206,3.1481,3.2281,3.4298,3.8707,3.9699,4.1053,4.3986,4.4937,4.5342,4.526,4.5393,4.5586,4.5853,4.5832,4.5941,4.6191,4.4746,4.3828,4.3633,4.2207,4.1269,4.0879,4.0234,3.9805,3.9609,3.8036,3.7279,3.7243,3.6357,3.5932,3.5893,3.5038,3.418,3.332,3.2539,3.1699,3.0898,3.0742,3.0693,3.0588,2.9682,2.9226,2.8825,2.7342,2.7142,2.745,2.6766,2.6787,2.7082,2.6881,2.6831,2.666,2.5796,2.5534,2.5535,2.5535,2.5488,2.5427,2.5375,2.5195,2.5033,2.4994,2.4779,2.4616,2.4709,2.4598,2.4497,2.4575,2.4579,2.4532,2.4387,2.4559,2.4697,2.4622,2.4776,2.4644,2.3978,2.2533,2.0003,1.5979,1.2681,0.6899,-0.2435,-0.5777,-1.0556,-1.7613,-2.0147,-2.2367,-2.4466,-2.4993,-2.524,-2.5193,-2.5318,-2.5425,-2.5468,-2.5288,-2.5162,4.5659,4.7571,4.9074,4.6808,4.5648,4.3803,3.9009,3.558,3.265,2.9988,2.8424,2.7705,2.8285,2.7672,2.7915,3.0559,3.0404,3.188,3.7376,3.8813,4.0328,4.3081,4.417,4.4786,4.509,4.5143,4.5336,4.5776,4.5863,4.5906,4.5936,4.5098,4.4258,4.3457,4.2637,4.1445,3.9844,3.9883,3.9492,3.8711,3.7692,3.7218,3.7192,3.6176,3.5729,3.5696,3.4931,3.4101,3.3242,3.2519,3.1699,3.0898,3.0742,3.0702,3.0593,2.9785,2.8946,2.8076,2.721,2.6427,2.5823,2.5746,2.6783,2.7919,2.7121,2.6941,2.6796,2.5936,2.5679,2.5663,2.5605,2.5588,2.5524,2.5291,2.5209,2.5133,2.4962,2.4873,2.478,2.4474,2.4426,2.4299,2.395,2.3895,2.3913,2.3949,2.422,2.4327,2.4021,2.431,2.4393,2.3952,2.2575,2.1304,2.0356,1.7001,0.9501,-0.3352,-0.48,-0.9985,-2.0705,-2.291,-2.4069,-2.4488,-2.5139,-2.5381,-2.5193,-2.533,-2.5396,-2.541,-2.5449,-2.5409,4.479,4.6797,4.8312,4.6769,4.4787,4.2356,3.91,3.526,3.1912,3.0204,2.8853,2.8051,2.8362,2.787,2.785,2.9179,2.9106,3.0414,3.4862,3.5955,3.7729,4.1511,4.2634,4.3539,4.4684,4.4985,4.5259,4.5643,4.5699,4.5731,4.5714,4.4568,4.3753,4.3403,4.2111,4.1071,4.0371,4.0429,4.0023,3.9194,3.8287,3.7594,3.7049,3.6122,3.5704,3.5657,3.4872,3.4335,3.3918,3.2613,3.1849,3.1468,3.0993,3.0762,3.0546,2.9253,2.8544,2.801,2.6659,2.594,2.5644,2.5604,2.6064,2.6581,2.6279,2.6205,2.6149,2.5805,2.5673,2.562,2.5601,2.5442,2.5239,2.5012,2.4825,2.4639,2.4548,2.4278,2.4026,2.3886,2.3574,2.3275,2.3104,2.2835,2.2764,2.3064,2.334,2.3535,2.3656,2.3707,2.3616,2.3345,2.2299,2.0503,1.7721,1.5292,0.8457,-0.4385,-0.8505,-1.3705,-2.1001,-2.2127,-2.3121,-2.4244,-2.4919,-2.5157,-2.495,-2.5216,-2.5372,-2.5396,-2.544,-2.5405,4.3555,4.5843,4.7507,4.6385,4.3902,4.1064,3.8832,3.4888,3.1465,3.059,2.9225,2.8303,2.8527,2.8011,2.7707,2.8183,2.8452,2.9753,3.2993,3.411,3.5951,3.9593,4.0656,4.177,4.3516,4.4535,4.524,4.5566,4.5586,4.5586,4.5586,4.4359,4.3682,4.3663,4.2017,4.1156,4.1154,4.0916,4.0534,3.9942,3.9041,3.8178,3.7324,3.6406,3.5872,3.5603,3.4783,3.4287,3.3949,3.2557,3.1787,3.1473,3.0997,3.0601,3.0188,2.9036,2.8293,2.7687,2.6457,2.5868,2.564,2.5585,2.5571,2.5571,2.5628,2.5644,2.564,2.564,2.5553,2.542,2.5284,2.5056,2.4771,2.4325,2.4062,2.3841,2.3633,2.3282,2.3,2.2929,2.2573,2.2126,2.1703,2.1491,2.1404,2.1379,2.1752,2.2143,2.2484,2.2478,2.237,2.2142,2.1119,1.8948,1.512,1.5026,0.8727,-0.6496,-0.9247,-1.3461,-2.0539,-2.139,-2.2305,-2.3619,-2.4607,-2.5004,-2.4804,-2.5138,-2.5312,-2.5368,-2.5391,-2.5407,4.2117,4.502,4.7453,4.5875,4.3287,4.0523,3.8216,3.4352,3.119,3.119,2.9381,2.8061,2.8859,2.7758,2.6954,2.7783,2.8576,2.9915,3.2298,3.398,3.5627,3.7328,3.824,3.9511,4.1444,4.3729,4.524,4.5566,4.5586,4.5586,4.5586,4.478,4.4295,4.4295,4.2799,4.1979,4.1994,4.1193,4.0793,4.0773,3.9846,3.8979,3.8152,3.7142,3.6257,3.5468,3.4641,3.3808,3.2954,3.2205,3.139,3.0607,3.0607,3.0122,2.9411,2.9392,2.8296,2.6807,2.6787,2.6218,2.5498,2.5489,2.5498,2.5505,2.5495,2.5495,2.5493,2.5508,2.5309,2.5002,2.4541,2.4356,2.4061,2.3133,2.2905,2.274,2.2068,2.1921,2.1844,2.1569,2.1526,2.1034,1.9585,1.9844,1.984,1.871,1.9336,2.0007,2.0208,2.0526,2.0607,2.0242,1.8804,1.6731,1.4029,1.7996,1.1497,-1.0005,-0.5057,-0.7014,-1.9682,-2.1422,-2.2264,-2.2614,-2.4257,-2.5004,-2.4804,-2.5138,-2.5303,-2.5293,-2.5371,-2.5434,3.8937,4.1229,4.2971,4.1933,4.0269,3.8388,3.6586,3.3991,3.1799,3.1292,2.982,2.8687,2.8941,2.7947,2.7376,2.8135,2.9407,3.0767,3.1998,3.4309,3.65,3.8125,4.0691,4.2569,4.3183,4.4364,4.5143,4.5259,4.547,4.5586,4.5586,4.5336,4.4913,4.4314,4.328,4.247,4.1863,4.1613,4.0904,3.9754,3.8869,3.831,3.8007,3.6546,3.6045,3.6238,3.4834,3.4077,3.3731,3.2384,3.1642,3.1244,3.0177,2.9573,2.9138,2.8034,2.7279,2.671,2.6114,2.5719,2.547,2.5284,2.5217,2.5201,2.5051,2.5151,2.5225,2.4842,2.4695,2.443,2.359,2.3354,2.3155,2.2418,2.1798,2.1338,2.1119,2.0623,2.0184,2.0097,1.9856,1.937,1.8435,1.8232,1.7977,1.7499,1.7639,1.7983,1.8372,1.86,1.8695,1.859,1.7544,1.6241,1.4806,1.2745,0.7541,-0.1839,-0.4152,-0.8435,-1.5742,-1.7452,-1.9154,-2.1078,-2.2374,-2.351,-2.446,-2.4561,-2.4782,-2.5099,-2.5255,-2.5348,3.6129,3.823,3.9704,3.8946,3.7646,3.6239,3.4973,3.3225,3.1732,3.1275,3.0243,2.9434,2.9401,2.8596,2.8135,2.8729,3.0101,3.1506,3.2733,3.4865,3.6906,3.8508,4.1197,4.2959,4.3075,4.4065,4.4805,4.507,4.5297,4.547,4.5586,4.5297,4.501,4.4799,4.3993,4.3145,4.2302,4.1963,4.1101,3.9754,3.92,3.8777,3.843,3.7065,3.6546,3.6622,3.493,3.4007,0.0,3.2288,3.1345,3.0621,2.9663,2.8854,2.8112,2.7083,2.6525,2.616,2.5601,2.5379,2.5278,2.5113,2.5025,2.4931,2.4601,2.4676,2.477,2.4358,2.4056,2.3638,2.2821,2.2341,2.1902,2.1212,2.0495,1.9931,1.9775,1.9277,1.8832,1.8616,1.8355,1.7862,1.6777,1.6578,1.6363,1.5825,1.5899,1.6267,1.674,1.6874,1.6926,1.6926,1.6405,1.5433,1.3956,1.0425,0.6355,0.1888,-0.3493,-0.836,-1.2464,-1.4905,-1.7212,-1.9395,-2.0813,-2.2347,-2.4008,-2.4204,-2.4546,-2.501,-2.5141,-2.5224,0.0,3.5808,3.7263,3.6552,3.5351,3.415,3.3406,3.2222,0.0,3.1207,3.0581,3.004,3.0082,2.9493,2.9093,2.9473,3.0672,3.2222,3.416,3.5762,3.7279,3.8769,4.0377,4.1426,4.1643,4.3078,4.43,4.4959,4.5071,4.524,4.5547,4.4818,4.4761,4.5566,4.4818,4.397,4.3108,4.231,4.1412,4.0489,4.0431,4.0046,3.9354,3.8354,3.7507,3.6699,3.5026,3.3757,3.2833,3.2083,3.0717,2.9083,2.9044,2.8025,2.6561,2.6514,2.5966,2.5264,2.5264,2.5141,2.4986,2.4943,2.4831,2.4632,2.41,2.4081,2.4186,2.3932,2.3354,2.266,2.2084,2.1294,2.0413,1.9667,1.9067,1.8527,1.8078,1.7933,1.7666,1.7137,1.7014,1.6473,1.4846,1.5004,1.5027,1.3899,1.419,1.4721,1.5194,1.5316,1.5372,1.5316,1.536,1.4381,1.1987,1.0664,0.7629,0.22,-0.2656,-0.6723,-0.9946,-1.3418,-1.602,-1.7661,-1.9578,-2.1504,-2.339,-2.3916,-2.4445,-2.4955,-2.4979,-2.5099,3.1833,0.0,3.273,3.2544,3.2662,3.2611,0.0,3.1884,3.1867,3.1309,3.015,2.9416,3.0022,2.9252,2.8849,2.9807,3.1542,3.325,3.4589,3.832,4.1046,4.1423,4.286,4.3406,4.226,4.3277,4.4066,4.4246,4.4782,4.5143,4.522,4.5278,4.5393,4.5586,4.5393,4.4603,4.3115,4.2906,4.2024,4.0489,3.9873,3.9796,4.0142,3.7988,3.7257,3.7603,3.593,3.4314,3.2891,3.2699,3.1237,2.9044,2.8409,2.7439,2.6281,2.5612,2.5177,2.4929,2.4929,2.4883,2.478,2.4362,2.4118,2.3885,2.3512,2.3455,2.3394,2.2723,2.2214,2.1562,2.049,2.0001,1.9617,1.8684,1.7679,1.6944,1.6844,1.6108,1.5463,1.5342,1.5297,1.5016,1.4157,1.4111,1.3946,1.3238,1.3248,1.316,1.2754,1.3575,1.4007,1.3507,1.3903,1.3773,1.2657,1.1312,0.9066,0.5618,0.1186,-0.3669,-0.891,-1.0888,-1.3057,-1.5703,-1.8717,-2.1015,-2.2435,-2.2926,-2.3584,-2.4467,-2.4828,-2.5099,3.119,3.1444,3.1613,3.1275,3.1732,3.2127,3.136,3.1495,3.1664,3.1275,3.0577,3.015,3.051,3.0078,3.0102,3.13,3.2867,3.4746,3.6906,3.9831,4.19,4.2268,4.3075,4.3391,4.2913,4.3406,4.3807,4.3989,4.4533,4.4947,4.5089,4.503,4.5201,4.5586,4.522,4.4393,4.3118,4.3102,4.2236,4.0489,4.0046,4.0065,4.0412,3.8147,3.7175,3.7194,3.5761,3.3955,3.2061,3.2428,3.0863,2.8172,2.7752,2.6765,2.5563,2.5088,2.4869,2.4804,2.4804,2.4746,2.4572,2.4043,2.3783,2.361,2.3117,2.274,2.2418,2.2167,2.139,2.0473,1.9768,1.9082,1.8416,1.7854,1.7079,1.6373,1.6089,1.5531,1.4971,1.4376,1.4283,1.4107,1.3515,1.3372,1.3286,1.2978,1.2881,1.2774,1.2344,1.2667,1.2735,1.2395,1.2385,1.2141,1.149,1.0386,0.9429,0.8555,0.3153,-0.2651,-0.8498,-1.0018,-1.2186,-1.5262,-1.8294,-2.0143,-2.0781,-2.1664,-2.2713,-2.3842,-2.4414,-2.4854,3.1326,3.1985,3.2391,3.1427,3.1664,3.1952,3.1326,3.119,3.119,3.119,3.1123,3.1123,3.1331,3.1297,3.163,3.2934,3.4428,3.6587,3.9799,4.1183,4.1953,4.2249,4.265,4.2987,4.3277,4.3424,4.3624,4.3915,4.4299,4.4651,4.5013,4.463,4.4784,4.5566,4.4876,4.4049,4.3118,4.3102,4.222,4.0489,4.0489,4.0431,4.0258,3.8431,3.7085,3.6131,3.5002,3.3185,3.1033,3.1751,3.011,2.7204,2.7204,2.6208,2.476,2.476,2.4731,2.4716,2.4716,2.4556,2.4284,2.378,2.3544,2.3328,2.2729,2.195,2.1393,2.172,2.0702,1.9477,1.939,1.8324,1.7271,1.7188,1.674,1.6194,1.5588,1.541,1.5005,1.3862,1.3637,1.3505,1.2968,1.2881,1.2881,1.2881,1.2881,1.2871,1.2774,1.2187,1.1765,1.1665,1.1166,1.0458,0.9703,0.9058,0.9102,1.0119,0.3752,-0.2698,-0.8771,-1.041,-1.2589,-1.5664,-1.7834,-1.9016,-1.9144,-2.04,-2.168,-2.3052,-2.3805,-2.4432,3.1952,3.3119,3.3677,3.1698,3.1275,3.1326,3.1224,3.119,3.119,3.119,3.0701,3.0667,3.1913,3.163,3.1664,3.3127,3.5948,3.888,4.1562,4.3806,4.4451,4.253,4.4099,4.4604,4.2677,4.3096,4.3516,4.3587,4.3915,4.4248,4.4669,4.4859,4.5184,4.5586,4.547,4.4662,4.3124,4.3104,4.222,4.0489,4.0489,4.0142,3.945,3.8165,3.6761,3.5253,3.4093,3.2619,3.0996,3.1128,2.9618,2.7204,2.7204,2.6094,2.4561,2.4561,2.4426,2.4284,2.4284,2.4096,2.3759,2.3392,2.2863,2.2272,2.1874,2.1164,2.0485,2.0552,1.9818,1.8916,1.8444,1.7814,1.7188,1.671,1.6182,1.5588,1.4971,1.4422,1.3873,1.3152,1.3065,1.3017,1.2929,1.2881,1.2881,1.2881,1.2881,1.2666,1.203,1.1864,1.1566,1.1015,1.0864,1.0297,0.8999,0.8783,0.8309,0.7302,0.2674,-0.3144,-1.0086,-1.2252,-1.4209,-1.625,-1.6744,-1.7599,-1.8846,-1.9316,-2.0337,-2.1884,-2.2968,-2.3878,3.2015,3.2504,3.2774,3.2944,3.3294,3.3271,3.2053,3.1776,3.1901,3.2293,3.1489,3.1365,3.3549,3.3131,3.3364,3.6276,3.8536,4.0464,4.2059,4.3273,4.352,4.2443,4.3663,4.4189,4.3059,4.3296,4.3497,4.3497,4.3789,4.4079,4.4251,4.4644,4.4675,4.4369,4.4535,4.3751,4.1931,4.2049,4.1511,4.0267,3.9825,3.9352,3.8766,3.7181,3.5564,3.3978,3.3272,3.1812,2.9913,2.9913,2.8722,2.6823,2.6395,2.5449,2.4321,2.4117,2.4019,2.3896,2.3714,2.3566,2.3346,2.2788,2.2398,2.2012,2.1428,2.0813,2.0314,2.0314,1.9636,1.8855,1.8612,1.7907,1.7229,1.6993,1.6484,1.582,1.488,1.4468,1.4014,1.3065,1.2881,1.2881,1.2881,1.2881,1.2881,1.2881,1.2881,1.2774,1.2452,1.203,1.1566,1.0864,1.0466,0.9688,0.8283,0.78,0.6245,0.3232,-0.321,-0.7991,-1.0573,-1.3293,-1.5106,-1.5959,-1.6324,-1.698,-1.7972,-1.8668,-1.9737,-2.1154,-2.2471,-2.3513,3.2444,3.2418,3.2352,3.3877,3.4525,3.4498,3.3328,3.2923,3.3022,3.3756,3.3019,3.2826,3.4809,3.4507,3.5194,3.9146,4.0466,4.1371,4.2441,4.275,4.2812,4.2607,4.3305,4.3716,4.3516,4.3497,4.3497,4.3497,4.3734,4.3915,4.4005,4.4119,4.3905,4.3322,4.3369,4.2595,4.0929,4.1095,4.0802,3.9963,3.9166,3.8553,3.8014,3.6087,3.4325,3.2776,3.2275,3.0839,2.8845,2.875,2.7899,2.654,2.5727,2.4867,2.4036,2.3714,2.3588,2.3544,2.33,2.3093,2.2838,2.2272,2.191,2.1589,2.0991,2.0516,2.0158,2.0158,1.9543,1.8855,1.8727,1.8027,1.7271,1.7146,1.6697,1.6008,1.4926,1.4606,1.4154,1.3113,1.2881,1.2881,1.2881,1.2881,1.2881,1.2881,1.2881,1.2881,1.2881,1.2236,1.1566,1.0864,1.0218,0.9183,0.7557,0.6185,0.3678,-0.0328,-0.8032,-1.1998,-1.1195,-1.4003,-1.5676,-1.582,-1.6238,-1.671,-1.7118,-1.8011,-1.909,-2.0283,-2.1703,-2.2864,3.3962,3.4312,3.4117,3.3601,3.2988,3.3014,3.4939,3.4814,3.4548,3.53,3.5362,3.5131,3.4631,3.5026,3.6514,3.9733,4.0524,4.1371,4.3151,4.4062,4.427,4.35,4.4126,4.4318,4.3587,4.3497,4.3497,4.3497,4.3516,4.3664,4.3967,4.3319,4.3025,4.3303,4.2591,4.1803,4.091,4.0934,4.0499,3.9645,3.8814,3.8002,3.7128,3.5225,3.3463,3.1837,3.0812,2.9637,2.8417,2.8041,2.7423,2.6597,2.5758,2.4709,2.3692,2.3369,2.3253,2.3236,2.3212,2.2762,2.2163,2.2124,2.1332,2.0434,2.0382,2.007,1.9747,1.9747,1.9317,1.8779,1.8302,1.7747,1.7146,1.668,1.6095,1.5499,1.4835,1.4283,1.3684,1.3017,1.2881,1.2881,1.2881,1.2881,1.2881,1.2881,1.2881,1.2881,1.2881,1.2236,1.1566,1.0864,1.0218,0.8967,0.6853,0.3701,0.0668,-0.2208,-0.8059,-1.1737,-1.2512,-1.4506,-1.5864,-1.6423,-1.6466,-1.6522,-1.6552,-1.7146,-1.7932,-1.8987,-2.0268,-2.1608,3.352,3.4192,3.4665,3.5348,3.4922,3.4461,3.4829,3.5061,3.5392,3.62,3.596,3.5751,3.6272,3.8383,4.0228,4.0876,4.1818,4.2713,4.3406,4.4207,4.4412,4.3615,4.4213,4.4373,4.3587,4.3497,4.3497,4.3497,4.3497,4.3548,4.366,4.3398,4.2815,4.195,4.1829,4.1054,3.9547,3.969,3.9279,3.8284,3.7636,3.6795,3.5751,3.4555,3.3093,3.1523,3.0903,2.9779,2.8322,2.7489,2.696,2.6578,2.5236,2.418,2.3346,2.3021,2.2898,2.2805,2.2361,2.2029,2.1698,2.1179,2.0668,2.0246,2.0,1.9818,1.9639,1.9281,1.9043,1.8855,1.865,1.7947,1.7133,1.6587,1.6027,1.532,1.4376,1.3956,1.3637,1.3017,1.2881,1.2881,1.2881,1.2881,1.2881,1.2881,1.2881,1.2881,1.2881,1.2666,1.2039,1.0922,0.8999,0.761,0.716,0.2684,-0.1272,-0.4008,-0.9571,-1.2972,-1.3437,-1.5555,-1.6814,-1.7049,-1.6697,-1.6522,-1.6522,-1.7034,-1.7826,-1.8815,-2.01,-2.1416,3.3126,3.3818,3.4342,3.5178,3.5494,3.5452,3.4935,3.5609,3.6679,3.7955,3.7183,3.6719,3.7948,3.9788,4.115,4.1367,4.2429,4.3314,4.3479,4.397,4.4099,4.3587,4.3989,4.4081,4.3534,4.3497,4.3497,4.3497,4.3497,4.3387,4.313,4.2873,4.2121,4.0763,4.0714,4.0048,3.8707,3.8625,3.8118,3.7121,3.6344,3.5616,3.4935,3.3534,3.2273,3.1195,3.0342,2.9231,2.7986,2.7065,2.6409,2.5817,2.4515,2.3622,2.2996,2.2704,2.2573,2.2466,2.182,2.1521,2.1306,2.0534,2.0212,2.0054,1.9782,1.9566,1.9369,1.9006,1.865,1.8327,1.8157,1.7558,1.687,1.6305,1.5564,1.4812,1.4003,1.3637,1.3372,1.2968,1.2881,1.2881,1.2881,1.2881,1.2881,1.2881,1.2881,1.2881,1.2881,1.2881,1.2255,1.0645,0.8153,0.6475,0.614,0.1595,-0.2456,-0.5373,-1.0647,-1.3844,-1.4313,-1.6314,-1.7463,-1.7639,-1.6898,-1.6609,-1.6785,-1.6956,-1.7572,-1.8617,-1.9775,-2.1028,3.3156,3.3461,3.3251,3.2512,3.397,3.5643,3.563,3.6787,3.8489,4.0713,3.943,3.8271,3.9514,3.8581,3.8465,4.0988,4.215,4.2878,4.3424,4.3497,4.3497,4.3497,4.3497,4.3497,4.3497,4.3497,4.3497,4.3497,4.3497,4.3149,4.2341,4.1552,4.0744,3.9918,3.9129,3.8707,3.8707,3.79,3.7074,3.6285,3.5006,3.4606,3.4899,3.2155,3.0902,3.0766,2.876,2.7666,2.7265,2.6887,2.5747,2.4224,2.3648,2.3112,2.2643,2.2371,2.2282,2.2225,2.1764,2.1337,2.0926,2.0449,2.0035,1.969,1.969,1.9332,1.8893,1.8893,1.8145,1.7133,1.6562,1.6378,1.6262,1.5708,1.4675,1.3815,1.3779,1.3324,1.2881,1.2881,1.2881,1.2881,1.2881,1.2881,1.2881,1.2881,1.2881,1.2881,1.2881,1.2881,1.208,0.9936,0.7829,0.5684,0.3457,0.0337,-0.2941,-0.6325,-1.1046,-1.4144,-1.5153,-1.6622,-1.7652,-1.8191,-1.7099,-1.681,-1.7375,-1.6798,-1.7034,-1.8131,-1.898,-2.03,3.3583,3.4638,3.5572,3.4822,3.5949,3.724,3.7201,3.7547,3.821,3.9428,3.9118,3.9007,4.0122,4.0457,4.0888,4.1867,4.2732,4.3332,4.3479,4.3497,4.3497,4.3497,4.3497,4.3497,4.3497,4.3497,4.3497,4.3497,4.3497,4.3149,4.2341,4.2066,4.1313,3.9937,3.9662,3.9276,3.8707,3.79,3.6936,3.5805,3.4865,3.4178,3.3687,3.2002,3.0945,3.0345,2.8943,2.7914,2.7286,2.6891,2.5802,2.4401,2.4228,2.3435,2.2371,2.194,2.1794,2.1688,2.0943,2.0616,2.0382,1.9564,1.9214,1.908,1.8688,1.8458,1.8263,1.7867,1.7231,1.6519,1.5971,1.5207,1.4527,1.4354,1.4039,1.3684,1.3238,1.3017,1.2881,1.2881,1.2881,1.2881,1.2881,1.2881,1.2881,1.2881,1.2881,1.2715,1.2187,1.1733,1.0805,0.9186,0.7877,0.5973,0.3067,-0.0683,-0.5078,-1.0137,-1.2989,-1.4969,-1.6014,-1.7639,-1.843,-1.8204,-1.7501,-1.7011,-1.6773,-1.6609,-1.7034,-1.8131,-1.898,-2.0182,3.3184,3.4284,3.5385,3.5216,3.6526,3.7975,3.8284,3.8772,3.9225,3.9385,3.9441,3.9647,4.0298,4.0913,4.1516,4.203,4.2878,4.3497,4.3497,4.3497,4.3497,4.3497,4.3206,4.3151,4.3461,4.2923,4.268,4.3015,4.2724,4.2209,4.1387,4.135,4.0763,3.946,3.9423,3.9184,3.8707,3.7381,3.6357,3.5593,3.4074,3.2965,3.2165,3.1129,3.0243,2.9457,2.8276,2.7341,2.6588,2.606,2.5118,2.4019,2.3731,2.2967,2.2003,2.1688,2.1491,2.1275,2.055,2.0162,1.9919,1.914,1.8765,1.8535,1.8224,1.7947,1.7706,1.7394,1.6701,1.5959,1.541,1.4503,1.3815,1.3815,1.3637,1.3334,1.2968,1.2881,1.2881,1.2881,1.2881,1.2881,1.2881,1.2881,1.2774,1.2501,1.2452,1.2295,1.1864,1.1216,1.0136,0.8456,0.7735,0.58,0.1925,-0.1611,-0.5785,-1.0909,-1.3564,-1.5523,-1.6837,-1.8215,-1.8869,-1.8543,-1.7777,-1.7212,-1.6861,-1.6824,-1.7271,-1.8145,-1.9214,-2.0377,3.2433,3.3084,3.3784,3.4499,3.6384,3.8167,3.8957,4.0151,4.0915,4.015,4.0036,4.0087,4.0172,4.0486,4.0962,4.177,4.2768,4.3442,4.3479,4.3442,4.3387,4.3387,4.266,4.2477,4.322,4.1972,4.1396,4.2124,4.1517,4.0735,3.9937,3.99,3.9496,3.8615,3.8597,3.8511,3.8407,3.6458,3.5439,3.5339,3.2897,3.127,3.0508,2.9833,2.9072,2.8226,2.718,2.6235,2.5476,2.4864,2.4103,2.3266,2.2608,2.2024,2.1521,2.1491,2.1244,2.0862,2.0348,1.9904,1.9441,1.8916,1.8366,1.7933,1.7894,1.749,1.705,1.705,1.6275,1.532,1.4744,1.4143,1.3684,1.3627,1.3228,1.2881,1.2881,1.2881,1.2881,1.2881,1.2881,1.2881,1.2881,1.2881,1.2666,1.1972,1.1864,1.1765,1.1715,1.1057,0.982,0.7823,0.7235,0.5085,0.0388,-0.2617,-0.5847,-0.962,-1.3156,-1.5786,-1.739,-1.847,-1.9033,-1.8983,-1.799,-1.7438,-1.7388,-1.729,-1.7544,-1.8131,-1.9474,-2.0556,3.4079,3.461,3.5313,3.6101,3.7547,3.8989,3.9699,4.0119,4.0144,3.9404,3.9671,4.0222,4.0646,4.0786,4.1244,4.2323,4.2732,4.3023,4.3442,4.2951,4.2551,4.2551,4.186,4.1418,4.1599,4.1313,4.1189,4.1354,4.1188,4.0738,3.9918,3.99,3.9239,3.779,3.7753,3.7284,3.6282,3.5178,3.4321,3.3616,3.1794,3.0368,2.936,2.9206,2.8197,2.6532,2.664,2.6051,2.4994,2.5244,2.4355,2.2839,2.269,2.2013,2.1086,2.0715,2.0516,2.0333,1.9492,1.914,1.8916,1.7933,1.7231,1.6676,1.6262,1.574,1.5276,1.5276,1.4721,1.4179,1.405,1.3563,1.2949,1.2365,1.2589,1.2881,1.2881,1.2881,1.2881,1.2881,1.2881,1.2881,1.2881,1.2881,1.2832,1.2666,1.2187,1.1616,1.1065,0.9923,0.8698,0.7586,0.5291,0.2839,0.023,-0.4631,-0.8117,-0.9475,-1.2564,-1.4898,-1.6201,-1.8434,-1.9447,-1.8983,-1.8367,-1.7815,-1.7388,-1.6916,-1.7146,-1.8145,-1.8792,-1.9828,3.4542,3.4797,3.5453,3.6966,3.8451,3.9632,4.0003,4.007,3.9985,3.9614,3.9812,4.0189,4.0459,4.0747,4.114,4.1743,4.2318,4.2805,4.3078,4.2642,4.2292,4.2294,4.124,4.0703,4.1071,4.0409,4.0125,4.0492,4.0167,3.959,3.8811,3.8744,3.8175,3.6945,3.6723,3.6253,3.563,3.4398,3.3371,3.2505,3.1108,2.9704,2.8416,2.8044,2.719,2.6013,2.6262,2.5456,2.4002,2.4295,2.3391,2.1874,2.1874,2.1392,2.0616,2.0382,2.0039,1.9564,1.9066,1.8574,1.8027,1.7463,1.6701,1.5959,1.5664,1.5186,1.4698,1.4698,1.4283,1.3815,1.3815,1.3324,1.2715,1.1972,1.208,1.2344,1.2344,1.2344,1.2501,1.2822,1.2881,1.2881,1.2881,1.2363,1.1891,1.1891,1.1275,1.0712,1.0364,0.9363,0.8389,0.7507,0.4293,0.1385,-0.0568,-0.5327,-0.8576,-0.9332,-1.2265,-1.4497,-1.5836,-1.8049,-1.901,-1.8496,-1.8275,-1.794,-1.7388,-1.7046,-1.7146,-1.7747,-1.8745,-1.9718,3.4672,3.4798,3.5429,3.7552,3.9009,3.9952,4.0054,4.007,4.007,4.007,4.007,4.007,4.007,4.0442,4.0798,4.0866,4.1611,4.2323,4.2644,4.2168,4.1849,4.2057,4.0671,3.9933,4.0615,3.9479,3.8921,3.9455,3.8879,3.8138,3.7331,3.7228,3.6802,3.5996,3.5525,3.5163,3.4954,3.3565,3.2451,3.1562,3.0224,2.879,2.7341,2.6721,2.6245,2.5852,2.5852,2.481,2.3135,2.3131,2.2282,2.1021,2.0909,2.055,2.0058,2.0058,1.9528,1.8727,1.865,1.8027,1.7271,1.705,1.6318,1.541,1.5309,1.4869,1.4387,1.4387,1.4014,1.3637,1.3637,1.318,1.251,1.1823,1.1566,1.1466,1.1616,1.1715,1.1972,1.2608,1.2822,1.2871,1.2715,1.1733,1.0914,1.0813,1.0218,0.9762,0.9651,0.8849,0.8078,0.735,0.3575,0.0276,-0.1903,-0.5596,-0.8193,-0.9075,-1.193,-1.4185,-1.5652,-1.7515,-1.8342,-1.8033,-1.8253,-1.8078,-1.7526,-1.7476,-1.7459,-1.7463,-1.8835,-1.9864,3.5267,3.5943,3.6876,3.847,3.9009,3.9278,3.9969,4.007,4.007,4.007,4.007,4.007,4.007,4.0172,4.0375,4.0815,4.0487,4.0767,4.2449,4.0864,3.9969,4.1114,3.9841,3.8903,3.9013,3.8817,3.845,3.7868,3.7739,3.7305,3.6486,3.6061,3.5476,3.4666,3.4214,3.3422,3.2336,3.2105,3.1416,3.034,2.8402,2.6787,2.554,2.5443,2.5373,2.5297,2.5297,2.4544,2.3251,2.3142,2.2378,2.1206,2.0615,1.9849,1.9103,1.9103,1.8712,1.8145,1.7666,1.7435,1.7133,1.6145,1.5365,1.4744,1.419,1.36,1.3162,1.3162,1.3065,1.3017,1.3017,1.2491,1.1774,1.1116,1.0466,1.0218,1.0813,1.1366,1.1814,1.1922,1.2452,1.2715,1.208,1.1765,1.1466,1.0864,1.0218,0.954,0.8947,0.7688,0.6825,0.6728,0.2817,-0.1064,-0.4204,-0.633,-0.7784,-0.8381,-1.1353,-1.365,-1.4808,-1.6732,-1.8035,-1.8555,-1.8819,-1.8643,-1.8091,-1.8085,-1.8024,-1.8027,-1.8688,-2.0029,3.4996,3.5885,3.6865,3.7064,3.7756,3.8599,3.9328,3.9177,3.9076,3.9952,3.9783,3.9615,4.002,4.007,4.0189,4.0408,4.0101,4.0203,4.1357,4.0129,3.9319,3.992,3.8958,3.8142,3.7898,3.7864,3.7524,3.6699,3.6892,3.6521,3.5284,3.5041,3.4568,3.3756,3.3013,3.237,3.1825,3.1153,3.0014,2.8381,2.6782,2.5718,2.5182,2.491,2.4752,2.4752,2.4752,2.384,2.2388,2.2355,2.155,2.0375,2.0086,1.9522,1.8893,1.8893,1.838,1.7585,1.6995,1.6617,1.6188,1.5365,1.4687,1.4143,1.3862,1.3372,1.2881,1.2881,1.2881,1.2881,1.2881,1.2666,1.2138,1.1065,1.0559,1.0269,0.9762,1.0517,1.1466,1.2246,1.2666,1.2559,1.1416,1.1266,1.0864,0.9814,0.9413,0.8988,0.8231,0.7515,0.6381,0.4714,0.1822,-0.1292,-0.4581,-0.633,-0.7786,-0.892,-1.1736,-1.3965,-1.5314,-1.7179,-1.8394,-1.8715,-1.8918,-1.889,-1.8647,-1.8336,-1.8147,-1.8106,-1.865,-1.9647,3.4684,3.5484,3.6395,3.6017,3.6758,3.7823,3.8548,3.8287,3.8221,3.9291,3.9092,3.8875,3.943,3.9834,4.007,4.007,3.9671,3.9559,4.0311,3.9251,3.8546,3.8883,3.8218,3.756,3.7246,3.7198,3.6798,3.5782,3.6007,3.5547,3.3984,3.3799,3.3391,3.2603,3.1969,3.1487,3.1091,2.9929,2.8515,2.6896,2.5596,2.495,2.4792,2.4389,2.4199,2.4199,2.4199,2.3351,2.1934,2.1769,2.1006,1.9929,1.9626,1.9169,1.8688,1.8535,1.7907,1.7021,1.6587,1.6058,1.5499,1.488,1.4283,1.3768,1.3637,1.3238,1.2881,1.2881,1.2881,1.2881,1.2881,1.2774,1.2304,1.1074,1.0669,1.0261,0.9256,0.9865,1.0973,1.2353,1.2608,1.2246,1.1023,1.0813,1.0364,0.9008,0.8804,0.848,0.7557,0.7436,0.6036,0.2532,0.0612,-0.1646,-0.4578,-0.6395,-0.7983,-0.9292,-1.224,-1.4605,-1.5972,-1.7733,-1.8708,-1.8799,-1.9046,-1.9118,-1.8989,-1.8896,-1.8658,-1.8341,-1.8855,-1.9675,3.4692,3.5064,3.5853,3.6576,3.6808,3.7058,3.7792,3.7908,3.7902,3.7991,3.7959,3.7953,3.802,3.9177,4.007,4.007,3.8935,3.8436,3.9656,3.7951,3.7033,3.8295,3.7721,3.7233,3.7209,3.7213,3.6553,3.4995,3.4907,3.4234,3.2692,3.2197,3.1602,3.0855,3.111,3.0552,2.9166,2.7898,2.694,2.6318,2.5042,2.4199,2.3681,2.3638,2.3638,2.3638,2.3638,2.3263,2.2619,2.1949,2.1291,2.0512,1.938,1.8612,1.8066,1.7585,1.7034,1.6552,1.6522,1.6095,1.5499,1.488,1.4283,1.3684,1.3104,1.2929,1.2881,1.2881,1.2881,1.2881,1.2881,1.2393,1.1665,1.0965,1.0312,0.9814,0.9762,0.9814,1.0269,1.1616,1.1864,1.1616,1.0914,1.0813,1.0364,0.9008,0.8804,0.8262,0.6858,0.7106,0.5534,0.0664,-0.097,-0.2566,-0.4646,-0.6915,-0.8469,-0.9023,-1.2554,-1.5179,-1.6325,-1.7893,-1.8762,-1.8971,-1.9497,-1.952,-1.8989,-2.006,-1.9967,-1.8855,-1.9406,-2.0512,3.4692,3.5047,3.5554,3.5372,3.5677,3.6231,3.7007,3.6797,3.6709,3.7723,3.7495,3.736,3.781,3.8333,3.8672,3.8683,3.7422,3.6683,3.7517,3.6098,3.5183,3.565,3.5439,3.5324,3.5442,3.5019,3.4536,3.3928,3.3737,3.3174,3.2127,3.1446,3.1184,3.1409,3.0813,2.9837,2.8515,2.7218,2.6094,2.5073,2.4265,2.3794,2.3595,2.3595,2.3595,2.358,2.2847,2.2322,2.2031,2.143,2.0529,1.9452,1.8697,1.8066,1.7544,1.7394,1.6951,1.6423,1.6051,1.5511,1.4915,1.4329,1.3695,1.32,1.2978,1.2881,1.2881,1.2881,1.2881,1.2881,1.2881,1.2715,1.2197,1.1074,1.0269,0.9666,0.9256,0.951,1.0064,1.0965,1.1166,1.0965,1.0261,1.0167,0.9865,0.8956,0.8804,0.8268,0.6804,0.6771,0.514,0.0497,-0.2135,-0.4071,-0.5312,-0.7131,-0.8687,-0.9945,-1.2671,-1.4996,-1.6731,-1.7787,-1.8706,-1.9484,-2.0127,-1.9953,-1.8965,-1.9711,-2.0078,-2.0055,-2.0613,-2.151,3.4692,3.4861,3.5182,3.4928,3.4878,3.5064,3.5864,3.5622,3.5509,3.6559,3.6576,3.6559,3.7024,3.6915,3.6905,3.7447,3.6412,3.5633,3.5749,3.4704,3.3912,3.3911,3.3945,3.3965,3.4105,3.3702,3.3305,3.3051,3.2866,3.241,3.1637,3.1141,3.0967,3.1225,2.9768,2.8602,2.7849,2.6571,2.5409,2.4389,2.3879,2.3595,2.3595,2.3595,2.3595,2.3537,2.2571,2.1888,2.1355,2.0625,1.964,1.8577,1.8057,1.7626,1.7271,1.7118,1.6795,1.6423,1.6051,1.5365,1.4652,1.4236,1.3563,1.2881,1.2881,1.2881,1.2881,1.2881,1.2881,1.2881,1.2881,1.2725,1.2246,1.1074,1.0269,0.9614,0.8962,0.9166,0.9666,1.0312,1.0466,1.0312,0.9865,0.9814,0.9562,0.891,0.8804,0.8268,0.6804,0.6603,0.4914,0.0496,-0.2699,-0.4805,-0.5619,-0.7114,-0.8775,-1.042,-1.2804,-1.4945,-1.6647,-1.7654,-1.8509,-1.9232,-1.9876,-1.9635,-1.8618,-1.9569,-2.0264,-2.0722,-2.1066,-2.2061,0.0,0.0,0.0,3.5402,3.4506,3.3634,3.4292,3.4449,3.4449,3.4466,3.5065,3.5554,3.5554,3.4936,3.4965,3.6439,3.6004,3.5265,3.4535,3.3785,3.3332,3.3333,3.3362,3.3352,3.3386,3.333,3.3051,3.2364,3.2256,3.1935,3.1241,3.1173,3.0835,3.0053,2.7857,2.6821,2.7064,2.5805,2.491,2.4389,2.3837,2.3595,2.3595,2.3595,2.3595,2.3551,2.2935,2.196,2.0765,1.9572,1.8713,1.8014,1.7476,1.7271,1.7242,1.6693,1.6534,1.6522,1.6491,1.5712,1.4698,1.4698,1.3884,1.2881,1.2881,1.2881,1.2881,1.2881,1.2881,1.2881,1.2881,1.2344,1.1665,1.0965,1.0312,0.9666,0.8962,0.8804,0.9008,0.9666,0.9762,0.9762,0.9762,0.9762,0.9562,0.891,0.8804,0.8268,0.6804,0.6603,0.4914,0.0496,-0.2695,-0.4754,-0.5449,-0.701,-0.8618,-1.0317,-1.2928,-1.4963,-1.6132,-1.746,-1.818,-1.8222,-1.8682,-1.8659,-1.8145,-1.9865,-2.0654,-2.0669,-2.0752,-2.2062,3.5368,0.0,0.0,0.0,0.0,0.0,3.376,3.371,3.3691,3.3712,3.39,3.4015,3.4015,3.3854,3.3651,3.3539,3.334,3.3134,3.294,3.2258,3.1811,3.1822,3.1794,3.2026,3.2536,3.2138,3.1935,3.2256,3.1799,3.141,3.1207,3.0683,2.9888,2.8755,2.7587,2.6646,2.5955,2.5058,2.4348,2.3837,2.3681,2.3595,2.3595,2.3595,2.3595,2.3507,2.1628,2.0611,2.0245,1.9432,1.8504,1.7557,1.6961,1.671,1.6774,1.703,1.6873,1.6485,1.6447,1.5682,1.4606,1.419,1.3515,1.2881,1.2881,1.2881,1.2881,1.2881,1.2881,1.2881,1.2881,1.2774,1.2295,1.1074,1.0661,1.0218,0.9061,0.8804,0.8857,0.9061,0.9061,0.9061,0.9061,0.9061,0.9008,0.8804,0.8804,0.8268,0.6804,0.6603,0.4914,0.0496,-0.2695,-0.4975,-0.6209,-0.7149,-0.8553,-1.0577,-1.232,-1.4018,-1.5616,-1.6844,-1.7862,-1.8682,-1.921,-1.9394,-1.9244,-1.9745,-2.0027,-2.0191,-2.2247,-2.4213,3.5622,3.5402,3.5115,3.4996,0.0,0.0,3.3414,3.3151,3.2933,3.2937,3.3187,3.341,3.3405,3.3144,3.2823,3.2383,3.2026,3.1834,3.1856,3.1461,3.119,3.119,3.119,3.1376,3.181,3.1438,3.1376,3.1799,3.1427,3.1072,3.0768,2.9816,2.8815,2.7783,2.6814,2.5885,2.5035,2.4632,2.4116,2.3595,2.3595,2.3595,2.3595,2.3595,2.3595,2.3507,2.1917,2.092,2.0346,1.945,1.8267,1.6986,1.6647,1.6522,1.6559,1.6898,1.6666,1.6144,1.6361,1.5532,1.4329,1.419,1.361,1.2881,1.2881,1.2881,1.2881,1.2881,1.2881,1.2881,1.2881,1.2881,1.2569,1.1124,1.0813,1.0415,0.9113,0.8804,0.8804,0.8804,0.8804,0.8804,0.8804,0.8804,0.8699,0.8374,0.8321,0.783,0.6308,0.6401,0.4878,0.0497,-0.2728,-0.4923,-0.6041,-0.6779,-0.8088,-1.0222,-1.184,-1.3478,-1.5112,-1.6287,-1.7433,-1.8535,-1.8873,-1.9253,-1.969,-1.969,-2.0117,-2.1013,-2.3719,-2.5461,3.5622,3.5131,3.4759,3.5351,3.3998,0.0,3.3182,3.2787,3.2264,3.221,3.2723,3.3151,3.3172,3.2613,3.2135,3.207,3.1546,3.119,3.119,3.119,3.119,3.119,3.1123,3.1072,3.1072,3.1072,3.1038,3.0954,3.0954,3.0661,3.0049,2.8793,2.7707,2.6967,2.5744,2.4855,2.4307,2.4307,2.4074,2.3595,2.3595,2.3595,2.3595,2.3595,2.3551,2.345,2.2802,2.1815,2.0612,1.948,1.8054,1.6609,1.6547,1.6522,1.6522,1.6584,1.62,1.5776,1.6225,1.5289,1.3956,1.4387,1.3752,1.2881,1.2881,1.2881,1.2881,1.2881,1.2881,1.2881,1.2881,1.2881,1.2569,1.1124,1.0813,1.0415,0.9113,0.8804,0.8804,0.8804,0.8804,0.8804,0.8804,0.8804,0.8533,0.783,0.7723,0.7176,0.5706,0.6146,0.4904,0.0497,-0.2728,-0.4757,-0.5433,-0.6204,-0.7469,-0.9578,-1.1581,-1.3314,-1.4652,-1.592,-1.7034,-1.7987,-1.8145,-1.865,-1.9603,-1.975,-2.0725,-2.254,-2.483,-2.5966,3.5622,3.5504,3.5284,3.4827,3.4387,0.0,3.273,3.2417,3.2117,3.1546,3.1534,3.1608,3.1619,3.1529,3.1241,3.0624,3.0891,3.119,3.119,3.119,3.119,3.119,3.0683,3.0311,3.0311,3.0311,3.0074,2.9448,2.9414,2.9433,2.9463,2.8103,2.6834,2.5831,2.4992,2.4307,2.3752,2.3767,2.3724,2.3595,2.3595,2.3595,2.3595,2.3595,2.3334,2.2801,2.1744,2.0584,1.9381,1.8673,1.7941,1.7162,1.6697,1.6522,1.6572,1.7049,1.6823,1.6256,1.5857,1.5174,1.4376,1.3515,1.3113,1.2881,1.2881,1.2881,1.2881,1.2881,1.2881,1.2881,1.2881,1.2881,1.2569,1.1124,1.0813,1.0415,0.9113,0.8804,0.8804,0.8804,0.8804,0.8804,0.8804,0.8804,0.8533,0.783,0.7723,0.7176,0.5706,0.6146,0.4904,0.0497,-0.2728,-0.4757,-0.5433,-0.6204,-0.7469,-0.9578,-1.1581,-1.3314,-1.4652,-1.6275,-1.7229,-1.7463,-1.8302,-1.8855,-1.9043,-2.0028,-2.1393,-2.3067,-2.4503,-2.5696,3.5622,3.5622,3.552,3.5148,3.4776,0.0,0.0,3.2559,3.2105,3.1348,3.119,3.119,3.119,3.119,3.1055,3.0688,3.0972,3.1074,3.0683,3.097,3.119,3.119,3.0869,3.0497,3.0142,3.0108,2.9825,2.9159,2.8791,2.8495,2.8306,2.7018,2.5878,2.4999,2.4326,2.3879,2.3595,2.3595,2.3595,2.3595,2.3595,2.3595,2.3595,2.329,2.2965,2.262,2.1436,2.052,1.9872,1.9027,1.8448,1.8141,1.7576,1.7187,1.6986,1.7275,1.6821,1.6044,1.5999,1.5417,1.4606,1.3978,1.361,1.3286,1.2968,1.2881,1.2881,1.2881,1.2881,1.2881,1.2881,1.2618,1.2089,1.1074,1.0517,1.0012,0.9008,0.8804,0.8804,0.8804,0.8804,0.8804,0.8804,0.8804,0.8427,0.7343,0.745,0.7069,0.5218,0.5344,0.433,0.1107,-0.1498,-0.3566,-0.4901,-0.5991,-0.7362,-0.9099,-1.1425,-1.3314,-1.4652,-1.6114,-1.7034,-1.7312,-1.8341,-1.8893,-1.8893,-2.0558,-2.202,-2.3243,-2.4646,-2.5898,3.5842,3.5842,3.5842,3.5842,3.5385,3.4709,0.0,0.0,0.0,3.1568,3.1292,3.119,3.119,3.119,3.1089,3.0823,3.0798,3.0544,2.964,3.0085,3.0589,3.097,3.0987,3.07,2.9973,2.9542,2.9231,2.9015,2.8145,2.7443,2.7003,2.5879,2.4963,2.4256,2.3837,2.3595,2.3595,2.3595,2.3595,2.3595,2.3595,2.3595,2.3595,2.3113,2.274,2.2469,2.1503,2.0806,2.0388,1.9585,1.9136,1.897,1.8417,1.794,1.7539,1.7539,1.6954,1.611,1.6247,1.5754,1.4959,1.4501,1.4014,1.3552,1.3065,1.2881,1.2881,1.2881,1.2774,1.2725,1.2871,1.2246,1.1458,1.0914,1.0269,0.9614,0.8962,0.8804,0.8804,0.8804,0.8804,0.8804,0.8804,0.8804,0.8321,0.6804,0.7235,0.6907,0.4791,0.4498,0.3707,0.1719,-0.0111,-0.2111,-0.4307,-0.5719,-0.709,-0.8619,-1.121,-1.3314,-1.4652,-1.5876,-1.671,-1.7146,-1.8224,-1.8803,-1.8878,-2.0895,-2.2258,-2.3034,-2.4878,-2.6216,3.6637,3.6637,3.6637,3.6637,3.6586,3.6146,3.4709,0.0,3.3093,3.2307,0.0,3.119,3.119,0.0,0.0,2.9459,2.9403,2.9036,2.764,2.7669,2.8436,3.001,3.0226,2.9939,2.9178,2.7501,2.6995,2.8229,2.6607,2.5576,2.5717,2.4953,2.4276,2.3724,2.3638,2.3595,2.3595,2.3595,2.3595,2.3595,2.3595,2.3595,2.3595,2.3508,2.2891,2.1805,2.1688,2.0703,1.9232,1.9573,1.9434,1.897,1.8417,1.8166,1.8116,1.8116,1.8019,1.7694,1.6138,1.5858,1.587,1.3782,1.3065,1.2968,1.2929,1.2881,1.2881,1.2881,1.2452,1.208,1.2715,1.1891,1.0914,1.0813,1.0269,0.9614,0.8962,0.8804,0.8804,0.8804,0.8804,0.8804,0.8804,0.8804,0.8321,0.6804,0.7235,0.6907,0.4791,0.4498,0.3707,0.1719,0.05,-0.1334,-0.4252,-0.5433,-0.6742,-0.856,-1.121,-1.3314,-1.4652,-1.5876,-1.6522,-1.6595,-1.7626,-1.8391,-1.8792,-2.0379,-2.1503,-2.2309,-2.491,-2.6199,3.6772,3.6772,3.6726,3.6281,3.6169,3.5673,3.3756,3.3104,3.2672,3.1888,0.0,0.0,0.0,0.0,0.0,0.0,2.9699,2.8886,2.7891,2.7793,2.802,2.8491,2.8793,2.872,2.7964,2.6814,2.626,2.6557,2.5424,2.4823,2.4952,2.4344,2.3651,2.3113,2.3421,2.3421,2.3054,2.3421,2.3595,2.3595,2.3595,2.3595,2.3595,2.3246,2.2575,2.1683,2.0975,2.0237,1.9472,1.9384,1.9397,1.9447,1.9221,1.8945,1.8681,1.8681,1.8279,1.7597,1.6409,1.5986,1.5646,1.3984,1.32,1.2881,1.2881,1.2881,1.2881,1.2881,1.2344,1.1864,1.2187,1.1225,1.0218,1.0218,0.9718,0.9159,0.8857,0.8804,0.8804,0.8804,0.8804,0.8804,0.8804,0.8804,0.8427,0.7396,0.7503,0.7235,0.5882,0.532,0.4594,0.3374,0.1829,-0.0111,-0.2558,-0.4696,-0.6533,-0.7958,-1.1367,-1.3861,-1.5186,-1.6051,-1.6637,-1.6951,-1.7706,-1.8493,-1.9266,-2.0418,-2.1374,-2.2145,-2.3996,-2.5199,3.7381,3.7381,3.7172,3.6241,3.6009,3.5431,3.3317,3.2652,3.2271,3.1502,3.1185,0.0,0.0,0.0,3.0126,3.0356,0.0,2.8236,2.7535,2.7163,2.6969,2.7081,2.7452,2.7547,2.7114,2.6237,2.5538,2.5164,2.4518,2.4219,2.4313,2.3864,2.3334,2.2694,2.3098,2.3054,2.2452,2.2846,2.3069,2.3069,2.3069,2.3069,2.3069,2.262,2.2067,2.1411,2.0574,2.007,1.9773,1.9397,1.9459,1.9798,1.9798,1.9572,1.9246,1.9246,1.8585,1.7626,1.686,1.588,1.4923,1.4185,1.3473,1.2881,1.2881,1.2881,1.2881,1.2881,1.2246,1.1566,1.1765,1.0669,0.9562,0.9762,0.9316,0.8804,0.8804,0.8804,0.8804,0.8804,0.8804,0.8804,0.8804,0.8804,0.8533,0.783,0.7883,0.767,0.6696,0.6145,0.5479,0.4594,0.3219,0.1388,-0.0888,-0.4139,-0.686,-0.8632,-1.2029,-1.4459,-1.5531,-1.6194,-1.6752,-1.7312,-1.7827,-1.8646,-1.9768,-2.0601,-2.1458,-2.2279,-2.3482,-2.4489,3.892,3.892,3.857,3.7153,3.6752,3.622,3.4076,3.2987,3.2301,3.1646,3.091,3.0238,2.9579,2.9447,2.9199,2.8509,2.7371,0.0,0.0,2.4496,2.438,2.611,2.6366,2.6564,2.7064,2.5497,2.4461,2.442,2.3921,2.3653,2.3625,2.361,2.3334,2.2694,2.2694,2.2406,2.1758,2.1744,2.1744,2.1744,2.1744,2.1744,2.1744,2.1744,2.139,2.0845,2.0782,2.0383,1.9798,1.9786,1.9786,1.9798,1.9798,1.9798,1.9773,1.9773,1.9322,1.8519,1.7397,1.5465,1.368,1.4181,1.3718,1.2881,1.2881,1.2881,1.2881,1.2881,1.19,1.0965,1.1616,1.0312,0.9008,0.9666,0.9316,0.8804,0.8804,0.8804,0.8804,0.8804,0.8804,0.8804,0.8804,0.8804,0.8533,0.783,0.8315,0.8262,0.6804,0.6588,0.6032,0.4648,0.4467,0.3188,0.0223,-0.4036,-0.8,-1.1347,-1.3517,-1.4971,-1.5588,-1.6194,-1.6752,-1.7312,-1.7827,-1.8806,-2.0172,-2.0716,-2.1592,-2.2712,-2.3837,-2.4563,3.8988,3.8988,3.8639,3.7138,3.6448,3.5583,3.3382,3.2354,3.1774,3.1509,3.0939,3.0364,3.0083,2.9372,2.8839,2.9016,2.7931,2.6867,0.0,2.4663,2.3955,2.4905,2.5106,2.5215,2.5306,2.4837,2.4336,2.3909,2.3724,2.3595,2.3595,2.3231,2.2725,2.2053,2.2053,2.1724,2.1113,2.152,2.1697,2.1697,2.1697,2.1697,2.1697,2.1697,2.139,2.0795,2.0795,2.0396,1.9798,1.9798,1.9798,1.9798,1.9798,1.9798,1.9798,1.9798,1.9419,1.868,1.7014,1.5341,1.3916,1.4168,1.3777,1.3301,1.3301,1.3105,1.2881,1.2881,1.1891,1.0864,1.1065,0.9961,0.8857,0.9061,0.8956,0.8804,0.8804,0.8804,0.8804,0.8804,0.8804,0.8804,0.8804,0.8804,0.8699,0.848,0.8209,0.8049,0.8049,0.7182,0.6421,0.5919,0.505,0.3272,0.0277,-0.4436,-0.8351,-1.0939,-1.2936,-1.4332,-1.4971,-1.5976,-1.6909,-1.7827,-1.8027,-1.897,-2.0716,-2.1132,-2.1995,-2.3244,-2.3858,-2.419,3.8873,3.8753,3.8305,3.7077,3.627,3.5137,3.2974,3.2183,3.179,3.1515,3.0953,3.0514,3.0444,2.9388,2.867,2.9042,2.7984,2.6811,0.0,2.4761,2.4003,2.409,2.4187,2.4383,2.4709,2.4468,2.4178,2.3984,2.3729,2.3595,2.3595,2.3024,2.2392,2.1697,2.1472,2.1064,2.0446,2.0805,2.1037,2.1037,2.1037,2.1037,2.1037,2.1037,2.0805,2.0446,2.0446,2.0207,1.9798,1.9798,1.9798,1.9798,1.9798,1.9798,1.9798,1.9798,1.9265,1.8243,1.6541,1.5221,1.4365,1.4365,1.3975,1.3506,1.3506,1.3213,1.2881,1.2881,1.2049,1.1116,1.0864,0.9961,0.9106,0.8857,0.8804,0.8804,0.8804,0.8804,0.8857,0.9113,0.8956,0.8857,0.9106,0.8956,0.8804,0.8804,0.8374,0.8268,0.8752,0.7723,0.6912,0.6642,0.5366,0.2861,-0.1207,-0.552,-0.8698,-1.0364,-1.2308,-1.3575,-1.4029,-1.541,-1.6803,-1.8099,-1.8293,-1.9413,-2.1488,-2.1645,-2.2392,-2.3678,-2.3989,-2.4234]},{"header":{"parameterUnit":"m.s-1","parameterCategory":1,"la1":30.6,"la2":29.2853,"lo1":-89.7004,"lo2":-87.6739,"dy":0.0162,"dx":0.0183,"nx":112,"ny":82,"refTime":"2023-08-27T12:00:00:Z","depth":0,"parameterNumber":3,"parameterNumberName":"V-component_of_WINDS"},"data":[0.0,0.0,0.0,0.0,0.0,0.0,0.0,0.0,0.0,0.0,0.0,0.0,0.0,0.0,0.0,0.0,0.0,0.0,0.0,0.0,0.0,0.0,0.0,0.0,0.0,0.0,0.0,0.0,0.0,0.0,0.0,0.0,0.0,0.0,0.0,0.0,0.0,0.0,0.0,0.0,0.0,0.0,0.0,0.0,0.0,0.0,0.0,0.0,0.0,0.0,0.0,0.0,0.0,0.0,0.0,0.0,0.0,0.0,0.0,0.0,0.0,0.0,0.0,0.0,0.0,0.0,0.0,0.0,0.0,0.0,0.0,0.0,0.0,0.0,0.0,0.0,0.0,0.0,0.0,0.0,0.0,0.0,0.0,0.0,0.0,0.0,0.0,0.0,0.0,0.0,0.9627,1.076,1.1148,1.1163,1.0789,1.0987,1.1002,1.0654,0.0,0.0,0.0,0.0,0.0,0.0,0.0,0.0,0.0,0.0,0.0,0.0,0.0,0.0,0.0,0.0,0.0,0.0,0.0,0.0,0.0,0.0,0.0,0.0,0.0,0.0,0.0,0.0,0.0,0.0,0.0,0.0,0.0,0.0,0.0,0.0,0.0,0.0,0.0,0.0,0.0,0.0,0.0,0.0,0.0,0.0,0.0,0.0,0.0,0.0,0.0,0.0,0.0,0.0,0.0,0.0,0.0,0.0,0.0,0.0,0.0,0.0,0.0,0.0,0.0,0.0,0.0,0.0,0.0,0.0,0.0,0.0,0.0,0.0,0.0,0.0,0.0,0.0,0.0,0.0,0.0,0.0,0.0,0.0,0.0,0.0,0.0,0.0,0.0,0.0,0.0,0.0,0.0,0.0,0.0,0.0,0.0,0.0,0.0,0.0,0.0,0.0,0.0,0.0,1.0083,1.1568,1.1769,1.1934,1.2334,1.1235,1.0721,1.116,0.0,0.0,0.0,0.0,0.0,0.0,0.0,0.0,0.0,0.0,0.0,0.0,0.0,0.0,0.0,0.0,0.0,0.0,0.0,0.0,0.0,0.0,0.0,0.0,0.0,0.0,0.0,0.0,0.0,0.0,0.0,0.0,0.0,0.0,0.0,0.0,0.0,0.0,0.0,0.0,0.0,0.0,0.0,0.0,0.0,0.0,0.0,0.0,0.0,0.0,0.0,0.0,0.0,0.0,0.0,0.0,0.0,0.0,0.0,0.0,0.0,0.0,0.0,0.0,0.0,0.0,0.0,0.0,0.0,0.0,0.0,0.0,0.0,0.0,0.0,0.0,0.0,0.0,0.0,0.0,0.0,0.0,0.0,0.0,0.0,0.0,0.0,0.0,0.0,0.0,0.0,0.0,0.0,0.0,0.0,0.0,0.0,0.0,0.0,0.0,0.0,0.0,0.0,1.1266,1.158,1.2249,1.2504,1.2696,1.2952,1.1203,1.0543,1.1498,1.1539,0.0,0.0,0.0,0.0,0.0,0.0,0.0,0.0,0.0,0.0,0.0,0.0,0.0,0.0,0.0,0.0,0.0,0.0,0.0,0.0,0.0,0.0,0.0,0.0,0.0,0.0,0.0,0.0,0.0,0.0,0.0,0.0,0.0,0.0,0.0,0.0,0.0,0.0,0.0,0.0,0.0,0.0,0.0,0.0,0.0,0.0,0.0,0.0,0.0,0.0,0.0,0.0,0.0,0.0,0.0,0.0,0.0,0.0,0.0,0.0,0.0,0.0,0.0,0.0,0.0,0.0,0.0,0.0,0.0,0.0,0.0,0.0,0.0,0.0,0.0,0.0,0.0,0.0,0.0,0.0,0.0,0.0,0.0,0.0,0.0,0.0,0.0,0.0,0.0,0.0,0.0,0.0,0.0,0.0,0.0,0.0,0.0,0.0,0.0,0.0,0.0,0.0,1.1873,1.2427,1.2685,1.2939,1.311,1.311,1.1129,1.0443,1.1715,1.1035,0.0,0.0,0.0,0.0,0.0,0.0,0.0,0.0,0.0,0.0,0.0,0.0,0.0,0.0,0.0,0.0,0.0,0.0,0.0,0.0,0.0,0.0,0.0,0.0,0.0,0.0,0.0,0.0,0.0,0.0,0.0,0.0,0.0,0.0,0.0,0.0,0.0,0.0,0.0,0.0,0.0,0.0,0.0,0.0,0.0,0.0,0.0,0.0,0.0,0.0,0.0,0.0,0.0,0.0,0.0,0.0,0.0,0.0,0.0,0.0,0.0,0.0,0.0,0.0,0.0,0.0,0.0,0.0,0.0,0.0,0.0,0.0,0.0,0.0,0.0,0.0,0.0,0.0,0.0,0.0,0.0,0.0,0.0,0.0,0.0,0.0,0.0,0.0,0.0,0.0,0.0,0.0,0.0,0.0,0.0,0.0,0.0,0.0,0.0,0.0,0.0,0.0,1.1081,1.1427,1.2671,1.2829,1.2829,1.2829,1.1042,1.0443,1.1715,1.1035,0.0,0.0,0.0,0.0,0.0,0.0,0.0,0.0,0.0,0.0,0.0,0.0,0.0,0.0,0.0,0.0,0.0,0.0,0.0,0.0,0.0,0.0,0.0,0.0,0.0,0.0,0.0,0.0,0.0,0.0,0.0,0.0,0.0,0.0,0.0,0.0,0.0,0.0,0.0,0.0,0.0,0.0,0.0,0.0,0.0,0.0,0.0,0.0,0.0,0.0,0.0,0.0,0.0,0.0,0.0,0.0,0.0,0.0,0.0,0.0,0.0,0.0,0.0,0.0,0.0,0.0,0.0,0.0,0.0,0.0,0.0,0.0,0.0,0.0,0.0,0.0,0.0,0.0,0.0,0.0,0.0,0.0,0.0,0.0,0.0,0.0,0.0,0.0,0.0,0.0,0.0,0.0,0.0,0.0,0.0,0.0,0.0,0.0,0.0,0.0,0.0,0.0,1.2584,1.2703,1.2801,1.2801,1.2801,1.2801,1.1032,1.0443,1.1715,0.0,0.0,0.0,0.0,0.0,0.0,0.0,0.0,0.0,0.0,0.0,0.0,0.0,0.0,0.0,0.0,0.0,0.0,0.0,0.0,0.0,0.0,0.0,0.0,0.0,0.0,0.0,0.0,0.0,0.0,0.0,0.0,0.0,0.0,0.0,0.0,0.0,0.0,0.0,0.0,0.0,0.0,0.0,0.0,0.0,0.0,0.0,0.0,0.0,0.0,0.0,0.0,0.0,0.0,0.0,0.0,0.0,0.0,0.0,0.0,0.0,0.0,0.0,0.0,0.0,0.0,0.0,0.0,0.0,0.0,0.0,0.0,0.0,0.0,0.0,0.0,0.0,0.0,0.0,0.0,0.0,0.0,0.0,0.0,0.0,0.0,0.0,0.0,0.0,0.0,0.0,0.0,0.0,0.0,0.0,0.0,0.0,0.0,0.0,0.0,0.0,0.0,1.3081,1.2937,1.2762,1.2516,1.2463,1.2411,1.2179,1.0772,1.0391,1.1546,0.0,0.0,0.0,0.0,0.0,0.0,0.0,0.0,0.0,0.0,0.0,0.0,0.0,0.0,0.0,0.0,0.0,0.0,0.0,0.0,0.0,0.0,0.0,0.0,0.0,0.0,0.0,0.0,0.0,0.0,0.0,0.0,0.0,0.0,0.0,0.0,0.0,0.0,0.0,0.0,0.0,0.0,0.0,0.0,0.0,0.0,0.0,0.0,0.0,0.0,0.0,0.0,0.0,0.0,0.0,0.0,0.0,0.0,0.0,0.0,0.0,0.0,0.0,0.0,0.0,0.0,0.0,0.0,0.0,0.0,0.0,0.0,0.0,0.0,0.0,0.0,0.0,0.0,0.0,0.0,0.0,0.0,0.0,0.0,0.0,0.0,0.0,0.0,0.0,0.0,0.0,0.0,0.0,0.0,0.0,0.0,0.0,0.0,0.0,0.0,0.0,0.0,1.2769,1.164,1.1072,1.1715,1.179,1.1521,1.0842,1.0249,1.0258,0.0,0.0,0.0,0.0,0.0,0.0,0.0,0.0,0.0,0.0,0.0,0.0,0.0,0.0,0.0,0.0,0.0,0.0,0.0,0.0,0.0,0.0,0.0,0.0,0.0,0.0,0.0,0.0,0.0,0.0,0.0,0.0,0.0,0.0,0.0,0.0,0.0,0.0,0.0,0.0,0.0,0.0,0.0,0.0,0.0,0.0,0.0,0.0,0.0,0.0,0.0,0.0,0.0,0.0,0.0,0.0,0.0,0.0,0.0,0.0,0.0,0.0,0.0,0.0,0.0,0.0,0.0,0.0,0.0,0.0,0.0,0.0,0.0,0.0,0.0,0.0,0.0,0.0,0.0,0.0,0.0,0.0,0.0,0.0,0.0,0.0,0.0,0.0,0.0,0.0,0.0,0.0,0.0,0.0,0.0,0.0,0.0,0.0,0.0,0.0,0.0,0.0,0.0,1.3672,1.2617,1.1688,1.14,1.1207,1.0827,1.0219,0.9578,0.9688,1.0844,0.0,0.0,0.0,0.0,0.0,0.0,0.0,0.0,0.0,0.0,0.0,0.0,0.0,0.0,0.0,0.0,0.0,0.0,0.0,0.0,0.0,0.0,0.0,0.0,0.0,0.0,0.0,0.0,0.0,0.0,0.0,0.0,0.0,0.0,0.0,0.0,0.0,0.0,0.0,0.0,0.0,0.0,0.0,0.0,0.0,0.0,0.0,0.0,0.0,0.0,0.0,0.0,0.0,0.0,0.0,0.0,0.0,0.0,0.0,0.0,0.0,0.0,0.0,0.0,0.0,0.0,0.0,0.0,0.0,0.0,0.0,0.0,0.0,0.0,0.0,0.0,0.0,0.0,0.0,0.0,0.0,0.0,0.0,0.0,0.0,0.0,0.0,0.0,0.0,0.0,0.0,0.0,0.0,0.0,0.0,0.0,0.0,0.0,0.0,0.0,0.0,0.0,1.4122,1.3041,1.2055,1.1641,1.1354,1.0932,1.0324,0.989,1.0034,1.0898,0.0,0.0,0.0,0.0,0.0,0.0,0.0,0.0,0.0,0.0,0.0,0.0,0.0,0.0,0.0,0.0,0.0,0.0,0.0,0.0,0.0,0.0,0.0,0.0,0.0,0.0,0.0,0.0,0.0,0.0,0.0,0.0,0.0,0.0,0.0,0.0,0.0,0.0,0.0,0.0,0.0,0.0,0.0,0.0,0.0,0.0,0.0,0.0,0.0,0.0,0.0,0.0,0.0,0.0,0.0,0.0,0.0,0.0,0.0,0.0,0.0,0.0,0.0,0.0,0.0,0.0,0.0,0.0,0.0,0.0,0.0,0.0,0.0,0.0,0.0,0.0,0.0,0.0,0.0,0.0,0.0,0.0,0.0,0.0,0.0,0.0,0.0,0.0,0.0,0.0,0.0,0.0,0.0,0.0,0.0,0.0,0.0,0.0,0.0,0.0,0.0,0.0,1.4216,1.3062,1.2215,1.2153,1.187,1.1446,1.0768,1.0723,1.081,1.1064,0.0,0.0,0.0,0.0,0.0,0.0,0.0,0.0,0.0,0.0,0.0,0.0,0.0,0.0,0.0,0.0,0.0,0.0,0.0,0.0,0.0,0.0,0.0,0.0,0.0,0.0,0.0,0.0,0.0,0.0,0.0,0.0,0.0,0.0,0.0,0.0,0.0,0.0,0.0,0.0,0.0,0.0,0.0,0.0,0.0,0.0,0.0,0.0,0.0,0.0,0.0,0.0,0.0,0.0,0.0,0.0,0.0,0.0,0.0,0.0,0.3727,0.4343,0.0,0.0,0.0,0.0,0.0,0.0,0.0,0.0,0.0,0.0,0.0,0.0,0.0,0.0,0.0,0.0,0.0,0.0,0.0,0.0,0.0,0.0,0.0,0.0,0.0,0.0,0.0,0.0,0.0,0.0,0.0,0.0,0.0,0.0,0.0,0.0,0.0,0.0,0.0,0.0,1.4451,1.3347,1.2307,1.1787,1.1308,1.0753,1.0144,1.0099,1.0121,1.0176,1.082,0.0,0.0,0.0,0.0,0.0,0.0,0.0,0.0,0.0,0.0,0.0,0.0,0.0,0.0,0.0,0.0,0.0,0.0,0.0,0.0,0.0,0.0,0.0,0.0,0.0,0.0,0.0,0.0,0.0,0.0,0.0,0.0,0.0,0.0,0.0,0.0,0.0,0.0,0.0,0.0,0.0,0.0,0.0,0.0,0.0,0.0,0.0,0.0,0.0,0.0,0.0,0.0,0.0,0.0,0.0,0.0,0.0,0.0,0.0,0.3306,0.3789,0.0,0.0,0.0,0.0,0.0,0.0,0.0,0.0,0.0,0.0,0.0,0.0,0.0,0.0,0.0,0.0,0.0,0.0,0.0,0.0,0.0,0.0,0.0,0.0,0.0,0.0,0.0,0.0,0.0,0.0,0.0,0.0,0.0,0.0,0.0,0.0,0.0,0.0,0.0,0.0,1.4551,1.343,1.2466,1.2116,1.1589,1.1027,1.0398,1.0638,1.0683,1.0354,1.1061,0.0,0.0,0.0,0.0,0.0,0.0,0.0,0.0,0.0,0.0,0.0,0.0,0.0,0.0,0.0,0.0,0.0,0.0,0.0,0.0,0.0,0.0,0.0,0.0,0.0,0.0,0.0,0.0,0.0,0.0,0.0,0.0,0.0,0.0,0.0,0.0,0.0,0.0,0.0,0.0,0.0,0.0,0.0,0.0,0.0,0.0,0.0,0.0,0.0,0.0,0.0,0.0,0.0,0.6743,0.6116,0.4487,0.5021,0.4548,0.3346,0.3346,0.3607,0.4013,0.4178,0.0,0.0,0.0,0.0,0.0,0.0,0.0,0.0,0.0,0.0,0.0,0.0,0.0,0.0,0.0,0.0,0.0,0.0,0.0,0.0,0.0,0.0,1.0682,1.2294,1.235,1.1673,1.0376,0.0,0.0,0.0,0.0,0.0,0.0,0.0,0.0,0.0,0.0,0.0,1.4379,1.3304,1.2533,1.2533,1.2092,1.158,1.1022,1.1491,1.1521,1.0842,1.1473,1.2046,0.0,0.0,0.0,0.0,0.0,0.0,0.0,0.0,0.0,0.0,0.0,0.0,0.0,0.0,0.0,0.0,0.0,0.0,0.0,0.0,0.0,0.0,0.0,0.0,0.0,0.0,0.0,0.0,0.0,0.0,0.0,0.0,0.3953,0.3973,0.0,0.0,0.0,0.0,0.0,0.0,0.0,0.0,0.0,0.0,0.0,0.0,0.0,0.6334,0.6552,0.7135,0.7205,0.673,0.6777,0.6113,0.4832,0.4929,0.4463,0.3551,0.3551,0.0,0.4004,0.427,0.0,0.0,0.0,0.0,0.0,0.0,0.0,0.0,0.0,0.0,0.0,0.0,0.0,0.0,0.0,0.0,0.0,0.0,0.0,0.0,0.0,0.0,1.037,1.0636,1.1874,1.2981,1.2826,1.2177,1.1828,1.2539,1.2761,1.3107,0.0,0.0,0.0,0.0,0.0,0.0,1.3472,1.2712,1.2251,1.2251,1.1982,1.176,1.1685,1.1745,1.1521,1.0842,1.1637,1.2026,1.1747,1.2472,0.0,0.0,0.0,0.0,0.0,0.0,0.0,0.0,0.0,0.0,0.0,0.0,0.0,0.0,0.0,0.0,0.0,0.0,0.0,0.0,0.0,0.0,0.0,0.0,0.0,0.0,0.0,0.0,0.0,0.2376,0.3789,0.3865,0.3832,0.3792,0.0,0.0,0.0,0.0,0.0,0.0,0.0,0.0,0.0,0.5902,0.6705,0.723,0.7351,0.7583,0.7455,0.699,0.6834,0.6154,0.5001,0.4952,0.4529,0.3822,0.3784,0.3788,0.3794,0.379,0.385,0.4048,0.0,0.0,0.0,0.0,0.6979,0.6979,0.6979,0.6979,0.6999,0.6983,0.0,0.0,0.0,0.0,0.0,0.0,0.0,1.0296,1.031,1.1039,1.2088,1.3477,1.3489,1.3437,1.4299,1.4096,1.3667,1.3205,1.3622,1.4183,1.4586,1.4757,0.0,0.0,0.0,1.3528,1.3235,1.2623,1.2205,1.2205,1.1961,1.1655,1.1281,1.158,1.1569,1.1067,1.1763,1.2266,1.2378,1.2778,1.3192,0.0,0.0,0.0,0.0,0.0,0.0,0.0,0.0,0.0,0.0,0.0,0.0,0.0,0.0,0.0,0.0,0.0,0.0,0.0,0.0,0.0,0.0,0.0,0.0,0.0,0.0,0.0,0.0,0.237,0.3751,0.3829,0.3792,0.3792,0.0,0.0,0.0,0.0,0.0,0.0,0.5194,0.6187,0.6842,0.7092,0.7637,0.7922,0.8043,0.8043,0.7785,0.7246,0.7086,0.6381,0.5182,0.509,0.4665,0.4073,0.401,0.3852,0.3577,0.3447,0.3396,0.3529,0.4202,0.5594,0.7208,0.7055,0.7022,0.7003,0.6986,0.6993,0.7154,0.8187,0.8443,0.8293,0.796,0.0,0.0,0.0,0.0,1.0987,1.0954,1.192,1.3493,1.5953,1.5229,1.4365,1.5424,1.5658,1.5246,1.3873,1.4192,1.4752,1.5045,1.4919,0.0,1.4797,1.397,1.3298,1.3129,1.2516,1.2102,1.2102,1.1918,1.1595,1.1096,1.1521,1.1707,1.1486,1.1995,1.251,1.2995,1.3067,1.3261,1.3584,0.0,0.0,0.0,0.0,0.0,0.0,0.0,0.0,0.0,0.0,0.0,0.0,0.0,0.0,0.0,0.0,0.0,0.0,0.0,0.0,0.0,0.0,0.0,0.0,0.0,0.0,0.0,0.0,0.0,0.3924,0.3846,0.0,0.0,0.0,0.0,0.4789,0.4957,0.5357,0.6095,0.6733,0.708,0.7098,0.7637,0.807,0.835,0.835,0.812,0.7682,0.7682,0.687,0.5458,0.5458,0.5,0.4184,0.4177,0.3961,0.3614,0.358,0.4356,0.5625,0.6477,0.7253,0.7794,0.7206,0.6982,0.7019,0.7007,0.6988,0.7619,1.1361,1.0115,0.7457,0.9522,1.1378,0.0,0.0,1.148,1.2761,1.2785,1.2845,1.3531,1.5947,1.6426,1.6333,1.6417,1.6348,1.5905,1.466,1.3985,1.3885,1.4838,0.0,1.4797,1.4797,1.4199,1.355,1.2914,1.2231,1.1826,1.1826,1.1805,1.179,1.1745,1.1775,1.1903,1.2123,1.242,1.2722,1.2995,1.3243,1.3445,1.3601,1.3584,0.0,0.0,0.0,0.0,0.0,0.0,0.0,0.0,0.0,0.0,0.0,0.0,0.0,0.0,0.0,0.0,0.0,0.0,0.0,0.0,0.0,0.0,0.0,0.0,0.0,0.0,0.0,0.0,0.3996,0.4005,0.0,0.4026,0.3995,0.4035,0.4323,0.4718,0.5151,0.5572,0.6645,0.7327,0.7493,0.8127,0.8544,0.8651,0.8651,0.8593,0.8427,0.7943,0.7337,0.6725,0.6072,0.5259,0.4378,0.4386,0.4295,0.4346,0.62,0.6762,0.6654,0.7747,0.8307,0.866,1.0208,0.9444,0.7603,0.7564,0.8381,0.9823,1.2126,1.1955,1.0922,1.1731,1.2428,1.2757,1.2171,1.2443,1.2903,1.2899,1.4025,1.5445,1.6281,1.6498,1.6484,1.6498,1.6439,1.6414,1.6323,1.5959,1.5683,1.5641,1.5536,1.5304,1.4857,1.4229,1.3555,1.2891,1.2591,1.2291,1.185,1.1805,1.1805,1.1805,1.1805,1.1982,1.2435,1.2553,1.2797,1.3226,1.3346,1.3462,1.3601,1.4237,1.4472,0.0,0.0,0.0,0.0,0.0,0.0,0.0,0.0,0.0,0.0,0.0,0.0,0.0,0.0,0.0,0.0,0.0,0.0,0.0,0.0,0.0,0.0,0.0,0.0,0.0,-0.032,0.2145,0.4078,0.4267,0.4294,0.4395,0.4307,0.4348,0.461,0.5027,0.5588,0.6308,0.7105,0.7771,0.8367,0.8637,0.8851,0.8951,0.8858,0.8804,0.8804,0.8321,0.7824,0.7374,0.672,0.5941,0.5209,0.4703,0.4476,0.4706,0.7609,0.8353,0.771,0.847,0.8783,0.9092,1.1334,1.1093,0.9501,0.9056,1.0031,1.1676,1.2602,1.2898,1.2894,1.2919,1.2919,1.2914,1.2898,1.2912,1.3094,1.3918,1.5303,1.65,1.6485,1.648,1.6522,1.6522,1.6522,1.6595,1.6951,1.6987,1.6916,1.6675,1.6344,1.5949,1.5515,1.4707,1.3974,1.3535,1.3271,1.2867,1.2209,1.2134,1.2044,1.182,1.1999,1.2274,1.2588,1.2815,1.31,1.3445,1.3462,1.3573,1.3813,1.538,1.5891,1.5342,0.0,0.0,0.0,0.0,0.0,0.0,0.0,0.0,0.0,0.0,0.0,0.0,0.0,0.0,0.0,0.0,0.0,0.0,0.0,0.0,0.0,0.0,0.0,-0.4291,-0.1902,0.1057,0.4027,0.4611,0.4783,0.4841,0.4773,0.4991,0.5731,0.5893,0.6644,0.824,0.8063,0.8393,0.9615,0.9077,0.8911,0.9176,0.8904,0.8811,0.8804,0.8804,0.8309,0.7433,0.7433,0.7171,0.6583,0.5213,0.4628,0.487,0.7664,0.8811,0.8784,0.8786,0.883,0.9006,1.0334,1.1683,1.2657,1.1283,1.1692,1.2849,1.2899,1.292,1.2881,1.2881,1.2881,1.2881,1.2891,1.2881,1.3463,1.587,1.6496,1.6511,1.6492,1.6522,1.6522,1.6522,1.6522,1.6522,1.6552,1.685,1.7297,1.7798,1.7265,1.6756,1.6726,1.5665,0.0,1.4797,1.4229,1.357,1.2906,1.2831,1.2576,1.188,1.2441,1.2726,1.262,1.3231,1.3579,1.3603,1.3617,1.3813,1.4232,1.6874,1.8033,1.761,0.0,0.0,0.0,0.0,0.0,0.0,0.0,0.0,0.0,0.0,0.0,0.0,0.0,0.0,0.0,0.0,0.0,0.0,0.0,0.0,0.0,-0.4157,-0.4011,-0.4455,-0.1929,0.0296,0.1152,0.2843,0.4261,0.5154,0.5082,0.5071,0.525,0.5254,0.5695,0.6754,0.7234,0.7635,0.7946,0.8806,0.8896,0.8137,0.857,0.8775,0.8804,0.8804,0.8646,0.8421,0.8421,0.8315,0.8156,0.7794,0.7611,0.7659,0.848,0.8824,0.8798,0.8783,0.9377,1.034,1.1057,1.1625,1.2033,1.1474,1.1567,1.199,1.2656,1.291,1.2881,1.2881,1.2881,1.2881,1.2915,1.291,1.3474,1.5854,1.651,1.6495,1.6498,1.6522,1.6522,1.6522,1.6522,1.671,1.7504,1.7771,1.7719,1.739,1.7774,1.7817,1.6861,1.6398,1.583,1.4917,1.4633,1.4274,1.36,1.3525,1.3256,1.2591,1.2696,1.2726,1.262,1.2908,1.3256,1.3586,1.3736,1.4337,1.5411,1.6405,1.7199,0.0,0.0,0.0,0.0,0.0,0.0,0.0,0.0,0.0,0.0,0.0,0.0,0.0,0.0,0.0,0.0,0.0,0.0,0.0,0.0,0.0,0.0,-0.4481,-0.4046,-0.2806,-0.1081,0.0,0.0,0.1206,0.3044,0.5514,0.5575,0.5423,0.5413,0.5335,0.5643,0.6455,0.7125,0.7511,0.7572,0.8836,0.9105,0.8166,0.8757,0.903,0.8985,0.9113,0.9052,0.8804,0.8804,0.8804,0.8804,0.8804,0.8804,0.8804,0.8804,0.8804,0.8804,0.0,0.0,0.0,0.0,1.1674,1.2236,1.211,1.2101,1.2159,1.2715,1.2881,1.2881,1.2881,1.3135,1.3352,1.2965,1.353,1.4425,1.5482,1.6099,1.6497,1.6485,1.6522,1.6522,1.6522,1.6522,1.6752,1.7585,1.7947,0.0,1.7866,1.831,1.8343,1.7279,1.6891,1.6338,1.5364,1.5229,1.4947,1.4288,1.4229,1.3944,1.3271,1.3316,0.0,0.0,0.0,1.3582,1.3934,1.4454,0.0,0.0,0.0,1.7885,1.8844,1.8678,0.0,0.0,1.8136,1.7912,0.0,0.0,0.0,0.0,0.0,0.0,0.0,0.0,0.0,0.0,0.0,0.0,0.0,0.0,0.0,0.0,-0.4356,-0.3442,-0.0425,0.0,0.0,0.0,0.0,0.1534,0.553,0.6026,0.6006,0.5854,0.582,0.61,0.694,0.7493,0.0,0.0,0.0,0.9351,0.879,0.9229,0.9387,0.9236,0.9486,0.9323,0.8798,0.8798,0.8785,0.8804,0.8804,0.8804,0.8804,0.8804,0.8804,0.8804,0.8784,0.8881,0.9167,1.0556,1.184,1.2881,1.2881,0.0,0.0,1.2881,1.2881,1.2881,1.2881,1.3402,1.3841,1.3165,1.4286,1.5492,1.4815,1.5417,1.6252,1.6287,1.6337,1.638,1.638,1.6466,1.668,1.7188,1.7747,1.8263,1.8817,1.8847,1.8568,1.7802,1.7189,1.6562,1.5903,1.5799,1.5574,1.4989,1.4902,0.0,1.3974,1.4135,1.4117,1.3744,1.4178,1.4516,1.4678,1.5577,1.6536,1.7568,1.8398,1.9277,2.015,2.0041,1.9943,1.9775,1.8141,1.7783,0.0,0.0,0.0,0.0,0.0,0.0,0.0,0.0,0.0,0.0,0.0,0.0,0.0,0.0,0.0,-0.2793,-0.367,-0.3437,-0.0459,0.0,0.0,0.0,0.0,0.0981,0.3463,0.5237,0.6207,0.6239,0.5942,0.6194,0.7155,0.7981,0.8348,0.8173,0.8657,0.8949,0.8795,0.949,0.9814,0.9599,0.9151,0.0,0.879,0.879,0.8788,0.8804,0.8804,0.8804,0.8804,0.8804,0.8804,0.8791,0.8824,0.9438,1.0578,1.1963,1.2647,1.2881,1.2881,1.2881,1.2881,1.2881,1.2881,1.2881,1.2881,1.2998,0.0,1.345,1.3502,1.3587,1.4112,1.4398,1.4671,1.4994,1.5421,1.5764,1.5764,1.6151,1.668,1.7188,1.7747,1.8263,1.8817,1.9229,1.9091,1.7876,1.7578,1.7101,1.5948,1.5799,1.5754,1.5619,1.5619,1.5349,1.4648,1.4641,1.4623,1.4499,1.5369,1.6063,1.64,1.681,1.7178,1.7503,1.8469,1.9073,1.9324,1.9773,1.9993,1.9944,1.9382,1.9124,0.0,0.0,0.0,0.0,0.0,0.0,0.0,0.0,0.0,0.0,0.0,-0.5493,-0.5311,0.0,-0.4758,-0.4487,-0.3204,-0.1713,-0.0242,0.0,0.0,0.0,0.0,0.0401,0.1455,0.4574,0.651,0.6491,0.6274,0.6363,0.6738,0.7526,0.7904,0.7776,0.8816,0.9376,0.9444,1.0168,1.0408,1.012,0.9834,0.9369,0.8814,0.8814,0.8821,0.8795,0.8773,0.8806,0.8821,0.8825,0.8804,0.8804,0.8823,0.92,1.0038,1.2153,1.292,1.291,1.29,1.2881,1.2881,1.2881,1.2881,1.292,1.3135,1.3193,1.3281,1.3772,1.377,1.3738,1.4159,1.4297,1.4466,1.4663,1.5141,1.5588,1.5588,1.6051,1.668,1.7188,1.7747,1.8263,1.8817,1.9332,1.9241,1.7891,1.7697,1.7251,1.5963,1.5799,1.5799,1.5799,1.558,1.5316,1.4964,1.4767,1.4806,1.5176,1.5708,1.6322,1.7076,1.7687,1.8091,1.8298,1.9197,1.9675,1.9697,2.0404,2.0718,2.0651,2.0853,2.0661,0.0,0.0,0.0,0.0,0.0,0.0,0.0,-0.8429,-0.8066,-0.6771,-0.6569,-0.6444,-0.5892,-0.6002,-0.6238,-0.6659,-0.367,-0.0985,-0.0084,0.0,0.0,0.0,0.0,0.0,0.0,0.3701,0.6244,0.6605,0.6614,0.6478,0.6393,0.7042,0.7434,0.7326,0.9053,1.0003,1.0031,1.0712,1.0883,1.058,1.0573,1.0106,0.91,0.845,0.8119,0.8142,0.804,0.8285,0.8783,0.8799,0.8797,0.881,0.8819,0.8916,0.9401,1.1345,1.242,1.289,1.2905,1.2908,1.2939,1.3086,1.3018,1.2969,1.3477,1.3574,1.3574,1.3863,1.4102,1.4192,1.4148,1.4244,1.4387,1.4525,1.5005,1.5454,1.5588,1.6051,1.668,1.7188,1.7747,1.8263,1.865,1.9281,1.9241,1.7891,1.7697,1.7251,1.5963,1.5712,1.5668,1.5668,1.5255,1.4968,1.4968,1.4819,1.5071,1.588,1.6091,1.6675,1.7694,1.8535,1.9079,1.93,1.9937,2.0262,2.027,2.1034,2.134,2.1257,2.2009,2.1948,-1.3424,-1.22,-1.0843,-1.0595,-1.0074,-0.994,0.0,-1.016,-0.9139,-0.846,-0.7729,-0.7032,-0.6377,-0.6315,-0.6544,-0.6747,-0.6357,-0.4624,-0.0602,0.0,0.0,0.0,0.0,0.0,0.0,0.2373,0.4737,0.6652,0.6682,0.6725,0.6848,0.7539,0.7823,0.7563,0.9385,1.0178,0.995,1.0673,1.0902,1.0566,1.0593,1.0503,1.0301,0.7192,0.5767,0.5735,0.5236,0.6433,0.8814,0.8786,0.8806,0.8813,0.8825,0.9458,1.0315,0.9542,1.0786,1.2924,1.2905,1.289,1.3023,1.3733,1.3486,1.3027,1.3818,1.3799,1.3516,1.3564,1.3596,1.3509,1.3135,1.3095,1.3248,1.3779,1.4376,1.4971,1.5499,1.6051,1.668,1.7188,1.7747,1.8145,1.8185,1.9043,1.9241,1.7891,1.7697,1.7251,1.5963,1.5448,1.5165,1.5165,1.4814,1.4564,1.4564,1.5139,1.5849,1.6703,1.7544,1.8419,1.9303,1.9725,1.9991,2.0077,2.01,2.0129,2.0123,2.0762,2.1041,2.1054,2.2152,2.238,-1.302,-1.2363,-1.1784,-1.1047,-1.0889,-1.1082,-1.157,-1.1283,-1.0779,-1.0228,-0.9275,-0.8421,-0.7793,-0.7184,-0.6817,-0.7149,-0.7112,-0.6422,-0.4403,-0.1707,0.0,0.0,0.0,0.0,0.0,0.0876,0.3057,0.6728,0.6939,0.6956,0.6926,0.7044,0.7307,0.7857,0.867,0.9506,1.0154,1.124,1.1695,1.1604,1.0931,1.0629,1.0455,0.7008,0.5378,0.5377,0.5146,0.6852,0.986,0.9865,0.9845,0.984,0.984,1.0166,1.0559,1.0022,1.0561,1.1551,1.1543,1.1562,1.178,1.305,1.3252,1.3146,1.4218,1.4043,1.3613,1.4111,1.3711,1.3164,1.3232,1.3066,1.2968,1.3238,1.4014,1.4744,1.5017,1.5832,1.6552,1.6795,1.7504,1.8106,1.8106,1.9006,1.9375,1.8433,1.8298,1.7706,1.6167,1.6062,1.5825,1.4955,1.4449,1.4246,1.447,1.4957,1.5887,1.7332,1.8014,1.8801,1.9797,2.0042,2.0182,2.0264,2.0416,2.0516,2.0522,2.1438,2.1872,2.1874,2.2757,2.2948,-1.3139,-1.2844,-1.2781,-1.1737,-1.1864,-1.2258,-1.2338,-1.2418,-1.2316,-1.1762,-1.0713,-0.9688,-0.903,-0.7888,-0.7183,-0.74,-0.7414,-0.7309,-0.7227,-0.3763,-0.1266,-0.1055,-0.0442,0.0,0.0,0.0,0.1698,0.5827,0.6718,0.7094,0.699,0.6739,0.6898,0.7648,0.7683,0.819,0.917,1.1241,1.2284,1.2285,1.0306,0.9444,0.9355,0.663,0.5389,0.538,0.537,0.6863,0.9152,0.9162,0.9714,1.0526,0.9562,0.9754,1.0595,1.0611,1.0573,1.0588,1.0617,1.0709,1.1005,1.2352,1.275,1.2855,1.3987,1.3736,1.3203,1.3801,1.3417,1.2838,1.301,1.2947,1.2929,1.3104,1.3931,1.4744,1.4926,1.5788,1.6552,1.668,1.7463,1.8106,1.8106,1.9006,1.9474,1.8856,1.8867,1.8282,1.6355,1.6193,1.5848,1.4673,1.4185,1.4073,1.4324,1.4807,1.5833,1.7515,1.8195,1.8988,2.0002,2.0064,2.0176,2.0435,2.0535,2.0669,2.086,2.188,2.231,2.2213,2.2683,2.2674,-1.4235,-1.3884,-1.3663,-1.2919,-1.2933,-1.324,-1.3527,-1.3814,-1.3756,-1.297,-1.1701,-1.0527,-0.9644,-0.84,-0.7584,-0.759,-0.7468,-0.738,-0.74,-0.5801,-0.4372,-0.3566,-0.1402,0.0,0.0,0.0,0.1072,0.3481,0.5813,0.7068,0.7136,0.6907,0.6759,0.6781,0.6473,0.6394,0.6426,1.0368,1.2286,1.227,0.8342,0.6438,0.6401,0.5698,0.537,0.5402,0.5372,0.5433,0.5566,0.5528,0.7574,1.0264,0.6861,0.7595,1.0597,1.0631,1.058,1.0595,1.0588,1.0888,1.1409,1.2001,1.1998,1.1922,1.2769,1.253,1.1942,1.1958,1.2251,1.2398,1.1991,1.2353,1.3065,1.3637,1.4236,1.488,1.5454,1.6051,1.6637,1.7146,1.7706,1.8106,1.8106,1.9006,1.9515,1.8991,1.9339,1.8802,1.6413,1.5311,1.4611,1.4158,1.4096,1.4047,1.3908,1.4814,1.5894,1.7139,1.8276,1.9273,2.0168,1.9882,2.0048,2.076,2.028,2.0334,2.0996,2.1683,2.1803,2.1416,2.1373,2.115,-1.4471,-1.4371,-1.4453,-1.383,-1.3861,-1.4208,-1.4696,-1.4736,-1.4661,-1.4572,-1.2955,-1.1464,-1.1112,-0.9289,-0.7884,-0.7998,-0.7717,-0.7495,-0.7417,-0.705,-0.6498,-0.5996,-0.5245,-0.3487,-0.0345,0.0,0.0353,0.116,0.4842,0.7104,0.7074,0.7024,0.7001,0.6943,0.6566,0.6289,0.628,0.7621,0.828,0.8345,0.692,0.6336,0.6311,0.6072,0.58,0.5444,0.5839,0.6022,0.5974,0.5549,0.6123,0.7025,0.5849,0.7519,1.0613,1.0611,1.0581,1.062,1.062,1.0684,1.0986,1.1697,1.1836,1.1895,1.2744,1.2489,1.1944,1.2151,1.1956,1.1773,1.2068,1.2307,1.26,1.3066,1.3647,1.4283,1.488,1.5466,1.6083,1.6667,1.7504,1.7987,1.7626,1.8727,1.9406,1.8496,1.8219,1.7953,1.7483,1.5553,1.4328,1.4534,1.4147,1.4101,1.4527,1.563,1.6836,1.8052,1.8955,1.9648,2.0102,1.9384,1.9188,1.9664,1.9668,1.9935,2.0556,2.0988,2.1139,2.0993,2.0352,1.9596,-1.5215,-1.5119,-1.5108,-1.4708,-1.4776,-1.509,-1.5464,-1.5404,-1.5297,-1.5378,-1.3629,-1.2114,-1.2021,-0.982,-0.8016,-0.8069,-0.7558,-0.7149,-0.7224,-0.7259,-0.7346,-0.7278,-0.6457,-0.466,-0.1589,-0.0532,0.0,0.0,0.2817,0.5289,0.7009,0.7139,0.7065,0.7118,0.6803,0.6615,0.6617,0.6576,0.6552,0.6623,0.6361,0.6298,0.6266,0.6289,0.6106,0.5751,0.5885,0.6128,0.6226,0.5675,0.5403,0.5422,0.5418,0.6746,0.882,0.9186,0.9344,0.9494,1.0295,1.0624,1.0688,1.1226,1.1344,1.1469,1.1965,1.1757,1.1291,1.1529,1.1269,1.1054,1.1489,1.1861,1.2217,1.2469,1.316,1.3956,1.456,1.5186,1.5776,1.638,1.7188,1.7706,1.7353,1.8341,1.8893,1.8224,1.7658,1.7431,1.7773,1.5924,1.4797,1.5332,1.5041,1.5026,1.5721,1.6705,1.7814,1.9128,1.953,1.9784,1.9876,1.8838,1.8393,1.871,1.8735,1.9042,1.9652,1.9857,1.9885,1.9714,1.8709,1.7763,-1.6558,-1.6162,-1.5755,-1.546,-1.5625,-1.5832,-1.5832,-1.5818,-1.5725,-1.5431,-1.3873,-1.2499,-1.214,-0.9962,-0.8102,-0.7928,-0.7096,-0.6555,-0.6902,-0.6851,-0.6973,-0.7526,-0.5413,-0.3721,-0.3595,-0.1403,0.0,0.0,0.0,0.1963,0.649,0.6694,0.6818,0.7059,0.7102,0.7139,0.7093,0.7069,0.7067,0.7064,0.6511,0.6271,0.6335,0.6266,0.6277,0.6237,0.5721,0.5741,0.6226,0.5654,0.5368,0.5422,0.538,0.5429,0.5625,0.6672,0.7131,0.7459,0.9697,1.0498,1.0498,1.0498,1.0498,1.0498,1.0498,1.0223,0.9992,0.9992,1.0034,1.0166,1.0206,1.0946,1.1683,1.1715,1.2745,1.3862,1.4468,1.5096,1.5688,1.6281,1.6769,1.7133,1.7216,1.7612,1.792,1.8013,1.7531,1.7175,1.7312,1.6322,1.5881,1.6415,1.6454,1.6725,1.7386,1.7876,1.8823,2.0308,2.0063,1.9756,1.9507,1.8228,1.7572,1.7687,1.7352,1.7539,1.8218,1.8284,1.8101,1.7671,1.652,1.5764,-1.7598,-1.7484,-1.7274,-1.6007,-1.5772,-1.5832,-1.5832,-1.5665,-1.5424,-1.5137,-1.3992,-1.2885,-1.2376,-1.1158,-0.9917,-0.8918,-0.8674,-0.8271,-0.7502,-0.7584,-0.7634,-0.7653,-0.7227,-0.6021,-0.3826,-0.1426,0.0,0.0,0.0,0.0565,0.1741,0.1839,0.3464,0.6956,0.7078,0.7132,0.7101,0.6678,0.6529,0.6528,0.64,0.6314,0.6285,0.6325,0.627,0.6287,0.6156,0.5899,0.559,0.5448,0.5395,0.5425,0.5415,0.5935,0.665,0.6776,0.7228,0.7882,0.8474,0.8672,0.8672,0.8672,0.8672,0.8672,0.8672,0.8439,0.8186,0.8303,0.8198,0.8259,0.9239,0.9663,1.0068,1.0871,1.1706,1.2492,1.3158,1.3784,1.4457,1.5017,1.4869,1.5025,1.6321,1.5588,1.5292,1.6621,1.599,1.584,1.7133,1.5948,1.5178,1.5776,1.5962,1.6574,1.7835,1.8721,1.9963,2.1752,2.103,2.0241,1.9597,1.759,1.5609,1.3744,1.4137,1.4363,1.4332,1.5421,1.6157,1.6478,1.5022,1.4014,-1.9054,-1.8737,-1.8386,-1.6505,-1.6025,-1.5892,-1.5371,-1.5231,-1.4977,-1.4162,-1.3367,-1.2625,-1.2031,-1.0773,-0.9552,-0.8817,-0.8218,-0.7681,-0.7355,-0.7502,-0.7651,-0.777,-0.7935,-0.7388,-0.5691,-0.2149,0.0,0.0,0.0,0.0,0.0,0.0,0.1216,0.3904,0.3993,0.3956,0.3967,0.3676,0.3549,0.3572,0.3502,0.3563,0.3517,0.3517,0.3569,0.3526,0.3497,0.3325,0.3119,0.4728,0.5395,0.5376,0.5372,0.5763,0.6354,0.621,0.6465,0.6846,0.6759,0.6785,0.699,0.7767,0.7955,0.7874,0.7874,0.7719,0.7603,0.7629,0.7439,0.7349,0.8117,0.8367,0.8657,0.9273,0.9944,1.0689,1.1675,1.2173,1.2599,1.3236,1.3027,1.2977,1.363,1.2933,1.2758,1.4078,1.3754,1.3672,1.4664,1.4722,1.4915,1.5508,1.6245,1.7255,1.8558,1.9889,2.1331,2.2862,2.1909,2.0686,1.9342,1.7155,1.4558,1.1547,1.1595,1.1223,1.045,1.1621,1.2388,1.2731,1.2177,1.1773,-2.0696,-1.9957,-1.9237,-1.71,-1.6461,-1.5965,-1.479,-1.4777,-1.4602,-1.3212,-1.2594,-1.2209,-1.1607,-0.995,-0.8575,-0.8531,-0.7526,-0.6798,-0.7214,-0.7326,-0.7523,-0.7974,-0.7955,-0.7972,-0.7985,-0.351,-0.0702,-0.1009,-0.0404,0.0,0.0,0.0,0.0,0.0,0.0,0.0,0.0,0.0,0.0,0.0,0.0,0.0,0.0,0.0,0.0,0.0,0.0,0.0,0.0217,0.3376,0.466,0.4709,0.4973,0.5173,0.5376,0.5411,0.5401,0.5311,0.5159,0.5179,0.5603,0.7126,0.7482,0.7409,0.7384,0.7374,0.7326,0.7215,0.7011,0.68,0.6766,0.6978,0.7233,0.7399,0.7958,0.8761,0.9918,1.0455,1.0748,1.0795,1.0712,1.0442,0.9787,0.9581,0.9909,1.0982,1.1049,1.1106,1.1328,1.299,1.4413,1.5027,1.6462,1.796,1.9423,2.1045,2.2495,2.3648,2.2516,2.091,1.8924,1.6543,1.3613,1.013,0.9141,0.8044,0.6767,0.7578,0.8069,0.8395,0.8978,0.9306,-2.2677,-2.1807,-2.0937,-1.8499,-1.7126,-1.5965,-1.479,-1.4871,-1.4921,-1.3672,-1.315,-1.28,-1.2138,-1.1397,-1.074,-1.0363,-1.0312,-0.999,-0.9128,-0.9087,-0.8829,-0.811,-0.8041,-0.7952,-0.7975,-0.512,-0.4219,-0.648,-0.2518,0.0,0.0,0.0,0.0,0.0,0.0,0.0,0.0,0.0,0.0,0.0,0.0,0.0,0.0,0.0,0.0,0.0,0.0,0.0,0.0072,0.0702,0.0956,0.1068,0.2604,0.4084,0.5428,0.537,0.531,0.5152,0.5082,0.5029,0.498,0.5468,0.5693,0.5829,0.5822,0.559,0.5409,0.5366,0.5323,0.5204,0.5027,0.5011,0.5316,0.6485,0.6876,0.7041,0.7242,0.9152,0.997,0.7229,0.6105,0.5523,0.5345,0.484,0.5492,0.8444,0.8286,0.8435,1.0004,1.0872,1.1822,1.289,1.4383,1.6665,1.9955,2.1316,2.252,2.3789,2.2254,2.0475,1.8553,1.4661,1.0874,0.7189,0.5316,0.4217,0.3902,0.4676,0.5944,0.7674,0.7256,0.7401,-2.3684,-2.3152,-2.2391,-1.9244,-1.7911,-1.6907,-1.5241,-1.4789,-1.4621,-1.3762,-1.3051,-1.252,-1.2093,-1.11,-1.0335,-1.0283,-0.997,-0.9572,-0.911,-0.8901,-0.8991,-0.9323,-0.8517,-0.8035,-0.8028,-0.6819,-0.6637,-0.7902,-0.3012,0.0,0.0,0.0,0.0,0.0,0.0,0.0,0.0,0.0,0.0,0.0,0.0,0.0,0.0,0.0,0.0,0.0,0.0,0.0,0.0,0.0,0.0,0.0067,0.0936,0.2947,0.5376,0.5417,0.4759,0.3951,0.4716,0.4953,0.4723,0.3845,0.4279,0.5023,0.4259,0.387,0.3714,0.3545,0.3496,0.348,0.3355,0.2717,0.2323,0.298,0.3452,0.3755,0.3755,0.4816,0.5161,0.3151,0.2081,0.1333,0.0956,0.0587,0.1067,0.3106,0.3398,0.3741,0.4632,0.5326,0.7114,1.0871,1.0763,1.2968,1.9326,2.1621,2.2922,2.3394,2.2486,2.0149,1.6168,1.3376,0.9289,0.3673,0.2655,0.1366,-0.0164,0.0926,0.223,0.3587,0.4031,0.4865,-2.4625,-2.417,-2.3305,-2.0198,-1.8859,-1.7751,-1.5688,-1.5035,-1.4708,-1.4122,-1.3267,-1.2593,-1.2469,-1.1192,-1.018,-1.0305,-0.9715,-0.919,-0.9114,-0.8983,-0.9195,-0.9953,-0.9347,-0.8609,-0.8082,-0.8004,-0.8038,-0.7982,-0.4111,-0.1203,-0.0101,0.0,0.0,0.0,0.0,0.0,0.0,0.0,0.0,-0.0,-0.0913,-0.1383,-0.1301,-0.0873,-0.0627,-0.0627,-0.0229,0.0,0.0,0.0,0.0,0.0,0.0,0.1743,0.4367,0.51,0.4238,0.2839,0.36,0.4299,0.4594,0.3168,0.3765,0.4775,0.3658,0.2761,0.204,0.1804,0.1282,0.078,0.078,-0.0111,-0.1055,-0.133,-0.099,-0.0546,-0.0545,-0.0541,-0.0806,-0.1674,-0.2314,-0.2899,-0.3508,-0.3619,-0.3393,-0.2832,-0.2095,-0.1565,-0.1506,-0.119,0.1076,0.6425,0.5932,0.7678,1.383,1.8111,2.0037,1.9143,2.0145,1.8375,1.2973,1.111,0.7322,0.1122,0.06,-0.0826,-0.3317,-0.2159,-0.111,-0.0222,0.1104,0.2367,-2.6229,-2.4896,-2.3145,-2.1951,-1.9967,-1.7809,-1.586,-1.6028,-1.6368,-1.5528,-1.4639,-1.4116,-1.4568,-1.3347,-1.2356,-1.2424,-1.213,-1.1603,-1.0806,-1.0673,-1.0055,-0.8472,-1.0197,-1.0649,-0.8255,-0.796,-0.7994,-0.7969,-0.7572,-0.5129,-0.0301,0.0,0.0,0.0,0.0,0.0,0.0,0.0,0.0,-0.0084,-0.3878,-0.5728,-0.5641,-0.3722,-0.2812,-0.2731,-0.0838,0.0,0.0,0.0,0.0,0.0,0.0,0.0201,0.0868,0.4186,0.4261,0.2456,0.095,0.2254,0.4495,0.4366,0.4783,0.5301,0.521,0.2832,0.0234,0.0226,-0.1796,-0.3893,-0.3884,-0.3996,-0.4386,-0.5665,-0.5936,-0.5918,-0.5878,-0.5914,-0.6293,-0.7658,-0.7937,-0.8013,-0.8072,-0.8111,-0.8059,-0.8013,-0.7289,-0.6632,-0.6493,-0.7259,-0.6536,-0.3313,-0.0394,0.0418,-0.1736,0.5937,0.9585,0.6578,1.1732,1.319,0.9436,0.6407,0.3597,0.1069,-0.0933,-0.2332,-0.3317,-0.3166,-0.2389,-0.0998,-0.0167,0.0277,-2.5859,-2.5145,-2.3825,-2.2307,-2.0411,-1.8527,-1.7001,-1.6629,-1.6612,-1.6656,-1.5585,-1.468,-1.4843,-1.3744,-1.2692,-1.2236,-1.2056,-1.1675,-1.0825,-1.0992,-1.1535,-1.2592,-1.3647,-1.3832,-1.2813,-0.987,-0.798,-0.8048,-0.7955,-0.7039,-0.4906,-0.4783,-0.4695,-0.4275,-0.424,-0.2872,-0.0,-0.2827,-0.4118,-0.3774,-0.4193,-0.5033,-0.6283,-0.5398,-0.5018,-0.4932,-0.3973,-0.2853,-0.1778,-0.0498,-0.0625,-0.1511,-0.0406,0.0,0.02,0.1597,0.1683,0.0978,0.0233,0.1985,0.389,0.0279,-0.0739,-0.0232,0.1607,0.1144,-0.0399,-0.2201,-0.3551,-0.4518,-0.4514,-0.4945,-0.5538,-0.641,-0.6885,-0.7182,-0.7213,-0.7888,-0.8626,-0.9169,-0.9946,-1.0485,-1.0529,-1.0831,-1.098,-1.0572,-0.9847,-0.9211,-0.8727,-0.8982,-0.8947,-0.8209,-0.8672,-0.7513,-0.3807,-0.1742,0.0092,0.1816,0.3943,0.393,0.1193,0.029,-0.1414,-0.4111,-0.3724,-0.4097,-0.5303,-0.4446,-0.3453,-0.2389,-0.2114,-0.1498,-2.5146,-2.502,-2.4468,-2.2875,-2.1058,-1.9477,-1.8211,-1.7395,-1.6995,-1.7484,-1.6367,-1.5287,-1.5408,-1.4504,-1.3364,-1.2328,-1.2298,-1.2021,-1.0959,-1.1001,-1.2029,-1.4509,-1.5403,-1.5825,-1.5838,-1.1104,-0.7977,-0.8035,-0.8038,-0.8038,-0.8038,-0.8021,-0.7702,-0.7111,-0.7126,-0.551,-0.2157,-0.5387,-0.6874,-0.6505,-0.4967,-0.4941,-0.6413,-0.6337,-0.6325,-0.6278,-0.5977,-0.5124,-0.3793,-0.2277,-0.2083,-0.2615,-0.1896,-0.1202,-0.0659,-0.0634,-0.0679,-0.0665,-0.0635,0.0734,0.1793,-0.2464,-0.4107,-0.4107,-0.1961,-0.1008,-0.1119,-0.3205,-0.4333,-0.5056,-0.5605,-0.6073,-0.6637,-0.7611,-0.8168,-0.8619,-0.9013,-0.9883,-1.0664,-1.0814,-1.1626,-1.2455,-1.2912,-1.3299,-1.344,-1.3294,-1.2559,-1.1898,-1.1456,-1.1207,-1.1336,-1.2022,-1.4582,-1.3893,-0.8295,-1.0135,-0.9777,-0.5597,-0.5312,-0.5473,-0.589,-0.4938,-0.5561,-0.8075,-0.5681,-0.5144,-0.6588,-0.5171,-0.4236,-0.3622,-0.3456,-0.267,-2.4316,-2.4571,-2.4571,-2.3881,-2.2294,-2.0536,-1.9472,-1.8555,-1.8008,-1.8008,-1.6963,-1.6201,-1.6578,-1.5945,-1.4864,-1.3252,-1.3401,-1.3241,-1.1596,-1.0959,-1.1062,-1.2219,-1.4393,-1.5763,-1.5805,-1.1106,-0.7977,-0.8035,-0.8038,-0.8038,-0.8038,-0.7997,-0.7711,-0.7115,-0.7066,-0.7119,-0.7027,-0.7078,-0.7101,-0.7098,-0.6847,-0.6698,-0.6556,-0.6549,-0.6393,-0.6254,-0.6108,-0.5885,-0.5663,-0.5751,-0.4551,-0.288,-0.4643,-0.4032,-0.2186,-0.2184,-0.2165,-0.2169,-0.2167,-0.2179,-0.2119,-0.223,-0.3244,-0.4497,-0.4438,-0.3413,-0.2174,-0.2232,-0.4009,-0.6292,-0.8152,-0.815,-0.8109,-1.0179,-1.0681,-1.103,-1.2359,-1.2656,-1.2867,-1.3543,-1.3648,-1.4187,-1.5789,-1.5714,-1.5782,-1.6699,-1.5939,-1.5282,-1.5437,-1.4845,-1.4699,-1.5392,-1.6857,-1.81,-1.8873,-2.0431,-2.0424,-1.8237,-1.6672,-1.4224,-1.0576,-0.871,-0.8214,-0.9252,-0.6048,-0.5144,-0.6588,-0.5171,-0.4519,-0.446,-0.3735,-0.2954,-2.248,-2.2385,-2.2013,-2.1597,-2.0518,-1.9349,-1.8541,-1.836,-1.8359,-1.8066,-1.7217,-1.6562,-1.6709,-1.5571,-1.4327,-1.3646,-1.3324,-1.2587,-1.1096,-1.1396,-1.186,-1.2296,-1.2928,-1.4037,-1.5611,-1.1061,-0.796,-0.798,-0.8018,-0.8038,-0.8038,-0.7994,-0.7919,-0.7714,-0.7729,-0.7489,-0.7099,-0.7057,-0.7029,-0.692,-0.6766,-0.6669,-0.6702,-0.6444,-0.6356,-0.639,-0.6142,-0.5932,-0.5872,-0.5637,-0.5224,-0.4739,-0.4982,-0.4684,-0.416,-0.3878,-0.3773,-0.3754,-0.3786,-0.3786,-0.3863,-0.4515,-0.5073,-0.5529,-0.5841,-0.5576,-0.5419,-0.6367,-0.7198,-0.8174,-0.9651,-0.9913,-1.0128,-1.167,-1.2712,-1.3398,-1.3847,-1.4575,-1.521,-1.5421,-1.5794,-1.6325,-1.7116,-1.753,-1.782,-1.7963,-1.7716,-1.7366,-1.6983,-1.6821,-1.6833,-1.7035,-1.8247,-1.9185,-1.9559,-2.153,-2.2377,-2.1562,-2.1358,-1.9993,-1.7179,-1.5645,-1.4173,-1.2665,-1.0433,-0.8615,-0.7304,-0.6811,-0.6122,-0.5164,-0.4453,-0.4015,-2.0859,-2.1191,-2.1222,-2.0817,-2.0017,-1.9167,-1.8595,-1.8417,-1.832,-1.8057,-1.7461,-1.6908,-1.6889,-1.5851,-1.4646,-1.3626,-1.3639,-1.305,-1.0873,-1.1581,-1.2618,-1.3542,-1.3585,-1.4166,-1.5678,-1.2844,-1.0138,-0.815,-0.7987,-0.8018,-0.8038,-0.7987,-0.8038,-0.8,-0.7955,-0.7705,-0.7079,-0.7211,-0.7155,-0.692,-0.6912,-0.6837,-0.6776,-0.6536,-0.6444,-0.6458,-0.6159,-0.5996,0.0,-0.5621,-0.5456,-0.5399,-0.5097,-0.4958,-0.4894,-0.4654,-0.4558,-0.4495,-0.4514,-0.4646,-0.4971,-0.5567,-0.595,-0.6332,-0.7171,-0.7192,-0.722,-0.8387,-0.9054,-0.9791,-1.113,-1.1816,-1.2455,-1.3776,-1.4822,-1.5572,-1.5801,-1.6464,-1.7031,-1.7209,-1.7571,-1.8018,-1.8797,-1.9154,-1.9415,-1.963,-1.9546,-1.9215,-1.8673,-1.8658,-1.8716,-1.8716,-1.9379,-2.0113,-2.0789,-2.2357,-2.3309,-2.3342,-2.3729,-2.3125,-2.1265,-1.9336,-1.7287,-1.5085,-1.3132,-1.0899,-0.8384,-0.7864,-0.6865,-0.5487,-0.5058,-0.4732,0.0,-2.0674,-2.1514,-2.1103,-2.041,-1.9717,-1.9287,-1.8603,0.0,-1.8018,-1.7656,-1.7344,-1.7193,-1.6687,-1.5632,-1.3509,-1.4221,-1.4011,-1.1099,-1.1793,-1.3385,-1.5565,-1.5803,-1.5798,-1.5777,-1.5785,-1.3756,-0.8943,-0.8252,-0.7977,-0.8031,-0.8004,-0.7993,-0.8035,-0.8004,-0.7753,-0.7117,-0.727,-0.7302,-0.7139,-0.7129,-0.7061,-0.6939,-0.6763,-0.6614,-0.6471,-0.6176,-0.5952,-0.5789,-0.5657,-0.5416,-0.5128,-0.5121,-0.4942,-0.4803,-0.4735,-0.4695,-0.4625,-0.4625,-0.5058,-0.5597,-0.5701,-0.6249,-0.7063,-0.8416,-0.8351,-0.7917,-0.877,-0.9913,-1.1236,-1.2686,-1.3829,-1.4967,-1.6213,-1.6944,-1.7505,-1.8078,-1.8249,-1.8454,-1.8867,-1.8979,-1.9373,-2.0622,-2.0556,-2.0588,-2.1505,-2.1337,-2.0927,-2.044,-2.0325,-2.0307,-2.0325,-2.0291,-2.0925,-2.2427,-2.3,-2.3479,-2.3942,-2.4249,-2.4038,-2.3149,-2.0466,-1.8267,-1.6686,-1.4421,-1.2166,-0.9929,-0.8469,-0.7009,-0.5647,-0.5538,-0.5164,-1.8379,0.0,-1.8896,-1.8789,-1.8857,-1.8828,0.0,-1.8408,-1.8398,-1.8076,-1.7583,-1.7328,-1.7684,-1.7145,-1.6239,-1.5024,-1.3065,-1.1774,-1.191,-1.3664,-1.5143,-1.5694,-1.5812,-1.5798,-1.58,-1.5752,-1.5281,-1.4057,-1.0236,-0.796,-0.7974,-0.7984,-0.8004,-0.8038,-0.8004,-0.7764,-0.7312,-0.7373,-0.7315,-0.7139,-0.7031,-0.7017,-0.7078,-0.6698,-0.6569,-0.663,-0.6335,-0.6051,-0.58,-0.5766,-0.5508,-0.5121,-0.5009,-0.521,-0.5526,-0.5386,-0.5639,-0.61,-0.61,-0.6204,-0.6524,-0.7623,-0.8423,-0.9228,-1.0041,-0.9775,-0.9511,-1.1329,-1.2377,-1.3408,-1.5093,-1.5768,-1.6243,-1.7423,-1.8387,-1.9067,-1.9207,-1.9803,-2.0335,-2.0452,-2.0485,-2.0668,-2.1289,-2.1319,-2.1475,-2.2032,-2.2049,-2.201,-2.209,-2.1619,-2.1364,-2.1615,-2.1409,-2.1516,-2.2146,-2.2688,-2.3466,-2.4581,-2.4698,-2.4551,-2.4151,-2.27,-2.0998,-1.9049,-1.5706,-1.3324,-1.2055,-0.9969,-0.8352,-0.7074,-0.6018,-0.5164,-1.8008,-1.8154,-1.8252,-1.8057,-1.832,-1.8455,-1.8105,-1.8184,-1.8281,-1.8057,-1.7742,-1.7583,-1.7972,-1.7629,-1.7118,-1.6642,-1.5152,-1.395,-1.389,-1.4991,-1.5979,-1.6544,-1.5678,-1.5259,-1.5725,-1.5798,-1.5836,-1.5794,-1.3191,-1.048,-0.8153,-0.8041,-0.797,-0.8038,-0.7974,-0.7828,-0.7409,-0.7503,-0.7352,-0.7139,-0.7061,-0.7065,-0.7126,-0.7242,-0.7226,-0.723,-0.752,-0.7372,-0.6888,-0.7041,-0.6701,-0.6117,-0.6026,-0.6056,-0.6137,-0.6023,-0.6258,-0.6588,-0.6588,-0.6804,-0.7337,-0.8751,-0.9488,-0.9961,-1.0965,-1.1338,-1.167,-1.2541,-1.3825,-1.5149,-1.6151,-1.6957,-1.7706,-1.8327,-1.9051,-1.9687,-1.9869,-2.0333,-2.0797,-2.1213,-2.1275,-2.1415,-2.184,-2.1928,-2.2003,-2.2254,-2.231,-2.2349,-2.25,-2.2275,-2.2169,-2.2361,-2.2344,-2.2478,-2.2795,-2.3191,-2.3785,-2.4672,-2.4781,-2.4702,-2.4506,-2.3458,-2.1985,-2.0071,-1.6837,-1.4905,-1.4349,-1.2319,-1.0351,-0.8502,-0.7116,-0.591,-1.8086,-1.8467,-1.8701,-1.8144,-1.8281,-1.8447,-1.8086,-1.8008,-1.8008,-1.8008,-1.7969,-1.7969,-1.7998,-1.7979,-1.7987,-1.7975,-1.7827,-1.7158,-1.5778,-1.55,-1.5895,-1.6963,-1.5418,-1.4697,-1.5752,-1.5805,-1.577,-1.5767,-1.5796,-1.3545,-0.8241,-0.8272,-0.83,-0.8035,-0.8014,-0.7866,-0.7409,-0.7503,-0.7444,-0.7139,-0.7139,-0.7129,-0.7099,-0.7819,-0.8052,-0.7845,-0.8808,-0.8814,-0.8243,-0.8433,-0.8068,-0.7289,-0.7289,-0.7084,-0.675,-0.675,-0.6858,-0.6912,-0.6912,-0.7391,-0.8243,-0.9547,-1.0115,-1.0509,-1.1706,-1.2994,-1.3893,-1.3375,-1.4835,-1.6562,-1.6634,-1.7773,-1.893,-1.9006,-1.9427,-1.9909,-2.0314,-2.0449,-2.0748,-2.1552,-2.1718,-2.1823,-2.2237,-2.231,-2.231,-2.231,-2.231,-2.2293,-2.2349,-2.2563,-2.2721,-2.2772,-2.3021,-2.3351,-2.3717,-2.3908,-2.4184,-2.4581,-2.4737,-2.4638,-2.4264,-2.3244,-2.1915,-2.023,-1.799,-1.6677,-1.635,-1.4753,-1.2644,-1.0023,-0.8547,-0.7121,-1.8447,-1.9121,-1.9443,-1.8301,-1.8057,-1.8086,-1.8027,-1.8008,-1.8008,-1.8008,-1.7994,-1.7974,-1.7963,-1.7987,-1.8006,-1.7987,-1.6954,-1.5709,-1.4514,-1.4339,-1.4443,-1.4644,-1.5185,-1.5577,-1.5744,-1.5792,-1.5838,-1.5757,-1.5767,-1.3528,-0.8279,-0.9433,-0.9501,-0.8038,-0.8018,-0.7875,-0.7604,-0.76,-0.7444,-0.7139,-0.7139,-0.7078,-0.6956,-0.7852,-0.7982,-0.7654,-0.85,-0.8588,-0.8233,-0.8268,-0.7867,-0.7289,-0.7289,-0.7421,-0.7509,-0.7509,-0.7937,-0.848,-0.848,-0.889,-0.9599,-1.0415,-1.1399,-1.2473,-1.3273,-1.4343,-1.5297,-1.5207,-1.612,-1.7258,-1.7733,-1.8366,-1.9006,-1.9479,-1.9894,-2.0314,-2.0797,-2.1181,-2.1568,-2.2106,-2.218,-2.2209,-2.2282,-2.231,-2.231,-2.231,-2.231,-2.2388,-2.2625,-2.2669,-2.2822,-2.3093,-2.3165,-2.3401,-2.3909,-2.3969,-2.4302,-2.5051,-2.4915,-2.429,-2.3195,-2.2217,-2.1066,-1.9713,-1.9346,-1.8464,-1.7044,-1.6208,-1.4506,-1.2006,-1.0166,-0.828,-1.8765,-1.9051,-1.9209,-1.8639,-1.8933,-1.9209,-1.8506,-1.8438,-1.8418,-1.8085,-1.7997,-1.8018,-1.8027,-1.8745,-1.936,-1.939,-1.7359,-1.5634,-1.5101,-1.5006,-1.5305,-1.5869,-1.5892,-1.5757,-1.5779,-1.5758,-1.5832,-1.5832,-1.583,-1.4322,-1.1033,-1.1546,-1.1346,-0.9938,-0.9263,-0.91,-0.9296,-0.8746,-0.8257,-0.8101,-0.7922,-0.8096,-0.8683,-0.9356,-0.9446,-0.9025,-1.0014,-1.0107,-0.9503,-0.9503,-0.9125,-0.8586,-0.8386,-0.833,-0.8315,-0.8718,-0.904,-0.9413,-0.9762,-1.0064,-1.0517,-1.1548,-1.2288,-1.2966,-1.3982,-1.4915,-1.5588,-1.5588,-1.6403,-1.7353,-1.7585,-1.8302,-1.8968,-1.9207,-1.9645,-2.0158,-2.0862,-2.115,-2.1477,-2.218,-2.231,-2.231,-2.231,-2.231,-2.231,-2.231,-2.231,-2.2349,-2.2463,-2.2625,-2.2822,-2.3165,-2.3369,-2.3681,-2.4229,-2.4368,-2.459,-2.4967,-2.4379,-2.3709,-2.2934,-2.1587,-2.0602,-1.9974,-1.9803,-1.9192,-1.8129,-1.7181,-1.5629,-1.3542,-1.1265,-0.9321,-1.8921,-1.8811,-1.8962,-1.8972,-1.9533,-1.9817,-1.8952,-1.8913,-1.8778,-1.8138,-1.8021,-1.8009,-1.8024,-1.9723,-2.0834,-1.9624,-1.7386,-1.5777,-1.5763,-1.5771,-1.622,-1.7431,-1.6515,-1.5803,-1.5838,-1.5832,-1.5832,-1.5832,-1.581,-1.5121,-1.3454,-1.3278,-1.2693,-1.1507,-1.0612,-1.0324,-1.0776,-0.9961,-0.942,-0.9318,-0.8952,-0.9256,-1.0186,-1.0689,-1.0576,-1.0099,-1.1192,-1.1377,-1.0856,-1.0607,-1.0431,-1.0321,-0.9491,-0.9112,-0.9106,-0.9762,-1.0012,-1.0115,-1.0618,-1.1015,-1.1449,-1.2473,-1.31,-1.3622,-1.463,-1.532,-1.582,-1.582,-1.6544,-1.7353,-1.7463,-1.8185,-1.893,-1.9043,-1.9464,-2.0035,-2.0829,-2.1055,-2.1385,-2.2152,-2.231,-2.231,-2.231,-2.231,-2.231,-2.231,-2.231,-2.231,-2.231,-2.2537,-2.2822,-2.3165,-2.35,-2.3923,-2.4526,-2.4807,-2.4985,-2.5076,-2.4004,-2.3172,-2.2702,-2.1157,-2.0246,-2.0158,-1.9874,-1.9479,-1.9095,-1.809,-1.6741,-1.5077,-1.272,-1.0723,-1.8536,-1.863,-1.9303,-1.9302,-1.8759,-1.8394,-1.9069,-1.9298,-1.9052,-1.8181,-1.8018,-1.7997,-1.8028,-2.0735,-2.1402,-1.6866,-1.5963,-1.5777,-1.5812,-1.582,-1.6222,-1.7465,-1.6498,-1.5803,-1.5757,-1.5832,-1.5832,-1.5832,-1.5838,-1.5248,-1.3968,-1.3555,-1.2847,-1.1502,-1.1213,-1.0908,-1.0771,-1.0682,-1.0568,-1.0438,-1.0219,-1.0005,-0.9948,-1.0434,-1.0391,-0.9962,-1.076,-1.1302,-1.1626,-1.0554,-1.101,-1.2191,-1.0017,-0.9423,-0.9814,-1.0466,-1.072,-1.0712,-1.0762,-1.1598,-1.2667,-1.2773,-1.3986,-1.5398,-1.5499,-1.5964,-1.6423,-1.6423,-1.6866,-1.7435,-1.7907,-1.8458,-1.9043,-1.953,-1.9965,-2.0382,-2.0894,-2.1275,-2.1688,-2.2209,-2.231,-2.231,-2.231,-2.231,-2.231,-2.231,-2.231,-2.231,-2.231,-2.2537,-2.2822,-2.3165,-2.35,-2.3984,-2.4712,-2.5139,-2.5519,-2.5883,-2.4263,-2.2911,-2.2004,-2.091,-2.0124,-1.9747,-1.9711,-1.969,-1.9639,-1.9043,-1.8168,-1.6946,-1.5066,-1.2919,-1.9942,-1.984,-2.0115,-2.0101,-1.906,-1.8227,-1.9108,-1.9736,-2.0024,-1.9655,-2.0449,-2.0537,-1.8382,-1.7695,-1.8121,-2.0047,-1.7751,-1.5758,-1.5798,-1.5763,-1.5945,-1.6415,-1.6092,-1.5822,-1.5757,-1.5832,-1.5832,-1.5832,-1.5832,-1.5635,-1.514,-1.4943,-1.4534,-1.3732,-1.2888,-1.2551,-1.285,-1.2135,-1.2009,-1.2439,-1.1506,-1.1249,-1.1702,-1.1646,-1.1395,-1.0854,-1.1708,-1.1956,-1.1804,-1.1668,-1.2003,-1.2464,-1.117,-1.0514,-1.0517,-1.1166,-1.1416,-1.1557,-1.2395,-1.2976,-1.3558,-1.4286,-1.5016,-1.5676,-1.6051,-1.6337,-1.6552,-1.6909,-1.7146,-1.7353,-1.7544,-1.8263,-1.9029,-1.9507,-1.9969,-2.0516,-2.1213,-2.1491,-2.1718,-2.2209,-2.231,-2.231,-2.231,-2.231,-2.231,-2.231,-2.231,-2.231,-2.231,-2.2388,-2.2643,-2.3159,-2.3909,-2.451,-2.4767,-2.5013,-2.532,-2.5665,-2.4296,-2.3403,-2.3274,-2.1508,-2.0488,-2.0318,-1.9899,-1.969,-1.969,-1.9169,-1.8299,-1.7165,-1.5354,-1.3382,-2.1104,-2.0622,-2.0737,-2.1242,-2.0082,-1.9149,-2.0272,-2.0976,-2.1391,-2.1365,-2.2342,-2.2391,-2.0071,-1.6583,-1.559,-2.0065,-1.801,-1.5765,-1.5825,-1.5787,-1.5833,-1.5757,-1.5794,-1.5827,-1.5845,-1.5832,-1.5832,-1.5832,-1.5832,-1.5792,-1.5698,-1.5605,-1.5331,-1.4836,-1.392,-1.3692,-1.4088,-1.3206,-1.2939,-1.3419,-1.2692,-1.2525,-1.2802,-1.2538,-1.2227,-1.1819,-1.2491,-1.271,-1.2533,-1.2621,-1.2455,-1.2245,-1.2156,-1.1713,-1.1216,-1.1882,-1.2129,-1.2325,-1.3437,-1.3909,-1.4236,-1.5264,-1.572,-1.5952,-1.638,-1.6637,-1.6837,-1.7188,-1.7544,-1.7854,-1.7999,-1.8584,-1.9236,-1.9692,-2.0283,-2.0862,-2.146,-2.1718,-2.1928,-2.2237,-2.231,-2.231,-2.231,-2.231,-2.231,-2.231,-2.231,-2.231,-2.231,-2.231,-2.2571,-2.3223,-2.419,-2.4814,-2.4858,-2.5184,-2.5507,-2.5834,-2.4782,-2.41,-2.3938,-2.1847,-2.0812,-2.1021,-2.0139,-1.9794,-2.0004,-1.942,-1.8598,-1.7437,-1.5801,-1.3984,-2.1635,-2.0606,-2.098,-2.2659,-2.185,-2.0995,-2.2699,-2.3099,-2.3126,-2.3152,-2.311,-2.3109,-2.3044,-1.8196,-1.4573,-1.5631,-1.5759,-1.5819,-1.5805,-1.5832,-1.5832,-1.5832,-1.5832,-1.5832,-1.5832,-1.5832,-1.5832,-1.5832,-1.5832,-1.5705,-1.5411,-1.5124,-1.483,-1.4529,-1.4242,-1.4088,-1.4088,-1.3794,-1.3494,-1.3206,-1.3877,-1.3719,-1.2788,-1.2747,-1.2721,-1.2744,-1.2955,-1.3494,-1.4118,-1.3041,-1.2212,-1.1684,-1.2974,-1.2811,-1.1913,-1.2657,-1.2929,-1.3027,-1.36,-1.419,-1.4789,-1.541,-1.6008,-1.6522,-1.6522,-1.6879,-1.7312,-1.7312,-1.8066,-1.9029,-1.9477,-1.9606,-1.9728,-2.0196,-2.0959,-2.1582,-2.1628,-2.1957,-2.231,-2.231,-2.231,-2.231,-2.231,-2.231,-2.231,-2.231,-2.231,-2.231,-2.231,-2.231,-2.2599,-2.3408,-2.4276,-2.4866,-2.4996,-2.574,-2.6321,-2.6602,-2.5865,-2.4873,-2.3671,-2.1761,-2.1036,-2.168,-2.0378,-2.0034,-2.0707,-2.0019,-1.9169,-1.8052,-1.6866,-1.5022,-2.0179,-1.8807,-1.9214,-2.0923,-2.0029,-1.9489,-2.2463,-2.2227,-2.206,-2.4399,-2.3972,-2.2748,-2.1558,-2.0837,-1.9393,-1.6281,-1.5765,-1.5772,-1.5825,-1.5832,-1.5832,-1.5832,-1.5832,-1.5832,-1.5832,-1.5832,-1.5832,-1.5832,-1.5832,-1.5705,-1.5411,-1.5311,-1.5037,-1.4536,-1.4436,-1.4295,-1.4088,-1.3794,-1.381,-1.4194,-1.4175,-1.3895,-1.344,-1.3832,-1.3858,-1.3669,-1.4038,-1.4223,-1.4204,-1.4449,-1.4082,-1.3387,-1.3777,-1.3394,-1.2657,-1.3314,-1.3552,-1.3684,-1.4732,-1.5186,-1.5499,-1.6489,-1.6925,-1.7105,-1.7504,-1.7747,-1.7947,-1.8341,-1.8887,-1.9513,-1.9989,-2.0552,-2.1038,-2.118,-2.1413,-2.1688,-2.2032,-2.2209,-2.231,-2.231,-2.231,-2.231,-2.231,-2.231,-2.231,-2.231,-2.231,-2.236,-2.2563,-2.2781,-2.3171,-2.3775,-2.4425,-2.512,-2.5913,-2.6065,-2.6431,-2.7112,-2.5911,-2.5161,-2.5137,-2.3196,-2.1964,-2.1695,-2.0857,-2.0273,-1.9989,-1.9794,-1.9169,-1.8052,-1.6866,-1.5277,-2.0236,-1.9004,-1.9313,-2.0332,-1.9832,-1.9769,-2.2438,-2.1824,-2.1409,-2.4135,-2.3816,-2.2775,-2.1766,-2.0846,-1.9249,-1.6239,-1.5819,-1.5832,-1.5832,-1.5832,-1.5832,-1.5832,-1.5833,-1.5812,-1.5818,-1.5411,-1.5219,-1.5444,-1.5445,-1.5259,-1.5064,-1.505,-1.4836,-1.4362,-1.4349,-1.4262,-1.4088,-1.4069,-1.423,-1.4562,-1.4993,-1.4936,-1.4574,-1.4765,-1.4669,-1.4367,-1.4798,-1.4768,-1.4436,-1.4744,-1.4502,-1.3867,-1.3701,-1.3461,-1.3286,-1.3684,-1.3956,-1.4283,-1.5276,-1.5752,-1.6058,-1.7008,-1.7422,-1.7666,-1.7987,-1.8263,-1.8496,-1.8817,-1.9383,-1.9974,-2.0449,-2.1102,-2.1582,-2.1582,-2.1718,-2.1974,-2.2237,-2.231,-2.231,-2.231,-2.231,-2.231,-2.231,-2.231,-2.2349,-2.2436,-2.2463,-2.2527,-2.2669,-2.2996,-2.345,-2.4045,-2.4532,-2.512,-2.5905,-2.6337,-2.6645,-2.6832,-2.6056,-2.5581,-2.5558,-2.3739,-2.2488,-2.2099,-2.1186,-2.0513,-2.0094,-1.9612,-1.893,-1.8066,-1.6629,-1.5147,-2.1062,-2.0473,-2.0602,-2.0627,-2.069,-2.1265,-2.2719,-2.1914,-2.1185,-2.26,-2.2999,-2.3144,-2.3076,-1.9419,-1.6342,-1.5825,-1.5778,-1.5812,-1.5825,-1.5812,-1.5792,-1.5792,-1.5844,-1.5776,-1.5624,-1.476,-1.4456,-1.4917,-1.4702,-1.4625,-1.4536,-1.4522,-1.4376,-1.4055,-1.4048,-1.4112,-1.4169,-1.4453,-1.4679,-1.4819,-1.5956,-1.6365,-1.5966,-1.5613,-1.5215,-1.4851,-1.5222,-1.5223,-1.4857,-1.4355,-1.3916,-1.3568,-1.3185,-1.3364,-1.3909,-1.3956,-1.4329,-1.488,-1.5543,-1.6046,-1.6604,-1.7258,-1.7814,-1.8249,-1.8288,-1.8674,-1.9103,-1.9103,-1.9743,-2.0516,-2.0959,-2.1368,-2.1688,-2.1702,-2.2015,-2.231,-2.231,-2.231,-2.231,-2.231,-2.231,-2.231,-2.231,-2.231,-2.2388,-2.2634,-2.2669,-2.2721,-2.2746,-2.3052,-2.3563,-2.4258,-2.4623,-2.4996,-2.5388,-2.6571,-2.6931,-2.6075,-2.6243,-2.6015,-2.5185,-2.364,-2.2783,-2.2724,-2.144,-2.0782,-2.0722,-1.9543,-1.865,-1.8052,-1.6413,-1.5004,-1.889,-1.9581,-2.0594,-2.0634,-2.1568,-2.2624,-2.3036,-2.2814,-2.2252,-2.1284,-2.2217,-2.3106,-2.3113,-2.226,-2.0228,-1.6458,-1.5765,-1.5765,-1.5812,-1.5846,-1.5803,-1.5803,-1.5755,-1.5486,-1.4527,-1.5037,-1.5093,-1.434,-1.4283,-1.4326,-1.4529,-1.4522,-1.4282,-1.3754,-1.3741,-1.394,-1.4475,-1.4392,-1.5012,-1.6487,-1.62,-1.6232,-1.6526,-1.644,-1.6279,-1.61,-1.5614,-1.5499,-1.5618,-1.4944,-1.449,-1.4202,-1.4109,-1.4227,-1.456,-1.505,-1.532,-1.5531,-1.6574,-1.7008,-1.7258,-1.8249,-1.8887,-1.9353,-1.9728,-2.0147,-2.055,-2.055,-2.0927,-2.1321,-2.143,-2.1811,-2.2203,-2.2422,-2.2364,-2.231,-2.231,-2.231,-2.231,-2.231,-2.231,-2.231,-2.231,-2.231,-2.2338,-2.2388,-2.2563,-2.2797,-2.3069,-2.352,-2.4062,-2.462,-2.4893,-2.5408,-2.6327,-2.6949,-2.6969,-2.6211,-2.6639,-2.6332,-2.4947,-2.3915,-2.3176,-2.2724,-2.1889,-2.1231,-2.0722,-1.9894,-1.9043,-1.8066,-1.722,-1.5985,-1.8366,-1.9288,-2.0779,-2.1558,-2.2424,-2.3113,-2.3096,-2.3135,-2.2853,-2.1958,-2.2524,-2.3086,-2.3124,-2.3053,-2.2221,-1.9687,-1.7313,-1.5792,-1.5785,-1.5837,-1.5602,-1.5081,-1.501,-1.4714,-1.4142,-1.4608,-1.4704,-1.4141,-1.4125,-1.4117,-1.403,-1.4102,-1.3895,-1.3447,-1.3822,-1.4281,-1.4576,-1.5225,-1.5917,-1.6741,-1.6628,-1.655,-1.6406,-1.6191,-1.6257,-1.6492,-1.6093,-1.5984,-1.6038,-1.5627,-1.5118,-1.4547,-1.4547,-1.4771,-1.5186,-1.5499,-1.594,-1.6489,-1.7092,-1.7626,-1.8185,-1.8727,-1.9383,-1.9974,-2.023,-2.0616,-2.0991,-2.0991,-2.1275,-2.1582,-2.1582,-2.1957,-2.236,-2.2634,-2.2599,-2.25,-2.25,-2.25,-2.2436,-2.2321,-2.231,-2.231,-2.231,-2.2535,-2.2721,-2.2721,-2.2989,-2.3236,-2.3414,-2.3769,-2.4192,-2.4746,-2.4985,-2.5372,-2.6029,-2.6481,-2.6395,-2.564,-2.6154,-2.6019,-2.4857,-2.428,-2.3686,-2.3046,-2.2169,-2.138,-2.0722,-1.9782,-1.9043,-1.8458,-1.7328,-1.6182,-1.8825,-1.9488,-2.0974,-2.2675,-2.3093,-2.3066,-2.3125,-2.3135,-2.3135,-2.3135,-2.3135,-2.3135,-2.3135,-2.3115,-2.3082,-2.3121,-1.9736,-1.6778,-1.5944,-1.5766,-1.5335,-1.4276,-1.4103,-1.4141,-1.4084,-1.4077,-1.407,-1.3972,-1.3959,-1.3881,-1.3587,-1.3642,-1.3668,-1.3369,-1.4263,-1.4835,-1.4927,-1.628,-1.6803,-1.6606,-1.71,-1.7044,-1.6347,-1.5976,-1.6083,-1.6708,-1.6708,-1.6656,-1.6502,-1.6272,-1.5747,-1.4994,-1.4915,-1.5276,-1.5884,-1.5884,-1.6532,-1.7463,-1.7544,-1.8185,-1.893,-1.9103,-1.9707,-2.0449,-2.0501,-2.0846,-2.1229,-2.1229,-2.1477,-2.1718,-2.1718,-2.2044,-2.2453,-2.2712,-2.2822,-2.2873,-2.2797,-2.2746,-2.2634,-2.2398,-2.2321,-2.2293,-2.236,-2.2781,-2.3141,-2.3189,-2.35,-2.3714,-2.3738,-2.3986,-2.4318,-2.4813,-2.5039,-2.5272,-2.5613,-2.6046,-2.5985,-2.5276,-2.5878,-2.5857,-2.4927,-2.4668,-2.4231,-2.3608,-2.244,-2.1545,-2.0887,-1.9666,-1.897,-1.8727,-1.7259,-1.6157,-2.0361,-2.0439,-2.097,-2.2661,-2.3093,-2.3137,-2.3076,-2.3135,-2.3135,-2.3135,-2.3135,-2.3135,-2.3135,-2.3076,-2.3076,-2.3092,-2.2558,-2.066,-1.6401,-1.5789,-1.5343,-1.4257,-1.4109,-1.4064,-1.4103,-1.4128,-1.3995,-1.3596,-1.355,-1.3486,-1.328,-1.4023,-1.4333,-1.4094,-1.4965,-1.5763,-1.6298,-1.6535,-1.688,-1.7253,-1.7235,-1.7313,-1.739,-1.7324,-1.7357,-1.7468,-1.7468,-1.7588,-1.776,-1.666,-1.6184,-1.6125,-1.5676,-1.6145,-1.705,-1.705,-1.745,-1.8066,-1.8535,-1.8779,-1.9029,-1.9849,-2.0483,-2.0959,-2.1337,-2.1764,-2.2123,-2.2123,-2.218,-2.2209,-2.2209,-2.2419,-2.2738,-2.3045,-2.3369,-2.35,-2.3189,-2.2923,-2.2695,-2.266,-2.2463,-2.236,-2.2599,-2.2721,-2.2873,-2.3165,-2.35,-2.3762,-2.3929,-2.4383,-2.4821,-2.511,-2.5214,-2.5642,-2.6544,-2.6882,-2.6925,-2.6581,-2.7241,-2.6934,-2.5392,-2.5159,-2.4823,-2.429,-2.3137,-2.2218,-2.156,-2.0352,-1.9244,-1.8185,-1.7504,-1.6511,-2.0205,-2.0303,-2.0751,-2.1507,-2.1909,-2.2285,-2.2935,-2.3077,-2.3133,-2.3066,-2.3085,-2.3103,-2.3105,-2.3135,-2.3086,-2.3095,-2.2688,-2.1489,-1.8847,-1.6931,-1.6286,-1.7565,-1.7754,-1.7282,-1.5989,-1.6268,-1.6316,-1.5862,-1.4999,-1.4294,-1.381,-1.4157,-1.423,-1.3896,-1.5394,-1.6316,-1.6567,-1.6915,-1.7154,-1.7307,-1.7392,-1.7511,-1.7633,-1.8015,-1.8232,-1.8232,-1.8232,-1.8211,-1.813,-1.7545,-1.6989,-1.6426,-1.6193,-1.66,-1.7312,-1.7312,-1.7827,-1.8612,-1.9126,-1.9456,-1.9814,-2.0483,-2.0975,-2.1368,-2.1552,-2.1928,-2.231,-2.231,-2.231,-2.231,-2.231,-2.2388,-2.259,-2.3069,-2.3305,-2.3477,-2.3714,-2.3346,-2.2873,-2.2554,-2.2388,-2.2426,-2.2898,-2.2972,-2.3165,-2.3692,-2.3896,-2.4039,-2.4247,-2.458,-2.4898,-2.5128,-2.5266,-2.5729,-2.666,-2.6621,-2.6497,-2.6467,-2.6673,-2.6264,-2.5113,-2.4879,-2.4632,-2.4389,-2.3258,-2.2215,-2.1263,-2.0364,-1.929,-1.8106,-1.7544,-1.6633,-1.9924,-2.0178,-2.0591,-2.0585,-2.0902,-2.1399,-2.2256,-2.2778,-2.2965,-2.2571,-2.2798,-2.3128,-2.311,-2.3114,-2.3135,-2.3135,-2.2217,-2.1367,-2.0651,-1.7578,-1.6263,-1.8651,-1.9895,-1.9971,-1.8267,-1.8143,-1.7848,-1.7259,-1.622,-1.518,-1.4513,-1.4696,-1.4605,-1.4261,-1.6027,-1.683,-1.6619,-1.7106,-1.7388,-1.7467,-1.7757,-1.7961,-1.8178,-1.8715,-1.8992,-1.8992,-1.8992,-1.8741,-1.8405,-1.8267,-1.7626,-1.6722,-1.6688,-1.7034,-1.7504,-1.7666,-1.8302,-1.9155,-1.9507,-1.9919,-2.0382,-2.0862,-2.1275,-2.1612,-2.1718,-2.2032,-2.231,-2.231,-2.231,-2.231,-2.231,-2.2349,-2.2544,-2.3087,-2.3277,-2.3459,-2.3958,-2.3671,-2.3135,-2.2517,-2.2398,-2.2554,-2.3111,-2.3189,-2.3414,-2.4094,-2.419,-2.4284,-2.4526,-2.4706,-2.4904,-2.5146,-2.55,-2.5983,-2.6641,-2.6384,-2.6316,-2.6608,-2.61,-2.5554,-2.5071,-2.4632,-2.4271,-2.3953,-2.3002,-2.1993,-2.0905,-2.0087,-1.907,-1.7867,-1.7353,-1.6509,-2.0029,-2.0244,-2.0596,-2.0589,-2.0614,-2.0647,-2.0733,-2.1997,-2.2661,-2.1059,-2.2026,-2.3144,-2.3071,-2.3077,-2.3135,-2.3135,-2.1693,-2.0652,-2.0643,-1.6897,-1.4216,-1.4413,-1.8093,-2.0533,-2.0414,-1.8554,-1.7045,-1.6319,-1.6185,-1.5873,-1.5158,-1.5965,-1.6276,-1.5806,-1.7156,-1.7551,-1.667,-1.7012,-1.7579,-1.8258,-1.853,-1.8992,-1.9695,-1.9747,-1.9747,-1.9747,-1.9747,-1.9434,-1.8895,-1.8417,-1.7865,-1.7365,-1.7297,-1.7585,-1.8145,-1.8612,-1.9169,-1.9639,-1.969,-1.9965,-2.0382,-2.0862,-2.1275,-2.1688,-2.2135,-2.2282,-2.231,-2.231,-2.231,-2.231,-2.231,-2.2473,-2.2772,-2.3117,-2.3437,-2.3692,-2.3714,-2.3692,-2.3477,-2.2797,-2.2669,-2.2797,-2.3141,-2.3189,-2.3414,-2.4094,-2.419,-2.4339,-2.4731,-2.4782,-2.496,-2.5343,-2.6134,-2.6654,-2.6688,-2.6737,-2.7065,-2.777,-2.6319,-2.5514,-2.5749,-2.4854,-2.3907,-2.281,-2.2232,-2.1584,-2.0905,-1.9713,-1.8538,-1.7353,-1.6795,-1.6098,-2.0029,-2.0234,-2.0527,-2.0217,-2.0391,-2.0603,-2.0619,-2.1031,-2.1301,-2.0696,-2.1106,-2.1461,-2.1501,-2.2355,-2.278,-2.1663,-2.0957,-2.0438,-1.9843,-1.8891,-1.8024,-1.7484,-1.8843,-1.9985,-2.0566,-1.9411,-1.846,-1.823,-1.7376,-1.663,-1.6105,-1.6109,-1.6233,-1.6351,-1.7168,-1.7575,-1.7388,-1.776,-1.8102,-1.8553,-1.9129,-1.9527,-1.9798,-1.9798,-1.9798,-1.9786,-1.9773,-1.9749,-1.9577,-1.896,-1.8648,-1.8459,-1.7977,-1.8145,-1.865,-1.8817,-1.9244,-1.9747,-2.0,-2.0398,-2.0813,-2.1244,-2.1705,-2.2077,-2.2254,-2.231,-2.231,-2.231,-2.231,-2.231,-2.231,-2.236,-2.2581,-2.3087,-2.3477,-2.3774,-2.3958,-2.3837,-2.3566,-2.3117,-2.3021,-2.3117,-2.3459,-2.3522,-2.3671,-2.4113,-2.419,-2.4358,-2.4746,-2.4836,-2.4985,-2.5308,-2.5693,-2.6071,-2.6404,-2.6155,-2.6153,-2.66,-2.5415,-2.4712,-2.4689,-2.4037,-2.3203,-2.2217,-2.1583,-2.0753,-1.9725,-1.8952,-1.8157,-1.7357,-1.6692,-1.6209,-2.0029,-2.0127,-2.0312,-2.0166,-2.0137,-2.0244,-2.0498,-2.0566,-2.0605,-2.0579,-2.0589,-2.0579,-2.0628,-2.1528,-2.1739,-2.0016,-2.008,-1.9955,-1.9008,-1.9535,-1.9777,-1.8991,-1.901,-1.9412,-1.9989,-1.9556,-1.9228,-1.9082,-1.8218,-1.7506,-1.7088,-1.6733,-1.6726,-1.6865,-1.6756,-1.7016,-1.7572,-1.7923,-1.8292,-1.8715,-1.9423,-1.9798,-1.9798,-1.9798,-1.9798,-1.9837,-2.0057,-1.9969,-1.9655,-1.915,-1.8884,-1.8739,-1.8456,-1.8574,-1.893,-1.9095,-1.9406,-1.9747,-2.0,-2.0483,-2.1023,-2.1306,-2.1811,-2.231,-2.231,-2.231,-2.231,-2.231,-2.231,-2.231,-2.231,-2.2377,-2.2554,-2.3087,-2.3477,-2.3795,-2.4132,-2.4034,-2.3774,-2.3437,-2.3369,-2.3437,-2.3671,-2.3692,-2.3816,-2.4151,-2.419,-2.4358,-2.4746,-2.4861,-2.499,-2.5269,-2.5679,-2.5926,-2.5881,-2.5653,-2.5485,-2.547,-2.4337,-2.3687,-2.3775,-2.3111,-2.2254,-2.1265,-2.0583,-1.9807,-1.8781,-1.8249,-1.7771,-1.7388,-1.6907,-1.6549,0.0,0.0,0.0,-2.0439,-1.9922,-1.9517,-2.0402,-2.0597,-2.0597,-2.0607,-2.0552,-2.0527,-2.0527,-2.0579,-1.9984,-1.8267,-1.8943,-1.9247,-1.817,-1.8535,-1.8667,-1.8098,-1.8493,-1.887,-1.8889,-1.9146,-1.9082,-1.8592,-1.8623,-1.8437,-1.8037,-1.7998,-1.7803,-1.7439,-1.6164,-1.6036,-1.7242,-1.7487,-1.8015,-1.8715,-1.9475,-1.9798,-1.9798,-1.9798,-1.9798,-1.985,-2.0471,-2.0123,-1.9027,-1.8983,-1.8631,-1.8252,-1.8741,-1.893,-1.8983,-1.9545,-1.9705,-1.969,-1.9741,-2.0292,-2.0991,-2.0991,-2.1584,-2.231,-2.231,-2.231,-2.231,-2.231,-2.231,-2.231,-2.231,-2.25,-2.2772,-2.3117,-2.3437,-2.3774,-2.4132,-2.419,-2.4094,-2.3774,-2.3714,-2.3714,-2.3714,-2.3714,-2.3816,-2.4151,-2.419,-2.4358,-2.4746,-2.4861,-2.499,-2.5269,-2.619,-2.6292,-2.5099,-2.5276,-2.5208,-2.4604,-2.3204,-2.2606,-2.3039,-2.2148,-2.1099,-1.9886,-1.9346,-1.874,-1.8066,-1.7575,-1.7408,-1.742,-1.7413,-1.7159,-2.042,0.0,0.0,0.0,0.0,0.0,-1.9688,-1.9659,-1.9845,-2.0457,-2.0068,-1.9639,-1.9639,-1.9644,-1.9331,-1.821,-1.8291,-1.8461,-1.8447,-1.8344,-1.8182,-1.8004,-1.8172,-1.8397,-1.888,-1.8555,-1.8437,-1.8623,-1.8359,-1.8135,-1.8018,-1.7715,-1.7605,-1.7707,-1.7071,-1.7387,-1.8771,-1.8542,-1.8768,-1.9475,-1.9695,-1.9798,-1.9798,-1.9798,-1.9798,-1.9812,-1.9993,-1.9904,-1.9636,-2.0034,-2.0105,-1.9932,-1.9598,-1.9479,-1.9553,-2.0206,-2.0109,-1.9822,-2.0584,-2.0905,-2.1055,-2.1337,-2.184,-2.231,-2.231,-2.231,-2.231,-2.231,-2.231,-2.231,-2.231,-2.2349,-2.2527,-2.3087,-2.3259,-2.35,-2.4074,-2.419,-2.417,-2.4074,-2.4074,-2.4074,-2.4074,-2.4074,-2.4094,-2.419,-2.419,-2.4358,-2.4746,-2.4861,-2.499,-2.5269,-2.564,-2.5595,-2.4902,-2.4729,-2.4321,-2.3618,-2.2691,-2.2217,-2.2303,-2.1366,-2.0367,-1.9346,-1.8795,-1.8007,-1.6951,-1.6789,-1.718,-1.7943,-1.7303,-1.6563,-2.0566,-2.0439,-2.0273,-2.0205,0.0,0.0,-1.9195,-1.8947,-1.9014,-1.9889,-1.9354,-1.8807,-1.9093,-1.9232,-1.9046,-1.8322,-1.812,-1.8103,-1.83,-1.8164,-1.8008,-1.8008,-1.8008,-1.8115,-1.8458,-1.8242,-1.8115,-1.8359,-1.8144,-1.7939,-1.7764,-1.765,-1.7571,-1.753,-1.7414,-1.7957,-1.9124,-1.8815,-1.9097,-1.9798,-1.9798,-1.9798,-1.9798,-1.9798,-1.9798,-1.9812,-2.0083,-2.0202,-2.0257,-2.0585,-2.0556,-2.0243,-1.9839,-1.969,-1.9735,-2.0139,-2.0128,-2.0025,-2.0477,-2.0895,-2.1244,-2.1337,-2.1781,-2.231,-2.231,-2.231,-2.231,-2.231,-2.231,-2.231,-2.231,-2.231,-2.2443,-2.3063,-2.3189,-2.3392,-2.4054,-2.419,-2.419,-2.419,-2.419,-2.419,-2.419,-2.419,-2.4228,-2.4321,-2.4339,-2.4461,-2.4836,-2.4974,-2.5097,-2.5288,-2.542,-2.5327,-2.4923,-2.4651,-2.4171,-2.337,-2.2505,-2.1886,-2.1583,-2.0661,-1.9704,-1.8698,-1.8385,-1.7642,-1.6522,-1.6522,-1.6955,-1.771,-1.6996,-1.6377,-2.0566,-2.0283,-2.0068,-2.041,-1.9629,0.0,-1.8774,-1.8361,-1.8254,-1.8973,-1.8514,-1.8187,-1.8672,-1.9019,-1.9023,-1.8516,-1.8213,-1.8008,-1.8008,-1.8008,-1.8008,-1.8008,-1.7969,-1.7939,-1.7939,-1.7939,-1.792,-1.7871,-1.7871,-1.7792,-1.7524,-1.7644,-1.7651,-1.7429,-1.7611,-1.8058,-1.8821,-1.8821,-1.915,-1.9798,-1.9798,-1.9798,-1.9798,-1.9798,-1.985,-1.994,-2.0531,-2.0792,-2.0792,-2.0798,-2.0406,-1.9794,-1.972,-1.969,-1.969,-1.9765,-2.0005,-2.0193,-2.0036,-2.0662,-2.1491,-2.1229,-2.1691,-2.231,-2.231,-2.231,-2.231,-2.231,-2.231,-2.231,-2.231,-2.231,-2.2443,-2.3063,-2.3189,-2.3392,-2.4054,-2.419,-2.419,-2.419,-2.419,-2.419,-2.419,-2.419,-2.4266,-2.4461,-2.4495,-2.462,-2.4962,-2.5118,-2.5231,-2.5288,-2.542,-2.5358,-2.5022,-2.4883,-2.4431,-2.3557,-2.2486,-2.162,-2.1023,-2.0104,-1.9169,-1.8224,-1.8066,-1.7544,-1.6595,-1.6572,-1.6708,-1.6985,-1.6591,-1.6384,-2.0566,-2.0498,-2.0371,-2.0107,-1.9853,0.0,-1.8423,-1.8062,-1.8078,-1.8213,-1.8115,-1.8065,-1.8163,-1.8203,-1.8037,-1.7503,-1.7745,-1.8008,-1.8008,-1.8008,-1.8008,-1.8008,-1.7715,-1.75,-1.75,-1.75,-1.7363,-1.7002,-1.6982,-1.7338,-1.8232,-1.7646,-1.7846,-1.894,-1.8663,-1.8821,-1.9579,-1.9592,-1.9643,-1.9798,-1.9798,-1.9798,-1.9798,-1.9798,-2.0105,-2.062,-2.0725,-2.0765,-2.0784,-2.1292,-2.1099,-2.0453,-1.9899,-1.969,-1.975,-2.0318,-2.0227,-1.9985,-2.1139,-2.1372,-2.1213,-2.184,-2.2152,-2.231,-2.231,-2.231,-2.231,-2.231,-2.231,-2.231,-2.231,-2.231,-2.2443,-2.3063,-2.3189,-2.3392,-2.4054,-2.419,-2.419,-2.419,-2.419,-2.419,-2.419,-2.419,-2.4266,-2.4461,-2.4495,-2.462,-2.4962,-2.5118,-2.5231,-2.5288,-2.542,-2.5358,-2.5022,-2.4883,-2.4431,-2.3557,-2.2486,-2.162,-2.1023,-1.9743,-1.8968,-1.8727,-1.7907,-1.7353,-1.7146,-1.703,-1.6714,-1.6227,-1.5988,-1.5746,-2.0566,-2.0566,-2.0508,-2.0293,-2.0078,0.0,0.0,-1.8328,-1.798,-1.8008,-1.8008,-1.8008,-1.8008,-1.8008,-1.793,-1.7628,-1.7523,-1.7581,-1.7715,-1.7881,-1.8008,-1.8008,-1.7822,-1.7607,-1.7402,-1.7383,-1.7481,-1.7607,-1.7385,-1.7719,-1.8736,-1.8482,-1.8544,-1.901,-1.9177,-1.9423,-1.9798,-1.9798,-1.9798,-1.9798,-1.9798,-1.9798,-1.9798,-2.0156,-2.0497,-2.0818,-2.0792,-2.1156,-2.1686,-2.1318,-2.141,-2.162,-2.0946,-2.0483,-2.0243,-2.0587,-2.0406,-2.008,-2.0663,-2.0931,-2.1055,-2.1524,-2.1781,-2.2003,-2.2237,-2.231,-2.231,-2.231,-2.231,-2.231,-2.231,-2.2415,-2.2616,-2.3087,-2.3346,-2.3588,-2.4094,-2.419,-2.419,-2.419,-2.419,-2.419,-2.419,-2.419,-2.4303,-2.4591,-2.4559,-2.4651,-2.5088,-2.5141,-2.5197,-2.5347,-2.5405,-2.5376,-2.5212,-2.4955,-2.4463,-2.3704,-2.2544,-2.162,-2.1023,-1.9899,-1.9169,-1.8893,-1.7867,-1.7312,-1.7312,-1.6573,-1.6145,-1.5974,-1.5475,-1.5103,-2.0693,-2.0693,-2.0693,-2.0693,-2.043,-2.0039,0.0,0.0,0.0,-1.8134,-1.8066,-1.8008,-1.8008,-1.8008,-1.7949,-1.7706,-1.7514,-1.7369,-1.7372,-1.781,-1.8108,-1.7881,-1.7891,-1.7725,-1.7305,-1.7229,-1.7564,-1.8396,-1.8017,-1.8164,-1.9084,-1.9237,-1.9155,-1.8951,-1.9475,-1.9798,-1.9798,-1.9798,-1.9798,-1.9798,-1.9798,-1.9798,-1.9798,-2.0359,-2.0746,-2.0953,-2.0947,-2.164,-2.2643,-2.1657,-2.1821,-2.2607,-2.1949,-2.138,-2.0902,-2.0902,-2.0751,-2.0527,-2.0243,-2.0531,-2.1069,-2.1198,-2.1477,-2.1794,-2.218,-2.231,-2.231,-2.231,-2.2349,-2.2377,-2.2293,-2.2554,-2.2855,-2.3141,-2.3477,-2.3795,-2.4132,-2.419,-2.419,-2.419,-2.419,-2.419,-2.419,-2.419,-2.4339,-2.4746,-2.4623,-2.4697,-2.5233,-2.5187,-2.5178,-2.5371,-2.541,-2.5401,-2.5399,-2.5019,-2.4523,-2.3841,-2.2608,-2.162,-2.1023,-2.0139,-1.9479,-1.9043,-1.7987,-1.7381,-1.7299,-1.5889,-1.5441,-1.5831,-1.4948,-1.4383,-2.1152,-2.1152,-2.1152,-2.1152,-2.1123,-2.0869,-2.0039,0.0,-1.901,-1.8652,0.0,-1.8008,-1.8008,0.0,0.0,-1.6667,-1.758,-1.8143,-1.7355,-1.8141,-1.8467,-1.7589,-1.7451,-1.7285,-1.6846,-1.6688,-1.695,-1.7811,-1.7694,-1.8159,-1.9291,-1.8975,-1.9052,-1.9643,-1.9747,-1.9798,-1.9798,-1.9798,-1.9798,-1.9798,-1.9798,-1.9798,-1.9798,-1.9901,-2.0521,-2.1615,-2.1594,-2.2008,-2.2718,-2.3121,-2.3059,-2.2607,-2.1949,-2.165,-2.159,-2.159,-2.1569,-2.156,-2.171,-2.1528,-2.1349,-2.195,-2.218,-2.2237,-2.2282,-2.231,-2.231,-2.231,-2.2463,-2.2599,-2.236,-2.2721,-2.3141,-2.3189,-2.3477,-2.3795,-2.4132,-2.419,-2.419,-2.419,-2.419,-2.419,-2.419,-2.419,-2.4339,-2.4746,-2.4623,-2.4697,-2.5233,-2.5187,-2.5178,-2.5371,-2.5444,-2.5453,-2.5408,-2.5022,-2.452,-2.3842,-2.2608,-2.162,-2.1023,-2.0139,-1.969,-1.9603,-1.8574,-1.776,-1.722,-1.5567,-1.4987,-1.5333,-1.4237,-1.3711,-2.123,-2.123,-2.1311,-2.1908,-2.2056,-2.1968,-2.1713,-2.1498,-2.1016,-1.9733,0.0,0.0,0.0,0.0,0.0,0.0,-1.811,-1.867,-1.8373,-1.8309,-1.8283,-1.8238,-1.7905,-1.7427,-1.7053,-1.7414,-1.7964,-1.8768,-1.8472,-1.879,-2.0116,-1.9625,-1.967,-2.0359,-2.0003,-2.0003,-2.0396,-2.0003,-1.9798,-1.9798,-1.9798,-1.9798,-1.9798,-2.0207,-2.0868,-2.1683,-2.1721,-2.2279,-2.3206,-2.3101,-2.3116,-2.3176,-2.2906,-2.2577,-2.2263,-2.2263,-2.1784,-2.1158,-2.1481,-2.1214,-2.0858,-2.1636,-2.2077,-2.231,-2.231,-2.231,-2.231,-2.231,-2.25,-2.2669,-2.2563,-2.3014,-2.35,-2.35,-2.3753,-2.4016,-2.417,-2.419,-2.419,-2.419,-2.419,-2.419,-2.419,-2.419,-2.4303,-2.4575,-2.4543,-2.4623,-2.4981,-2.5027,-2.5091,-2.5205,-2.5364,-2.5429,-2.5399,-2.5032,-2.4596,-2.4132,-2.2551,-2.1343,-2.0616,-2.0,-1.9566,-1.9244,-1.8496,-1.7626,-1.6747,-1.5386,-1.4417,-1.3838,-1.3233,-1.2839,-2.1582,-2.1582,-2.1787,-2.2646,-2.283,-2.29,-2.3006,-2.2969,-2.2492,-2.095,-2.0543,0.0,0.0,0.0,-1.9378,-1.842,0.0,-1.9225,-1.866,-1.8408,-1.8449,-1.87,-1.8257,-1.7719,-1.7273,-1.8032,-1.8811,-1.9309,-1.9155,-1.9438,-2.0401,-2.0024,-2.0105,-2.0795,-2.0346,-2.0396,-2.1028,-2.057,-2.032,-2.032,-2.032,-2.032,-2.032,-2.0818,-2.1403,-2.1979,-2.1967,-2.2586,-2.3565,-2.3116,-2.3191,-2.3595,-2.3595,-2.3325,-2.2936,-2.2936,-2.2445,-2.1766,-2.1972,-2.1657,-2.1214,-2.1738,-2.2095,-2.231,-2.231,-2.231,-2.231,-2.231,-2.2554,-2.2822,-2.2721,-2.3277,-2.3816,-2.3714,-2.3955,-2.419,-2.419,-2.419,-2.419,-2.419,-2.419,-2.419,-2.419,-2.419,-2.4266,-2.4461,-2.4444,-2.4512,-2.4775,-2.4877,-2.4972,-2.5091,-2.5304,-2.5431,-2.5434,-2.5071,-2.4527,-2.3878,-2.2271,-2.1038,-2.0333,-1.9909,-1.9442,-1.8893,-1.838,-1.7464,-1.6151,-1.5174,-1.3935,-1.2541,-1.2289,-1.1944,-2.2471,-2.2471,-2.2606,-2.3103,-2.3301,-2.3298,-2.342,-2.3205,-2.2722,-2.2056,-2.1643,-2.1173,-2.0616,-2.005,-1.951,-1.896,-1.9978,0.0,0.0,-1.8543,-1.9393,-1.8453,-1.8291,-1.8002,-1.7242,-1.8103,-1.8685,-1.8738,-1.9371,-1.9759,-1.9823,-1.9811,-2.0105,-2.0795,-2.0795,-2.1077,-2.1663,-2.1649,-2.1649,-2.1649,-2.1649,-2.1649,-2.1649,-2.1649,-2.2053,-2.2649,-2.268,-2.3039,-2.3595,-2.358,-2.358,-2.3595,-2.3595,-2.3595,-2.3565,-2.3565,-2.3861,-2.4244,-2.4056,-2.3701,-2.3224,-2.2806,-2.2495,-2.231,-2.231,-2.231,-2.231,-2.231,-2.2738,-2.3117,-2.2797,-2.3437,-2.4094,-2.3774,-2.3955,-2.419,-2.419,-2.419,-2.419,-2.419,-2.419,-2.419,-2.419,-2.419,-2.4266,-2.4461,-2.4321,-2.4339,-2.4746,-2.4804,-2.4885,-2.5081,-2.5332,-2.5505,-2.5507,-2.5127,-2.4262,-2.2758,-2.1632,-2.0797,-2.0314,-1.9909,-1.9442,-1.8893,-1.838,-1.7233,-1.5548,-1.4982,-1.369,-1.1823,-1.1498,-1.1001,-2.251,-2.251,-2.2874,-2.4465,-2.4585,-2.457,-2.5731,-2.562,-2.4936,-2.3743,-2.3103,-2.2468,-2.1359,-2.1145,-2.1049,-2.0602,-2.0668,-2.0523,0.0,-1.9883,-1.9485,-1.8682,-1.9352,-1.9436,-1.8302,-1.9318,-1.9883,-1.9448,-1.9643,-1.9798,-1.9798,-2.0194,-2.0733,-2.139,-2.139,-2.1724,-2.2346,-2.1899,-2.1697,-2.1697,-2.1697,-2.1697,-2.1697,-2.1697,-2.2053,-2.2694,-2.2694,-2.3054,-2.3595,-2.3595,-2.3595,-2.3595,-2.3595,-2.3595,-2.3595,-2.3595,-2.3453,-2.3275,-2.3417,-2.3736,-2.4103,-2.3933,-2.3506,-2.3038,-2.3038,-2.2699,-2.231,-2.231,-2.2721,-2.3165,-2.3069,-2.361,-2.417,-2.4074,-2.4113,-2.419,-2.419,-2.419,-2.419,-2.419,-2.419,-2.419,-2.419,-2.419,-2.4228,-2.4284,-2.4357,-2.441,-2.441,-2.4639,-2.4828,-2.4892,-2.5102,-2.5277,-2.535,-2.4841,-2.4081,-2.3064,-2.1961,-2.1148,-2.0797,-2.0085,-1.9281,-1.838,-1.8185,-1.7081,-1.4982,-1.4321,-1.2763,-1.041,-0.9821,-0.9468,-2.3473,-2.3632,-2.4169,-2.5363,-2.5633,-2.6,-2.7061,-2.7005,-2.6439,-2.5294,-2.4621,-2.3948,-2.3046,-2.2755,-2.2501,-2.2084,-2.157,-2.1231,0.0,-2.0412,-1.9611,-1.9162,-1.985,-2.0011,-1.9132,-1.9814,-2.0288,-2.0125,-1.9911,-1.9798,-1.9798,-2.0459,-2.1064,-2.1697,-2.1946,-2.2392,-2.3009,-2.2606,-2.2363,-2.2363,-2.2363,-2.2363,-2.2363,-2.2363,-2.2606,-2.3009,-2.3009,-2.3246,-2.3595,-2.3595,-2.3595,-2.3595,-2.3595,-2.3595,-2.3595,-2.3595,-2.358,-2.3668,-2.418,-2.4597,-2.4881,-2.4881,-2.4205,-2.3393,-2.3393,-2.2885,-2.231,-2.231,-2.266,-2.3045,-2.3165,-2.361,-2.4036,-2.417,-2.419,-2.419,-2.419,-2.419,-2.417,-2.4054,-2.4113,-2.417,-2.4036,-2.4113,-2.419,-2.419,-2.4321,-2.4358,-2.4209,-2.4495,-2.4716,-2.479,-2.4977,-2.5111,-2.5127,-2.4643,-2.4062,-2.3414,-2.2319,-2.1619,-2.1397,-2.0449,-1.9501,-1.8661,-1.8055,-1.6727,-1.4631,-1.3789,-1.1969,-0.9327,-0.8377,-0.7641]}]]